GFSSW_sfc_30mbdewp_000.txt.gz
Dewpoint
51 51 51 51 51 51 51 52 52 52 52 52 53 53 54 54 52 47 26 31 33 40 43 31 26 9 10 3 4 5 2 -2 -2 2 1 2 2 12 14 12 16 18 27 47 52
51 51 52 52 51 51 51 52 52 52 52 52 53 53 54 54 46 22 33 39 40 40 32 17 12 9 6 4 6 8 5 3 3 3 5 3 3 7 8 11 16 24 30 41 49
51 51 51 51 51 52 52 52 52 52 52 52 53 54 54 54 37 24 37 38 36 38 31 25 18 11 10 11 12 11 5 5 9 14 7 8 7 11 9 9 19 19 28 34 40
53 52 52 52 53 53 53 53 52 52 53 53 54 54 54 48 23 27 34 35 35 36 29 22 16 16 14 13 15 13 13 14 17 17 16 17 18 16 15 14 20 22 25 32 35
53 53 53 53 54 54 54 54 53 53 52 53 54 54 52 33 27 31 33 34 33 26 22 19 18 20 14 15 18 16 18 20 21 21 20 19 17 18 16 16 22 22 30 31 33
53 53 53 53 54 54 54 54 53 52 52 53 53 53 46 25 30 30 31 29 28 26 23 24 23 23 22 22 22 21 21 21 21 19 18 19 16 14 13 17 21 23 28 30 31
52 52 52 53 53 53 53 53 52 52 52 53 54 51 34 26 29 30 30 30 28 27 23 22 26 25 26 26 24 21 21 22 21 15 11 18 11 10 17 20 20 20 24 26 27
52 52 52 52 52 51 51 50 50 51 51 53 54 50 28 30 31 29 29 29 29 28 25 23 26 25 27 24 26 20 18 8 11 14 15 13 7 9 13 14 17 19 20 24 25
52 52 51 51 51 50 50 50 50 51 52 53 52 46 26 30 29 29 30 28 29 29 29 26 24 22 26 25 18 15 9 11 14 12 12 12 10 11 13 11 13 17 18 19 24
52 51 50 50 50 51 50 50 51 50 51 47 40 28 27 27 28 29 29 30 29 27 27 24 23 22 17 17 14 15 15 16 16 16 16 18 18 17 16 14 13 15 16 18 19
51 50 49 49 48 48 49 44 34 35 29 27 25 25 24 26 28 23 23 27 27 25 20 17 23 18 17 19 18 15 16 16 17 17 17 18 18 17 14 12 14 16 19 20 21
51 49 47 47 47 50 52 42 43 45 26 25 24 23 24 25 23 22 23 23 21 18 16 15 21 20 19 18 17 13 14 18 19 20 20 20 18 16 15 17 16 17 21 22 23
50 48 47 45 46 52 45 44 48 49 37 24 25 23 24 26 22 22 22 23 20 16 15 13 22 18 18 17 18 14 21 20 20 22 20 18 13 15 16 17 18 22 23 23 24
50 48 46 45 41 44 44 48 53 54 34 22 24 26 23 22 24 26 22 24 24 19 16 19 20 18 17 17 19 17 22 23 24 23 19 21 13 12 14 16 18 20 24 25 26
50 49 44 46 48 40 47 49 52 55 33 26 22 26 24 22 21 23 25 25 22 19 19 24 20 15 17 20 21 21 25 25 24 23 22 19 14 13 14 13 16 20 22 25 27
49 50 47 45 52 48 49 54 53 46 32 24 23 24 24 24 23 22 25 25 23 20 17 15 19 20 20 22 24 25 25 24 24 23 22 21 20 17 14 16 15 18 22 25 27
49 50 49 51 49 51 55 52 39 35 27 23 24 23 23 23 23 22 23 26 25 24 24 22 20 22 25 24 24 26 25 25 26 23 23 21 19 19 20 18 19 19 23 26 27
48 51 53 52 53 56 53 41 33 27 25 26 24 23 23 24 25 23 24 24 27 27 24 24 22 22 26 25 26 26 26 26 23 22 24 23 18 16 18 19 19 22 24 26 28
48 54 48 54 55 55 45 40 31 26 26 24 23 22 24 24 23 23 25 25 27 29 27 28 25 27 27 27 27 26 27 28 25 28 26 26 24 23 21 19 22 24 25 28 29
51 46 47 54 55 54 45 32 27 27 26 25 23 23 22 24 23 24 25 27 27 30 31 30 28 29 28 30 30 28 29 27 29 27 22 20 22 21 23 26 28 28 28 31 32
55 44 49 51 54 44 39 30 26 26 28 29 26 24 25 25 27 25 26 29 30 29 30 32 32 31 31 29 27 26 27 29 27 27 25 26 23 26 27 28 28 28 30 32 31
49 42 49 51 42 39 32 29 28 28 30 30 30 29 29 29 30 28 27 30 32 31 30 35 32 31 31 30 28 27 27 28 27 28 29 30 28 29 29 28 30 30 30 31 32
40 40 48 51 41 41 32 31 31 29 31 31 31 32 32 31 31 31 31 34 33 31 34 33 32 29 25 27 29 29 28 28 29 32 30 30 28 30 31 31 30 29 31 32 32
40 40 45 43 38 35 32 32 32 35 33 33 32 33 32 32 32 32 30 33 35 35 35 34 32 31 29 30 30 29 29 29 28 27 27 28 28 28 28 28 28 30 32 31 32
38 37 39 41 38 36 35 32 32 34 35 33 33 32 31 33 32 29 31 32 33 36 34 35 33 32 32 31 31 30 29 28 27 27 25 26 25 25 26 27 29 32 33 34 33
43 40 37 34 34 34 33 31 31 32 30 31 31 31 32 32 32 32 33 33 33 33 34 36 34 35 33 33 31 29 31 30 28 26 26 27 26 28 26 28 31 33 34 35 37
42 40 41 40 37 38 34 31 30 31 36 33 33 34 35 36 38 37 37 37 36 35 36 35 36 34 30 31 32 29 28 29 29 27 26 25 26 27 27 31 33 36 35 38 39

GFSSW_sfc_30mbdewp_003.txt.gz
Dewpoint
51 51 51 51 51 51 51 52 53 53 53 53 53 53 54 54 51 45 27 29 32 36 47 34 31 26 23 10 4 6 5 3 3 1 3 1 5 13 14 12 16 23 45 46 47
52 51 52 52 51 51 51 52 52 52 52 52 53 54 54 54 47 29 30 35 38 43 32 31 26 23 14 8 10 10 4 3 11 10 6 8 6 7 8 8 17 26 46 47 52
52 52 51 52 51 52 52 53 52 53 53 53 53 54 54 53 42 26 33 39 40 44 34 31 28 24 11 12 14 12 11 15 16 15 13 12 16 13 10 10 21 23 35 47 49
52 52 52 52 52 53 54 53 53 53 53 53 53 54 54 48 22 29 33 36 37 43 32 27 24 19 14 13 15 14 15 19 17 18 17 18 18 17 15 15 20 21 33 35 38
53 53 53 53 54 54 54 54 53 53 53 52 53 53 48 38 27 31 33 33 35 32 28 25 23 23 18 19 21 17 17 19 20 20 20 19 17 17 17 16 21 22 31 32 35
53 53 53 53 54 54 54 54 54 53 52 52 53 52 41 30 29 30 30 30 28 27 23 24 25 26 25 23 23 22 21 21 22 21 20 19 20 19 15 15 22 22 29 31 31
53 52 52 52 53 53 53 53 52 52 52 52 53 50 47 25 28 29 31 29 29 27 25 23 26 26 27 26 24 23 20 22 21 19 13 14 11 11 15 20 20 22 25 27 29
52 52 52 52 52 52 51 51 51 52 52 52 52 49 30 29 31 30 29 29 29 30 24 23 24 27 25 26 25 23 22 17 21 19 17 13 10 11 13 20 20 19 22 25 26
52 52 52 51 51 50 49 50 51 52 53 53 50 46 27 29 29 28 30 29 31 30 30 28 25 25 26 25 24 19 15 15 17 14 14 13 14 18 19 16 17 19 19 22 25
52 51 50 50 50 50 49 49 51 47 52 49 46 39 27 27 27 28 25 24 29 30 28 29 26 24 21 19 14 15 14 16 18 16 18 18 18 19 19 18 18 19 21 22 23
50 49 49 49 48 48 47 47 32 37 39 24 24 24 24 25 28 23 23 23 25 28 23 17 22 18 18 19 19 17 15 17 20 21 21 20 20 20 17 16 17 20 21 23 24
50 48 47 46 47 49 52 46 45 47 32 25 24 23 23 25 24 23 23 23 22 19 17 17 21 19 19 19 19 17 20 21 21 24 24 22 20 20 17 17 19 22 23 24 24
50 48 47 46 44 53 45 46 52 53 42 23 25 23 24 24 23 23 22 23 23 19 17 16 20 19 18 20 19 18 22 22 23 25 26 22 18 16 18 18 22 23 23 24 24
49 49 47 45 40 47 46 49 54 56 40 22 26 25 24 22 24 25 24 24 27 20 17 19 20 16 17 20 21 18 24 24 25 25 22 24 18 16 17 17 21 22 25 26 27
49 50 49 45 52 46 48 52 53 55 32 25 22 25 23 22 21 23 25 24 20 19 19 20 15 14 20 20 22 22 25 26 26 26 25 21 21 15 17 17 19 23 26 27 29
48 50 51 48 53 49 53 56 54 44 32 23 22 23 24 23 22 24 28 29 25 26 21 18 21 22 20 25 26 27 28 28 30 25 21 23 20 19 18 16 19 25 27 28 29
48 50 52 54 50 53 57 54 41 34 28 23 23 23 22 23 24 23 27 28 28 27 25 27 22 24 27 25 28 27 28 25 18 22 22 24 19 18 22 20 22 23 25 26 28
48 48 56 56 56 56 56 43 31 27 24 24 24 22 24 23 24 25 27 26 29 29 28 27 25 27 28 27 26 27 27 27 22 23 23 25 21 21 22 21 22 23 25 29 29
49 53 53 55 56 56 50 38 31 27 26 25 23 22 24 25 22 25 27 28 29 30 28 30 27 31 27 28 28 27 28 29 26 29 25 26 26 22 26 28 29 29 30 31 32
49 55 48 54 55 55 45 31 27 27 26 27 25 24 24 25 25 25 27 29 30 31 31 32 30 33 33 32 30 28 30 27 28 25 24 23 23 23 27 27 30 30 30 32 33
55 48 49 52 55 49 38 26 25 25 29 29 28 27 28 28 29 28 28 31 31 31 33 34 33 31 32 31 30 27 27 29 30 29 29 27 27 29 28 30 31 29 32 32 32
52 42 48 53 44 46 33 29 28 28 30 30 32 32 30 31 30 29 31 32 33 32 34 33 32 30 29 32 32 29 30 29 28 31 30 30 29 31 31 31 30 33 32 33 31
48 46 52 50 34 36 31 31 34 32 32 32 32 32 32 32 30 32 32 34 32 35 33 33 30 28 25 29 32 31 31 32 31 30 28 28 28 31 32 32 32 31 33 34 34
47 36 45 47 44 34 31 31 32 35 33 33 32 33 33 32 34 31 31 35 35 35 35 34 32 30 26 29 32 31 31 31 31 28 27 27 28 27 27 27 30 33 34 34 36
46 37 40 37 36 36 36 33 33 35 34 33 33 32 32 32 31 31 34 35 36 36 35 34 32 33 33 33 33 32 31 31 30 29 27 27 27 27 26 29 32 35 36 36 38
43 43 44 37 36 35 33 33 31 31 31 33 31 34 35 34 35 36 36 36 35 35 36 38 33 35 33 34 34 31 31 30 30 29 29 27 26 28 26 35 36 36 37 38 38
46 44 45 42 39 36 36 33 32 33 35 33 34 34 34 38 38 39 39 39 38 37 36 36 34 34 30 34 32 29 26 28 28 27 28 27 29 36 35 36 37 37 38 39 39

GFSSW_sfc_30mbdewp_009.txt.gz
Dewpoint
51 51 51 51 51 51 52 52 52 53 53 53 54 54 54 55 53 47 21 27 30 42 43 30 29 28 23 16 8 8 6 6 5 4 7 10 10 13 14 30 26 39 41 45 55
52 52 52 52 51 52 52 52 53 53 53 53 53 53 54 54 46 25 28 34 40 41 31 29 26 28 12 13 12 10 8 10 11 8 10 13 11 9 12 30 40 42 46 50 55
52 52 52 51 51 51 52 53 53 53 53 53 53 53 54 54 24 22 30 35 43 47 36 33 31 26 14 15 13 14 13 14 16 14 14 18 17 16 13 23 38 36 45 53 55
54 52 51 51 51 52 53 54 53 53 53 53 53 54 54 46 7 24 35 38 39 48 31 27 26 22 20 18 18 12 17 18 17 17 18 17 18 17 16 14 23 40 45 54 54
53 53 54 53 53 54 54 54 54 53 53 52 53 54 43 28 27 30 33 32 29 28 24 24 25 25 23 23 20 17 17 19 19 19 19 19 17 16 17 17 22 41 44 50 52
52 53 53 53 53 54 54 53 53 53 53 52 53 52 37 23 29 29 31 30 29 29 27 23 24 26 25 26 21 23 23 22 22 20 21 20 19 19 18 18 20 36 45 49 49
52 52 52 52 53 53 53 53 53 53 52 52 52 48 39 26 29 31 30 30 30 30 28 25 25 24 26 25 27 24 22 22 22 22 21 20 14 13 17 16 19 30 42 43 45
52 52 52 51 51 51 51 52 53 53 52 51 50 45 27 31 31 29 29 29 29 29 31 29 27 25 26 27 26 20 18 14 18 22 18 13 12 13 16 17 16 21 30 31 31
52 51 51 51 50 50 51 52 52 53 52 51 45 41 28 33 28 29 25 22 23 27 29 31 28 25 24 16 15 18 13 15 17 22 23 16 14 14 20 20 18 18 23 27 28
51 50 50 50 50 50 51 52 53 52 49 47 44 31 28 25 27 24 24 24 22 25 27 27 26 21 19 18 13 16 13 18 18 21 26 23 19 22 24 19 18 20 21 22 23
50 49 49 48 47 50 50 48 39 29 36 25 24 24 23 24 28 24 24 24 26 23 20 24 20 17 18 19 19 18 20 21 22 22 25 25 25 25 22 19 18 19 21 27 28
49 49 47 46 45 51 47 44 45 44 26 29 24 23 24 25 23 24 23 23 23 19 18 22 18 19 21 22 20 20 20 19 24 25 27 25 24 17 18 19 21 23 26 27 29
50 49 47 45 47 47 47 49 54 50 30 24 25 24 24 24 22 24 23 24 24 19 20 19 19 18 21 20 19 20 19 21 22 26 26 25 21 17 20 22 23 24 25 27 28
50 50 47 47 46 48 44 49 52 49 25 23 24 26 24 24 23 26 25 25 22 18 20 21 17 20 20 21 23 21 21 23 24 26 22 25 18 20 17 20 22 24 24 25 26
49 50 47 51 48 44 48 53 56 46 12 24 22 26 25 21 22 27 32 25 25 26 19 20 16 21 22 23 25 24 28 27 28 27 25 23 19 20 20 17 20 25 26 27 28
48 50 49 52 47 49 53 56 49 36 20 21 23 23 24 25 25 30 31 32 32 28 28 26 23 24 24 25 28 29 29 28 29 26 21 24 22 20 21 21 24 26 27 28 28
47 53 52 55 41 54 56 46 36 23 30 22 23 22 25 23 27 29 30 30 27 17 26 30 29 29 28 27 29 29 28 18 16 19 21 26 21 21 23 24 25 26 27 28 28
47 52 56 55 56 55 47 37 23 29 25 26 24 24 22 23 27 29 29 28 31 30 30 29 21 30 30 27 27 28 28 23 15 19 22 26 21 23 25 26 25 26 26 29 31
51 54 47 51 55 54 40 28 25 27 26 25 25 24 25 27 26 28 29 30 31 32 27 30 26 32 32 32 29 28 27 30 26 26 25 25 27 27 29 31 30 29 31 33 35
51 46 45 53 55 44 31 27 25 27 29 30 24 27 24 29 27 27 29 31 30 35 33 33 29 32 31 32 32 29 30 27 29 24 22 25 25 24 27 31 30 33 32 32 34
54 32 42 54 48 36 25 24 24 28 30 30 29 29 30 30 30 29 30 31 32 32 33 31 31 25 29 28 29 29 30 30 31 30 27 26 26 31 29 30 30 32 33 33 34
45 30 43 47 38 38 28 27 31 32 34 32 33 32 32 31 32 31 31 31 33 34 31 34 31 26 26 31 33 32 31 30 27 26 28 27 25 29 30 31 32 34 35 35 35
42 41 46 41 32 29 32 33 34 32 33 32 31 33 35 33 30 32 33 34 33 34 32 32 29 23 20 25 27 30 32 32 31 29 28 25 24 29 31 31 34 35 36 36 36
38 30 38 41 40 31 30 31 31 35 33 34 33 34 33 32 32 31 34 37 37 35 36 33 31 27 23 23 28 29 31 32 31 29 28 28 28 30 31 33 35 36 37 37 37
40 36 41 33 34 35 35 34 31 31 33 34 35 35 32 31 31 35 36 36 36 37 36 34 31 31 31 31 32 32 32 33 32 32 30 30 30 30 31 36 37 37 38 38 38
40 39 40 40 40 32 33 31 34 33 33 33 34 35 35 34 33 34 35 35 34 36 36 37 31 33 31 33 33 32 33 33 33 33 32 31 28 29 37 38 38 38 38 38 38
47 45 36 38 34 32 34 32 33 34 35 34 35 33 32 37 38 38 38 37 36 35 35 35 33 33 26 31 31 24 27 30 31 29 28 26 28 35 36 37 38 38 39 39 37

GFSSW_sfc_30mbdewp_012.txt.gz
Dewpoint
51 51 51 51 51 51 51 52 53 53 53 53 53 54 55 55 52 44 22 25 29 39 46 32 29 28 21 12 7 8 5 3 2 4 8 11 10 13 18 34 28 40 47 45 56
52 51 51 51 51 51 52 52 53 53 53 53 54 54 54 54 44 26 28 33 42 45 34 30 24 22 13 14 13 10 7 8 10 7 11 14 11 10 19 31 37 41 47 54 57
52 52 52 52 52 51 52 53 53 53 53 54 54 53 54 54 20 24 35 40 45 48 36 32 29 19 18 17 14 16 11 14 16 13 13 17 17 16 20 26 35 29 46 55 56
53 53 52 52 52 52 53 53 53 53 53 54 53 54 54 47 20 24 36 36 42 39 27 27 26 23 21 17 19 13 17 16 17 18 18 16 18 16 15 14 27 38 48 54 55
53 53 54 53 52 53 53 54 53 54 54 53 52 54 48 27 27 30 34 31 31 29 24 25 25 25 22 22 21 18 17 19 19 18 18 19 18 16 17 18 18 35 49 53 55
52 53 53 53 54 54 54 54 53 53 52 51 53 54 37 24 29 30 30 30 29 29 28 24 25 26 26 25 22 23 23 22 22 21 21 20 20 19 18 19 19 37 44 52 54
52 52 52 52 53 53 53 53 53 52 52 52 53 51 30 26 31 30 28 30 30 29 29 26 25 24 26 25 28 24 19 18 20 21 21 20 15 14 18 15 17 25 42 46 50
52 52 52 52 52 52 52 52 52 52 53 52 52 45 26 31 33 28 25 22 25 30 30 30 28 26 24 26 21 17 16 14 19 21 17 14 16 16 15 19 21 18 35 44 47
51 51 51 51 51 51 51 51 52 52 52 52 44 37 26 31 27 28 24 22 24 26 31 30 27 24 21 14 14 17 11 15 17 23 25 23 19 18 17 23 23 19 22 36 36
51 50 49 50 49 50 51 51 51 52 49 46 39 25 25 23 26 26 25 25 24 26 26 25 23 17 19 17 10 16 14 18 18 21 25 25 23 25 25 23 22 19 20 27 27
50 48 48 48 48 51 50 47 32 27 31 23 23 24 23 24 27 25 25 25 24 21 18 25 18 16 18 20 19 18 19 20 21 23 26 25 25 20 19 20 19 19 22 25 28
49 49 48 47 48 50 48 44 45 42 23 27 24 23 24 26 23 25 25 23 22 18 18 21 17 19 22 21 19 19 19 17 22 25 27 26 23 18 21 22 23 24 27 27 28
50 49 47 46 48 48 48 50 55 47 23 23 25 25 24 24 23 24 24 26 22 18 21 20 18 22 21 22 23 23 19 20 22 25 26 24 20 20 19 23 24 25 26 28 27
50 48 48 45 44 48 43 49 54 41 22 22 23 24 24 24 22 28 31 25 22 18 21 21 19 21 25 23 23 22 22 25 26 26 21 24 17 21 21 21 23 24 24 26 28
49 49 52 45 47 45 48 54 55 39 6 22 22 26 26 22 23 29 33 25 27 26 21 18 20 24 25 24 25 25 28 29 28 27 25 24 19 20 21 18 21 24 24 26 27
50 49 50 47 47 50 54 53 46 27 15 21 23 24 23 26 27 30 31 32 31 28 30 28 25 25 26 26 28 29 29 26 28 26 21 24 22 21 22 22 24 26 27 28 28
51 53 53 53 41 54 53 44 31 20 30 22 22 23 23 24 28 29 29 30 27 17 26 30 29 31 29 28 29 29 25 16 18 19 20 26 22 22 25 24 24 26 27 28 29
52 53 54 54 55 54 44 35 21 28 25 26 23 25 23 24 28 30 29 28 31 30 30 28 20 30 31 28 27 28 28 23 14 18 21 26 20 25 28 29 30 30 30 33 35
54 49 46 51 55 49 39 26 24 27 26 25 26 24 25 28 27 28 30 30 32 33 28 30 25 32 33 33 30 28 27 29 26 25 25 25 27 28 30 32 31 32 33 33 34
52 41 45 52 53 40 30 27 25 29 29 30 24 27 24 29 27 27 29 31 30 34 33 32 27 31 31 32 31 29 31 26 28 22 20 23 24 23 28 29 31 31 32 33 35
49 32 41 53 45 32 25 24 25 32 31 30 29 29 30 30 30 29 30 31 32 33 33 31 29 23 28 29 29 30 29 30 30 29 25 24 24 30 29 30 31 32 35 35 34
39 28 44 47 32 34 27 28 32 33 34 33 33 32 31 32 31 31 31 31 33 34 31 33 30 23 24 29 33 32 29 28 22 23 28 27 24 29 31 32 33 34 36 37 37
40 40 44 41 28 29 32 33 34 32 33 31 32 34 34 32 30 32 33 36 36 34 33 32 28 20 13 23 29 30 32 31 29 29 27 25 23 29 30 31 34 35 36 37 37
37 35 38 41 38 31 30 31 32 35 33 36 34 34 33 32 34 32 34 36 38 36 35 34 30 25 20 22 27 28 31 32 31 29 27 27 27 29 31 31 33 36 37 38 38
38 37 40 32 34 34 34 31 32 30 33 35 34 34 32 31 32 34 35 35 35 37 36 34 31 31 30 30 31 31 32 32 31 31 30 28 29 31 33 32 36 38 38 38 38
38 38 40 39 38 32 32 31 34 33 32 33 33 35 35 32 32 32 35 34 32 35 35 36 30 32 30 32 32 31 32 32 33 33 33 33 32 33 32 38 37 37 38 38 38
46 44 38 37 33 30 32 32 32 34 35 34 35 32 31 35 37 37 38 37 36 35 34 35 33 31 21 30 30 20 23 29 30 31 30 26 27 31 35 35 35 36 38 39 39

GFSSW_sfc_30mbdewp_015.txt.gz
Dewpoint
53 51 50 51 51 51 51 52 53 53 53 53 54 54 54 54 53 48 27 28 29 44 42 33 29 28 18 11 9 11 5 2 2 4 8 12 11 14 24 39 33 39 49 48 59
52 52 51 51 51 51 51 53 53 53 53 53 54 54 54 54 46 27 29 38 47 48 33 27 23 19 15 14 15 10 7 8 9 7 12 14 10 10 20 31 38 42 47 55 60
52 52 52 52 52 51 51 52 53 54 54 54 54 54 54 54 27 26 32 40 47 45 33 31 24 21 18 19 17 16 11 14 15 11 15 17 17 15 21 22 30 28 46 56 59
53 53 52 52 52 52 53 53 53 54 54 54 54 54 54 47 23 26 35 37 42 39 30 27 26 22 21 17 18 16 16 16 17 18 17 15 18 16 18 15 23 36 51 55 56
52 53 54 52 52 53 53 53 53 53 54 54 54 54 47 27 26 30 34 31 31 29 25 25 25 25 22 22 22 18 18 19 19 17 17 19 18 17 17 19 19 38 52 54 55
52 52 53 53 54 54 54 54 53 53 53 53 53 53 32 25 29 31 30 29 28 29 27 26 26 27 27 24 24 24 23 22 22 21 21 20 20 20 18 19 21 36 47 53 55
52 52 52 53 53 53 53 53 53 53 53 52 53 51 28 27 32 31 25 29 26 30 28 26 27 25 27 25 28 22 17 19 21 22 19 20 17 16 17 16 18 26 41 51 54
52 52 52 52 52 52 52 52 52 52 52 52 53 46 27 31 35 27 25 22 26 30 30 30 28 27 24 26 20 17 16 16 19 23 24 18 18 19 17 20 20 23 24 43 50
51 51 51 51 51 51 51 51 51 51 52 53 44 32 26 29 26 28 25 23 24 29 29 29 26 23 22 14 14 18 10 15 18 24 26 24 21 23 25 25 25 23 21 33 43
51 50 50 51 51 51 51 51 50 50 49 47 36 24 25 23 25 26 26 27 25 24 24 25 22 19 21 17 7 15 15 18 18 22 26 25 24 26 21 22 23 21 22 29 35
51 50 49 49 50 51 48 44 29 26 30 22 24 23 23 25 26 26 25 25 24 22 20 24 19 17 20 20 19 18 18 20 21 24 26 26 25 21 22 23 21 23 24 27 28
50 48 48 48 49 50 48 41 39 38 22 26 24 23 24 25 25 27 27 22 21 18 21 20 18 20 22 22 20 19 19 18 22 25 27 26 22 21 23 25 26 28 28 29 29
49 48 48 48 50 49 49 49 53 46 22 24 26 25 24 26 27 28 27 26 20 21 21 19 18 22 21 24 24 24 20 21 22 25 27 24 20 22 21 24 25 27 28 29 29
49 48 51 48 44 46 44 49 54 39 20 22 23 24 25 24 24 32 33 26 24 20 23 19 22 24 25 24 25 21 23 28 27 26 21 25 16 22 22 21 24 25 26 27 29
49 51 49 41 45 43 47 53 55 35 1 22 23 26 27 25 25 29 33 30 26 25 23 17 23 25 25 24 26 27 29 29 28 27 26 25 19 22 23 21 22 26 27 28 30
51 49 50 44 48 50 54 51 44 20 12 21 24 24 25 28 30 31 32 32 30 29 30 27 29 27 27 26 28 30 29 26 28 27 22 25 22 24 24 23 25 27 29 30 31
54 53 52 49 41 53 51 42 24 16 29 22 21 24 25 27 29 30 30 32 28 18 25 28 29 31 29 27 29 30 24 17 19 20 20 26 22 25 28 29 29 30 30 35 37
53 52 53 54 54 53 43 33 19 28 25 26 24 26 23 26 29 30 29 28 33 30 30 26 21 30 32 29 27 29 28 23 12 17 21 27 22 26 30 31 32 34 34 35 37
52 45 47 51 54 46 38 25 24 26 26 25 26 24 26 29 28 29 30 30 32 34 27 28 25 32 33 33 30 28 28 29 26 25 26 25 27 28 31 31 32 32 33 34 36
43 42 45 51 51 38 30 26 25 30 29 28 24 27 25 29 27 28 29 31 30 34 33 32 25 30 30 32 32 30 31 26 29 21 18 22 25 23 28 29 31 32 34 36 35
41 37 42 52 42 32 25 24 27 33 33 29 29 29 29 29 30 29 29 31 32 33 33 31 28 23 29 30 29 30 29 30 30 30 25 23 23 30 29 31 31 32 36 37 37
36 34 45 47 31 33 27 27 32 33 34 33 33 32 31 32 31 31 31 31 34 34 32 33 30 19 23 31 33 32 29 27 21 21 28 28 23 28 31 32 33 34 36 38 38
39 40 43 41 27 30 33 33 34 32 33 31 33 34 34 32 30 32 33 36 36 34 33 32 28 17 12 25 28 30 32 30 29 29 27 25 22 29 31 30 33 34 37 37 38
36 36 38 39 37 31 31 31 32 34 34 35 34 34 33 32 34 33 34 36 37 36 35 34 30 24 14 16 26 26 29 31 31 29 26 26 25 28 30 31 33 35 37 37 38
39 38 39 31 33 33 33 31 31 30 34 35 33 32 31 30 32 33 35 34 35 37 37 34 30 31 30 30 31 30 30 31 31 31 29 27 28 29 32 34 34 36 37 37 37
37 38 39 38 36 32 32 32 32 33 32 33 33 34 33 30 30 30 34 33 31 35 35 35 29 32 30 31 31 29 30 31 32 32 32 32 31 33 34 37 36 35 36 36 39
45 42 38 36 32 31 32 33 33 34 35 35 35 33 31 34 36 37 37 37 36 34 34 34 33 30 20 29 28 22 23 28 28 30 29 26 26 33 33 35 35 35 37 38 36

GFSSW_sfc_30mbdewp_018.txt.gz
Dewpoint
53 52 52 51 51 51 51 51 52 53 53 53 54 54 55 54 53 46 27 30 34 43 39 31 29 27 15 11 11 11 2 2 3 4 7 11 8 14 29 32 34 36 38 43 53
54 52 52 51 52 51 51 52 53 53 53 54 54 54 54 54 43 26 29 42 48 50 32 25 19 16 13 14 14 7 2 5 6 8 6 9 8 12 17 18 24 33 44 50 56
53 52 52 52 52 51 52 52 53 53 54 54 54 55 54 53 29 26 36 41 47 45 31 26 21 17 14 16 17 12 5 9 9 11 9 9 10 11 10 13 16 19 36 50 54
52 53 52 52 52 52 53 53 53 53 54 54 54 54 54 44 20 28 34 36 43 37 30 26 21 15 11 9 13 8 12 9 10 14 12 10 12 12 13 11 21 25 36 47 50
52 53 54 52 52 52 53 53 53 53 54 54 54 54 49 29 27 28 33 29 30 28 25 24 18 17 10 13 15 16 18 19 16 15 16 18 16 17 16 16 18 31 41 42 44
52 52 53 54 53 53 53 53 53 54 53 53 54 53 38 23 29 29 26 27 28 28 26 25 25 24 23 22 20 24 21 22 21 20 21 20 20 20 16 19 19 28 35 39 41
52 52 52 53 53 54 54 53 53 53 53 53 53 50 28 27 30 28 25 27 27 29 27 28 28 25 26 26 27 22 21 21 22 22 21 19 18 15 18 17 18 23 28 36 40
52 52 52 52 52 53 53 53 52 52 52 52 52 47 25 31 31 26 23 25 28 31 31 30 28 26 26 25 20 16 17 13 21 22 24 22 14 18 25 24 19 23 24 35 39
51 51 51 51 51 52 52 51 52 52 52 51 47 34 23 27 25 27 26 25 28 30 31 28 26 25 22 17 13 12 6 10 17 23 23 22 18 21 22 21 23 24 23 26 35
51 50 51 51 51 51 51 51 51 50 48 45 33 25 24 23 26 26 25 28 26 27 26 26 23 18 15 9 2 10 10 16 14 19 21 19 19 21 22 22 23 25 25 23 32
51 50 49 50 51 51 51 47 33 30 28 25 25 23 23 25 28 26 26 26 24 24 19 23 17 18 18 20 19 17 16 15 16 23 24 24 22 19 22 23 24 24 24 28 35
51 50 49 48 50 51 51 37 40 38 22 27 25 25 25 27 23 27 29 22 22 18 23 18 19 21 23 23 20 20 17 18 21 24 26 24 20 20 23 25 26 26 27 29 29
50 50 49 49 50 52 49 49 54 47 22 25 27 25 25 28 29 29 28 25 21 20 20 17 19 23 23 25 23 23 21 23 23 25 27 24 21 20 22 24 25 26 27 28 30
50 50 50 50 47 47 46 51 55 46 18 21 22 24 25 25 26 32 32 27 24 21 20 21 24 26 25 25 26 20 26 28 26 24 16 26 16 21 20 22 24 26 28 29 30
50 50 49 48 48 40 49 54 56 44 13 24 23 27 29 25 27 29 33 29 24 25 25 21 25 26 25 25 28 27 30 29 29 25 23 23 18 22 22 21 24 28 29 31 32
51 51 49 48 52 52 55 54 50 30 15 23 25 25 27 29 29 29 30 31 31 27 25 26 29 29 29 28 28 31 29 28 29 28 23 25 23 23 23 24 27 30 32 35 36
53 52 52 50 45 56 55 47 25 20 28 21 23 26 27 28 29 29 29 31 27 22 24 26 27 30 32 26 30 28 26 21 24 23 21 25 22 26 28 29 30 31 34 37 38
52 53 53 54 56 56 48 38 20 27 25 25 25 26 25 28 29 30 27 26 30 28 25 22 22 29 32 30 28 29 28 25 19 19 20 26 19 25 29 30 31 32 34 35 36
50 50 51 54 56 52 40 32 27 26 26 24 25 23 26 28 28 29 30 29 31 32 26 25 24 31 32 32 31 28 28 30 28 28 27 22 25 30 30 30 31 31 32 33 36
44 46 49 54 54 47 39 27 28 29 30 27 24 26 25 28 27 28 29 31 31 33 33 31 25 28 30 32 32 30 31 27 26 23 14 12 18 17 29 30 30 30 32 34 36
44 37 49 54 49 38 33 30 29 33 33 29 28 28 29 29 29 29 29 32 32 33 33 29 28 25 29 29 29 30 29 29 27 28 20 17 13 29 27 29 30 30 33 34 36
44 36 50 52 36 35 30 30 32 33 35 34 34 32 31 32 31 31 31 32 35 34 30 34 31 20 21 31 33 30 28 26 21 20 26 26 19 27 28 31 31 32 35 35 36
42 42 47 48 35 38 34 34 34 33 33 32 34 34 35 33 32 33 33 37 36 35 33 33 29 17 17 27 30 30 29 30 29 30 26 25 21 26 29 29 29 33 34 35 34
41 41 42 39 38 33 32 33 33 36 36 35 35 34 34 33 34 34 34 37 38 37 35 35 30 22 11 14 22 22 23 25 26 27 24 23 23 24 24 27 30 33 35 34 34
43 42 42 38 37 34 34 33 31 32 36 36 33 33 33 32 32 34 35 35 36 37 38 35 27 27 26 25 25 27 26 25 25 27 26 26 23 24 26 29 31 35 34 34 34
42 42 41 39 38 34 35 33 31 33 32 33 32 33 31 29 27 30 29 30 28 36 36 36 30 32 28 28 27 27 26 26 28 28 27 27 27 28 29 33 35 34 34 34 37
47 43 42 37 37 37 35 33 32 34 36 36 35 33 33 33 35 39 38 38 35 34 35 36 35 31 26 28 28 25 27 26 28 27 27 25 25 29 31 33 34 35 35 37 37

GFSSW_sfc_30mbdewp_024.txt.gz
Dewpoint
55 55 55 55 53 52 52 52 52 53 53 54 54 55 55 55 54 51 34 31 35 38 36 31 28 26 24 16 12 12 10 13 12 15 8 9 9 10 18 23 23 31 36 45 48
55 54 54 55 54 53 52 52 53 53 53 54 54 55 55 55 49 37 35 37 41 46 34 29 25 23 18 12 10 7 8 4 4 6 5 5 5 8 16 18 21 33 41 46 45
55 55 54 54 55 53 52 53 53 53 53 54 54 55 55 54 43 28 37 35 41 49 37 33 16 14 12 10 9 7 6 5 3 6 3 3 3 8 12 11 21 25 40 44 44
55 55 54 54 54 54 53 53 53 54 54 54 55 55 55 51 26 27 33 35 39 40 35 19 13 13 9 8 7 6 4 1 2 5 3 1 3 4 7 13 16 24 31 43 43
55 54 54 53 54 53 52 53 53 54 53 54 54 55 52 40 25 26 26 31 37 37 27 18 14 11 7 6 5 5 -0 2 4 7 9 9 6 7 8 14 16 26 32 40 42
54 53 53 53 54 53 53 54 54 53 53 54 54 55 48 31 25 24 23 23 22 21 17 16 15 12 4 3 7 9 9 9 9 11 12 11 13 14 10 12 13 23 30 36 41
54 53 53 53 53 54 54 54 53 54 53 53 54 51 42 29 22 22 22 22 23 24 22 20 18 12 13 16 14 13 14 15 16 16 14 14 14 12 15 14 12 16 23 31 34
53 53 52 53 53 53 53 53 53 53 53 53 54 49 35 27 25 22 19 18 22 24 25 22 21 23 22 19 13 12 15 14 16 17 20 18 15 12 16 15 15 17 18 21 31
53 52 52 52 52 52 52 52 52 52 52 53 51 46 31 25 21 20 19 19 22 25 26 23 23 18 18 15 13 13 11 14 18 16 18 17 16 15 18 21 19 18 20 21 23
52 52 52 52 52 52 51 51 52 51 51 47 43 35 24 18 20 19 20 26 23 26 23 23 21 18 17 16 13 11 5 8 9 16 11 10 12 17 20 20 20 19 19 22 23
51 51 51 51 51 51 50 45 37 37 36 25 20 23 17 16 18 20 22 24 25 25 23 20 18 17 15 14 11 11 8 8 11 17 16 12 14 18 20 21 23 22 24 27 37
51 50 50 51 51 51 51 42 39 36 26 24 23 24 23 24 19 20 24 23 21 20 19 13 15 19 16 16 15 14 14 14 17 18 18 17 17 19 21 24 25 27 28 35 35
50 51 51 50 51 51 45 46 46 47 22 21 24 21 24 25 22 21 25 21 18 17 10 21 20 19 18 18 18 17 17 23 20 20 20 18 18 19 22 25 27 29 30 31 33
50 51 51 50 48 46 43 46 49 49 20 16 20 19 23 24 22 24 24 25 16 11 12 20 21 20 20 20 23 17 26 25 21 20 15 19 14 19 22 24 26 28 30 30 31
50 51 50 49 54 40 47 49 50 48 19 20 19 24 21 24 23 24 24 21 18 18 20 21 21 22 22 25 24 22 26 24 24 22 20 17 19 21 22 23 26 30 32 33 34
50 50 50 49 55 49 50 53 50 39 23 19 20 22 21 23 25 25 23 27 27 18 22 23 24 26 27 26 25 25 27 25 24 23 22 19 18 23 20 23 28 32 34 35 36
50 49 50 52 49 53 55 48 24 28 20 19 19 22 23 23 23 24 24 24 25 21 22 23 25 28 27 26 27 26 24 25 26 22 22 24 19 26 26 28 30 33 34 35 36
52 53 54 53 53 57 51 36 28 22 17 18 20 23 22 24 24 25 24 23 26 28 22 21 25 26 27 27 25 26 24 28 22 23 24 22 15 26 29 31 31 32 33 34 35
52 57 52 58 58 55 43 32 26 19 21 20 20 20 23 25 25 26 26 25 28 30 26 21 24 27 28 28 26 25 27 24 24 29 24 14 26 28 29 29 30 31 31 33 34
46 45 45 57 58 53 42 34 28 26 20 21 19 21 20 21 23 25 25 28 27 29 28 24 26 23 24 27 31 24 25 24 28 22 17 12 14 26 27 29 30 29 29 31 33
51 37 54 56 55 39 35 36 28 27 27 21 21 21 23 22 24 25 27 29 30 28 28 25 24 23 22 25 20 24 24 26 22 24 21 18 16 21 24 27 28 27 29 32 33
45 35 53 55 33 33 33 29 29 29 32 31 28 25 26 26 26 27 27 32 32 30 27 27 25 24 18 23 25 24 24 24 24 22 25 26 21 25 25 27 29 30 31 33 33
38 44 51 51 34 39 34 30 29 28 27 29 30 30 31 28 30 29 34 35 33 35 35 31 29 24 20 26 28 21 23 24 27 29 25 20 20 25 25 31 29 28 29 32 33
43 38 37 41 42 33 33 31 32 34 32 31 31 31 30 31 31 31 34 36 37 36 33 36 27 23 21 19 19 17 18 19 20 26 25 25 23 23 24 29 29 30 31 32 33
43 39 34 33 35 33 30 29 30 31 32 32 30 29 30 29 30 31 33 35 35 35 34 33 29 27 26 20 20 19 20 20 20 21 20 23 21 23 27 28 30 34 35 35 34
43 38 40 36 33 33 33 30 29 27 31 28 29 30 31 32 29 29 30 29 29 32 33 33 32 33 27 21 20 20 22 23 21 20 21 24 23 25 28 33 34 34 33 34 37
45 46 40 39 36 35 35 31 29 32 35 32 30 31 35 36 37 35 34 32 31 32 32 34 35 31 26 30 30 29 29 22 22 23 24 24 26 25 32 34 34 35 36 37 37

GFSSW_sfc_30mbdewp_027.txt.gz
Dewpoint
56 56 56 56 56 54 53 53 53 53 53 54 54 55 55 55 54 52 34 36 39 37 36 31 31 32 31 26 25 17 11 9 10 13 13 12 11 12 23 24 35 40 46 48 46
56 55 55 55 55 55 53 53 53 53 54 54 54 55 55 55 51 42 41 35 39 42 31 28 26 28 25 20 19 12 10 4 7 8 6 6 7 9 18 25 42 46 48 47 46
55 56 56 56 55 55 54 53 53 54 54 54 54 55 55 55 47 36 38 37 43 46 33 32 31 26 21 18 12 6 3 2 6 6 5 5 6 12 18 21 39 45 46 45 45
53 54 55 55 55 55 54 53 53 54 54 54 54 55 55 52 31 27 34 40 40 44 38 34 32 18 12 12 9 3 2 3 6 7 3 1 3 5 14 19 31 45 45 44 44
53 55 55 54 54 54 54 52 53 54 54 54 54 55 52 45 35 27 36 39 42 36 35 34 27 14 12 10 6 -0 2 4 5 10 10 7 5 8 14 18 28 44 44 44 44
55 54 54 53 53 54 53 52 54 54 53 54 54 54 48 32 31 25 23 29 30 35 32 31 20 15 12 14 7 5 2 4 5 10 12 10 12 13 13 15 28 39 42 42 43
54 54 53 53 53 53 54 54 54 53 53 54 54 52 46 39 29 24 23 22 22 23 24 22 21 21 20 17 14 10 10 9 11 13 13 14 15 13 12 12 21 29 37 40 42
54 54 53 53 53 53 53 53 53 53 53 53 53 51 36 34 25 23 21 19 21 24 27 26 26 24 23 15 13 12 15 14 16 16 14 14 14 14 14 14 18 21 21 34 40
53 53 53 52 52 52 52 52 52 53 53 53 50 49 37 26 20 21 19 21 22 24 27 24 22 23 17 15 14 13 12 16 16 18 20 18 16 15 16 15 16 17 18 19 28
52 52 52 52 52 52 52 52 52 51 52 49 47 41 39 24 21 19 20 24 24 25 25 22 23 20 18 18 16 12 12 17 16 14 10 9 13 20 21 20 20 20 23 37 41
52 51 51 51 52 52 50 46 39 39 44 35 31 34 20 17 18 19 21 24 26 25 24 23 22 19 15 14 12 12 14 14 17 18 15 15 14 21 25 23 24 36 38 40 42
51 51 51 51 51 51 50 48 44 44 31 35 28 24 22 23 19 22 25 24 22 23 24 21 19 18 17 16 18 16 19 21 18 19 16 16 19 23 26 29 33 34 37 38 41
51 51 50 51 52 50 45 48 48 49 30 23 24 20 24 26 24 21 25 26 22 21 22 20 18 17 18 23 21 24 23 22 20 21 21 20 19 22 26 28 30 32 35 37 40
51 51 51 50 45 49 44 47 51 53 22 20 21 21 24 24 22 25 23 25 19 20 22 21 21 21 20 24 23 25 28 25 23 21 19 20 16 22 25 27 30 32 33 35 38
51 52 50 51 47 51 48 51 50 50 18 17 22 21 21 24 24 23 22 25 22 19 23 20 22 26 26 25 25 24 26 25 25 23 23 22 19 21 26 28 30 32 33 36 37
51 51 50 49 50 54 55 56 50 38 21 21 22 22 18 24 25 23 23 26 27 21 24 23 27 27 26 26 26 24 27 28 27 26 22 26 23 22 23 29 33 35 35 35 36
51 51 49 52 53 56 57 51 27 30 24 18 20 22 23 22 24 25 23 25 27 22 21 23 27 28 27 27 27 27 25 26 24 25 22 30 27 30 30 31 34 35 36 36 36
51 50 54 58 59 58 55 38 30 24 18 18 22 23 23 23 24 25 25 26 28 32 27 24 24 26 28 27 25 27 26 25 21 23 23 24 25 28 31 33 35 35 35 36 36
52 55 56 59 59 56 47 37 32 26 21 20 21 23 23 25 26 27 26 26 28 29 27 28 25 28 27 27 28 23 25 24 25 30 24 22 27 30 30 31 32 33 34 34 35
51 52 53 58 58 53 43 39 30 26 23 22 20 22 21 23 24 26 27 29 27 29 30 25 24 23 26 26 31 25 25 23 26 21 20 19 27 30 29 29 31 29 32 34 35
52 40 54 59 55 43 38 39 28 27 32 28 23 20 25 22 25 27 28 30 32 28 26 28 28 23 21 23 23 25 25 25 25 25 20 19 19 30 32 33 33 32 33 34 33
50 37 55 58 30 39 35 35 28 28 32 31 30 24 27 25 28 28 31 32 32 33 27 27 27 21 22 26 26 24 25 27 22 23 26 26 23 26 31 31 31 30 32 33 34
45 48 55 56 27 33 34 31 29 29 29 29 30 32 31 31 29 34 35 36 37 36 34 29 26 24 23 28 29 21 23 27 30 27 22 19 15 27 31 31 32 31 34 34 34
49 38 46 48 45 40 37 30 31 35 32 32 31 31 31 31 32 34 35 37 37 33 32 36 27 24 21 22 20 18 19 20 27 25 24 24 24 24 33 33 34 34 35 35 36
48 40 37 32 29 38 36 33 33 32 33 33 31 31 31 30 31 34 36 36 37 33 35 34 29 30 29 23 22 20 20 21 21 22 21 21 25 27 32 34 34 35 37 37 37
46 45 37 33 29 34 36 31 32 32 32 31 30 30 33 33 34 33 34 33 33 32 34 35 32 30 21 28 24 19 24 26 24 23 24 24 25 33 35 35 35 37 37 37 36
49 47 46 43 28 34 34 32 32 33 34 35 34 37 36 35 36 37 36 34 35 33 34 36 33 29 17 29 29 27 26 24 23 24 24 23 29 34 33 34 37 37 38 37 37

GFSSW_sfc_30mbdewp_030.txt.gz
Dewpoint
56 56 56 56 56 56 56 54 53 54 53 54 54 54 55 55 54 52 35 30 41 43 34 31 32 32 33 29 26 18 16 11 10 16 14 13 22 22 33 43 40 43 44 42 44
55 55 56 56 56 56 55 55 53 53 54 54 54 55 55 55 51 42 39 39 43 41 31 28 25 27 27 24 23 18 13 8 9 13 8 7 18 20 35 44 46 46 46 45 43
54 53 54 55 56 56 55 55 54 53 54 54 55 54 55 54 45 34 39 42 43 43 32 31 28 28 25 22 17 11 2 5 7 6 7 8 13 16 36 42 46 45 45 44 41
56 53 53 54 55 56 55 54 53 54 54 54 54 54 55 52 26 29 34 43 47 47 35 34 33 31 21 14 13 2 4 5 7 5 4 4 6 11 19 37 47 46 45 45 42
55 54 54 55 55 55 54 54 52 54 54 54 53 54 52 43 32 32 36 46 48 40 34 31 31 24 17 11 4 2 2 5 11 10 4 4 8 14 16 40 47 46 45 45 43
55 55 54 54 54 53 53 54 52 53 54 53 54 54 46 29 34 28 33 43 35 32 31 33 28 22 18 14 4 3 4 4 7 11 12 9 13 14 18 42 45 44 44 44 44
55 54 54 53 53 53 53 54 54 53 53 54 54 52 47 33 38 36 25 22 25 31 25 26 25 22 22 10 9 6 6 6 8 12 10 15 14 12 17 42 44 44 44 44 44
54 54 53 53 53 53 53 53 53 53 53 53 53 51 31 37 35 25 22 19 22 25 27 25 24 23 18 15 14 12 13 10 12 13 13 14 12 14 14 33 42 43 43 43 43
53 53 53 53 52 52 52 52 52 52 53 53 49 49 24 38 22 21 20 19 24 24 26 22 24 24 18 14 12 15 10 14 15 16 15 16 15 17 13 22 28 29 33 39 45
52 52 52 52 52 52 52 52 52 52 52 51 47 40 38 30 21 19 21 22 25 26 26 22 24 20 18 17 11 13 12 16 15 17 18 14 16 18 17 17 25 37 42 44 44
52 52 51 51 52 51 50 46 39 39 44 25 29 36 29 26 19 18 20 23 25 26 23 26 21 16 16 15 14 15 16 16 17 17 14 17 20 24 26 36 38 41 42 42 43
52 51 51 51 51 51 49 45 42 45 26 31 36 35 34 19 20 21 24 23 23 23 25 22 19 18 18 23 24 19 19 18 19 21 15 19 23 28 32 36 39 40 41 42 43
51 51 50 51 52 49 43 45 49 48 38 24 29 27 23 25 23 22 26 26 24 21 22 20 18 18 24 23 23 27 23 22 20 22 21 22 23 29 32 34 37 39 41 42 42
51 51 50 51 45 47 37 40 49 49 25 21 21 21 23 25 21 25 23 23 23 21 21 20 21 24 25 23 24 26 27 24 22 20 11 20 18 24 29 31 34 37 40 41 42
51 51 51 50 46 49 49 55 54 47 13 18 21 22 22 24 24 22 23 27 21 19 22 22 26 26 25 24 24 24 25 25 24 22 24 23 19 22 30 30 33 36 39 41 42
50 52 51 48 49 53 56 57 44 31 17 18 23 20 20 24 23 23 23 27 28 24 24 24 28 26 26 27 26 25 27 30 28 26 22 27 23 23 27 30 33 35 37 39 40
51 52 49 52 52 57 56 42 23 28 24 19 20 19 22 22 23 23 26 28 28 21 21 25 27 28 28 27 28 27 28 24 23 24 22 30 28 29 31 33 35 35 36 37 38
51 52 50 56 59 56 49 30 28 29 21 20 23 24 22 24 24 26 26 26 28 32 24 24 24 27 28 26 25 26 28 22 18 19 21 26 27 30 35 36 36 36 36 36 36
52 52 56 57 58 54 41 27 32 29 21 21 23 23 24 25 25 27 27 26 28 29 25 26 24 28 25 28 28 26 24 26 27 29 23 26 28 30 33 34 34 36 38 38 36
50 52 50 57 57 47 42 37 34 28 28 23 21 24 22 23 25 27 28 30 27 29 31 27 23 26 25 27 29 23 25 25 25 19 19 23 26 28 31 33 34 34 34 35 36
51 34 49 59 48 37 33 38 35 30 32 25 24 22 23 23 25 28 29 32 32 30 27 30 26 22 27 22 23 23 25 26 26 25 19 19 20 27 31 34 32 32 34 34 35
48 32 54 48 23 39 33 36 31 28 31 31 31 31 25 25 30 32 31 31 36 35 25 29 25 22 22 25 26 24 26 26 19 20 25 24 22 31 31 31 32 33 34 35 35
42 48 55 47 18 31 32 33 31 28 29 29 30 32 32 31 31 35 34 38 34 35 32 31 25 20 23 27 28 22 25 30 28 26 21 16 16 30 32 33 34 34 35 36 36
45 38 44 49 42 31 33 31 32 35 32 32 31 32 32 32 35 34 34 37 33 30 34 36 28 23 16 22 22 17 19 27 26 23 23 21 21 26 33 33 34 36 37 37 36
48 37 33 28 33 40 38 32 32 31 33 32 30 31 31 31 34 35 36 36 36 32 34 33 27 29 28 24 23 21 20 20 21 23 22 21 25 30 34 34 35 37 37 37 36
45 44 39 29 27 31 38 34 32 33 32 31 29 33 33 32 32 34 34 34 31 31 34 36 29 27 20 29 26 19 20 25 26 24 24 28 32 35 35 37 37 37 37 36 35
49 50 36 42 28 32 35 33 33 34 36 38 36 35 33 35 37 37 36 36 35 32 35 34 31 24 8 29 24 12 25 26 23 26 25 23 31 33 34 35 37 37 36 34 35

GFSSW_sfc_30mbdewp_033.txt.gz
Dewpoint
56 56 56 56 56 56 56 56 55 54 54 53 54 54 54 55 54 52 36 28 38 41 34 32 32 32 33 30 26 19 16 12 21 22 20 32 28 27 43 45 43 45 44 49 51
56 55 53 54 54 56 56 55 55 54 53 54 54 54 54 55 51 42 39 39 46 42 31 28 26 28 27 25 24 21 16 14 14 24 25 18 37 40 43 45 45 42 44 48 48
56 56 55 52 53 54 56 55 55 54 54 54 54 55 54 54 43 29 39 43 47 39 31 30 28 27 25 24 19 16 8 5 9 13 13 21 31 32 43 43 44 41 43 45 46
56 55 55 53 53 55 55 55 54 53 54 54 54 54 54 52 24 31 40 51 49 38 33 31 30 29 28 21 18 5 4 6 7 8 8 14 13 36 31 42 45 42 43 44 45
55 55 55 55 54 55 55 54 54 53 54 54 54 54 52 43 31 31 48 53 47 38 31 30 31 29 20 15 9 2 6 9 8 6 3 7 12 15 20 45 45 43 42 42 43
55 55 55 55 54 54 54 53 54 52 53 54 54 54 46 26 30 34 40 42 37 36 33 32 28 29 20 8 1 3 4 8 11 10 10 12 14 16 26 47 45 44 42 41 41
55 55 55 54 54 53 53 53 53 53 53 53 54 52 46 27 37 38 32 31 36 32 28 31 31 25 20 14 8 6 3 6 10 10 11 16 13 16 32 46 45 44 44 44 42
55 54 54 53 53 53 53 53 53 53 53 53 53 51 32 35 39 36 27 19 24 33 27 25 26 22 17 15 14 12 12 9 10 12 13 14 9 14 39 45 45 44 44 44 46
54 53 53 53 52 52 52 52 52 52 53 52 50 49 23 33 28 23 22 18 25 25 27 24 25 22 19 13 12 15 11 12 15 15 14 14 14 17 34 43 41 40 42 45 46
53 53 52 52 52 52 52 52 52 52 52 51 49 39 32 24 25 19 20 23 25 26 22 25 24 18 17 13 5 10 12 13 13 16 18 13 15 21 18 31 39 42 43 44 45
53 52 52 51 52 51 50 46 40 38 44 26 26 31 33 28 19 18 20 23 26 26 22 25 19 16 16 16 16 16 14 16 16 17 16 18 25 30 36 38 40 43 42 42 43
52 52 51 51 51 51 50 42 38 44 31 36 37 35 35 34 23 20 24 23 23 22 24 21 19 19 23 26 21 20 17 17 20 22 20 27 30 34 37 40 42 42 42 42 42
52 51 51 51 51 48 42 43 48 44 37 30 25 24 26 28 22 20 26 26 23 21 21 19 18 24 23 25 24 26 22 22 20 21 23 25 26 32 36 39 41 42 42 42 41
51 51 50 51 44 43 36 41 51 43 24 21 22 22 23 25 21 24 24 24 24 20 21 20 27 25 24 22 26 24 27 24 22 18 17 20 21 28 32 35 39 41 41 42 42
51 51 50 49 46 48 48 56 52 42 13 17 22 23 23 24 21 21 23 26 20 21 21 22 26 25 24 24 24 24 25 24 24 22 23 23 23 24 32 34 37 39 41 42 42
51 51 50 48 48 49 56 52 42 29 14 17 22 19 21 24 23 23 25 30 28 25 25 26 28 26 25 27 26 26 28 30 30 26 21 26 22 24 29 32 35 38 40 41 42
51 52 48 50 51 56 55 36 21 27 23 19 20 19 22 23 23 23 29 28 25 20 23 27 27 28 29 27 27 28 28 24 23 23 22 28 27 27 29 32 35 37 39 40 41
52 52 48 49 59 56 42 27 22 29 20 22 22 21 21 24 26 27 27 26 29 28 25 24 23 26 27 26 25 27 27 20 20 20 20 27 26 29 35 35 36 37 38 38 39
51 49 55 56 58 50 33 19 29 30 23 22 24 22 25 25 26 27 27 26 27 29 24 24 23 28 26 28 27 27 23 26 27 28 22 26 29 33 34 35 36 35 36 37 37
51 52 50 57 55 45 34 27 36 32 27 24 21 24 22 24 26 27 28 30 26 28 30 28 23 26 25 27 27 23 27 24 24 17 17 22 27 28 32 34 35 36 38 36 37
49 36 47 58 42 31 24 33 38 30 32 23 23 24 24 23 26 28 29 31 32 31 29 29 23 22 27 22 23 24 24 26 27 25 19 19 23 26 32 34 35 35 36 36 37
44 29 52 42 24 36 31 37 35 28 31 31 31 28 25 26 31 30 30 31 37 34 24 30 24 22 22 27 28 25 26 24 12 17 24 21 21 29 33 34 34 34 35 35 36
42 49 54 38 20 30 31 33 33 28 29 30 30 32 33 33 30 34 34 37 33 34 29 30 24 20 21 25 27 23 27 29 26 25 20 17 16 29 33 33 35 34 35 36 36
44 41 44 46 36 27 27 31 31 35 32 32 31 33 32 33 36 34 35 36 32 31 35 33 29 20 12 19 24 17 20 28 25 22 22 20 20 31 33 33 35 35 36 36 36
46 36 38 33 37 39 33 34 31 29 33 32 30 31 31 32 34 34 36 35 33 33 34 31 25 29 26 25 23 20 19 24 24 23 20 20 23 26 33 34 36 37 37 36 35
45 39 38 30 32 38 37 34 32 32 31 30 30 34 33 31 31 33 34 31 24 33 34 35 27 26 23 29 27 20 20 21 21 22 25 26 28 34 35 37 37 37 36 35 34
47 49 35 37 30 34 35 34 33 34 39 37 34 33 32 35 37 37 37 36 34 32 35 31 28 21 10 27 20 14 18 22 25 25 25 27 29 34 35 35 36 36 35 32 33

GFSSW_sfc_30mbdewp_036.txt.gz
Dewpoint
55 56 54 54 53 54 55 56 56 55 54 54 54 54 54 55 54 52 36 28 38 40 38 32 31 31 32 29 26 19 16 13 16 30 34 36 38 32 45 44 45 45 53 56 56
55 55 55 56 54 52 53 55 55 55 55 54 54 54 55 55 51 42 39 40 44 39 31 29 26 28 27 26 24 21 17 15 20 26 34 35 35 40 43 45 42 45 51 54 54
55 55 55 55 55 53 52 54 55 55 54 54 54 54 54 54 44 27 41 45 46 39 31 30 28 26 25 24 20 18 17 10 15 26 24 29 32 40 43 42 43 46 50 51 51
56 55 55 55 55 54 53 55 55 54 54 54 54 54 54 52 22 30 48 50 50 36 31 29 29 28 28 22 21 15 11 6 8 16 19 31 29 41 39 37 43 48 49 48 47
55 55 55 55 54 55 55 55 54 54 53 54 54 54 51 43 30 42 55 55 43 34 31 29 28 28 24 20 15 13 5 10 7 8 20 15 25 36 24 45 43 47 46 45 43
54 55 55 55 55 55 54 54 53 53 52 54 54 54 46 26 29 42 45 43 39 34 31 30 28 30 25 17 5 5 7 9 6 6 9 13 15 19 29 45 42 44 44 44 43
54 55 55 54 54 54 54 53 53 53 53 53 54 53 46 29 34 37 37 36 36 33 29 32 31 26 23 13 7 7 5 8 10 10 13 14 13 16 41 44 42 42 43 42 42
55 55 54 54 53 53 53 53 53 53 53 53 53 51 32 35 38 35 34 23 32 34 30 28 32 27 16 15 15 10 11 4 9 10 14 11 7 15 45 44 44 43 43 44 46
55 54 53 53 53 53 52 52 52 52 53 52 50 49 27 31 29 27 25 19 25 28 28 26 26 22 17 11 12 14 11 12 11 14 13 13 13 22 44 45 42 42 44 45 46
54 53 53 52 52 52 52 52 52 52 51 51 50 40 32 24 31 20 20 22 25 26 23 24 22 18 17 10 8 10 11 13 14 16 16 14 23 32 32 41 42 43 44 45 45
53 53 52 52 52 52 51 47 40 38 45 29 27 27 33 32 25 19 20 24 26 26 23 24 17 15 15 15 15 15 13 13 16 18 22 31 32 36 38 41 42 43 44 44 45
53 52 52 51 52 52 49 40 34 39 34 38 36 36 36 33 26 20 25 23 23 21 24 21 17 19 26 23 22 18 16 18 21 21 25 31 33 37 39 41 42 42 42 42 43
52 52 51 51 51 50 44 41 47 45 39 32 33 26 22 31 24 21 25 26 22 21 21 18 20 24 25 25 23 25 20 21 20 24 25 26 28 34 38 41 42 42 42 42 43
52 51 51 51 46 43 37 37 52 43 22 21 24 24 24 26 22 24 25 24 23 21 20 24 27 24 22 22 26 22 26 23 21 17 17 21 17 29 35 39 41 41 41 41 42
52 51 51 49 46 43 41 55 54 37 13 19 22 23 24 22 21 21 28 25 21 22 21 24 25 24 23 24 24 24 26 25 24 22 21 22 21 26 36 38 39 40 41 41 43
51 51 51 49 47 49 55 49 39 27 17 19 21 19 22 24 23 24 28 30 27 26 27 27 28 26 25 27 26 26 29 29 29 26 22 26 22 23 32 35 37 39 41 41 42
51 51 50 47 49 57 52 35 23 22 24 20 19 20 23 23 23 26 28 27 22 22 24 27 27 28 28 26 27 29 27 22 23 23 21 27 25 24 29 33 37 38 40 41 41
51 51 50 50 55 55 41 23 19 25 22 22 21 22 21 24 27 27 27 27 29 25 25 23 20 26 26 26 25 28 26 23 20 22 22 27 26 28 34 33 37 39 40 40 41
51 50 51 55 51 48 30 19 21 30 24 22 22 21 24 25 26 27 27 26 27 29 22 24 23 28 27 29 27 27 22 26 26 27 21 24 29 33 35 35 36 37 38 39 39
49 47 51 56 53 44 25 19 32 36 29 24 19 24 22 25 25 26 27 30 27 28 30 28 23 25 25 27 27 24 29 23 23 13 12 21 25 27 33 34 35 36 36 37 37
47 42 47 54 39 30 21 22 37 39 32 22 23 24 24 24 27 28 28 31 31 31 29 28 22 22 27 22 24 25 24 26 26 24 15 15 20 29 33 34 35 35 38 37 37
40 32 53 39 26 33 27 33 37 28 31 31 29 25 25 28 30 29 29 30 37 34 25 29 23 21 22 26 29 25 25 22 7 13 23 21 19 30 33 35 36 36 36 37 36
43 50 52 35 22 28 31 32 33 28 30 30 31 31 33 32 29 32 33 36 33 32 28 28 24 20 19 22 26 23 28 27 24 25 20 15 11 32 34 34 35 35 36 36 36
45 40 45 41 33 26 27 28 31 34 33 32 32 33 33 34 35 33 34 35 32 32 36 30 26 21 15 16 23 18 25 27 24 20 20 19 17 28 32 33 34 35 35 36 36
43 39 41 35 35 27 23 30 31 29 32 32 30 31 31 32 33 33 36 33 31 34 34 28 23 27 25 26 23 19 19 25 23 22 17 16 21 23 31 33 34 35 36 36 35
44 36 34 34 38 32 31 33 30 32 32 30 29 34 33 31 30 32 33 30 21 34 33 33 26 25 24 28 27 22 21 21 24 23 24 24 22 30 34 36 36 36 36 35 34
48 45 34 34 38 32 32 32 33 34 38 36 33 32 32 34 37 37 36 35 32 31 32 28 27 24 16 25 18 12 17 19 22 25 22 19 21 34 34 35 36 36 36 34 33

GFSSW_sfc_30mbdewp_039.txt.gz
Dewpoint
55 55 54 54 54 55 53 53 53 56 55 55 54 54 54 55 54 52 37 30 39 41 37 32 30 30 32 29 26 20 15 13 28 36 39 39 39 36 45 45 46 45 55 58 59
54 54 54 55 56 56 54 53 53 55 55 55 54 54 55 55 50 42 40 42 42 41 30 29 27 31 28 27 26 21 17 15 20 37 41 40 38 39 44 45 42 50 55 58 58
54 55 55 55 55 54 55 53 52 55 55 55 54 54 55 54 41 27 40 48 46 40 32 30 28 25 24 25 22 20 17 17 16 32 37 35 38 44 43 43 43 48 55 57 57
55 55 55 55 54 53 54 54 54 55 54 54 54 54 54 52 21 29 50 53 48 34 31 30 28 27 27 22 22 15 13 9 12 20 29 33 38 43 42 38 45 52 56 55 55
54 54 55 55 54 53 54 54 54 54 54 53 54 54 51 41 31 44 56 56 45 33 31 29 27 27 27 25 17 16 9 9 13 17 29 29 38 41 34 44 49 53 53 52 52
54 54 54 55 55 55 55 54 53 53 53 53 54 54 46 26 29 47 45 42 37 33 31 31 27 29 26 19 13 11 9 7 9 17 20 23 25 33 34 44 49 50 49 48 46
54 54 55 55 55 54 54 53 53 53 53 53 54 53 46 30 33 43 40 38 38 35 30 31 30 27 26 15 7 8 9 10 11 14 16 15 14 16 40 43 46 47 45 44 42
54 55 54 54 53 53 53 53 53 53 53 53 54 52 34 36 39 36 36 30 36 36 30 31 32 28 23 17 17 10 11 6 11 11 15 12 10 22 46 42 43 44 44 43 46
54 54 54 53 53 53 52 52 52 52 53 53 50 49 28 35 29 28 29 20 26 33 32 29 30 24 16 13 12 14 5 9 11 15 14 13 15 30 40 43 42 43 44 45 46
54 54 53 53 52 52 51 51 51 52 51 51 49 42 32 26 31 25 20 23 26 26 26 25 23 18 16 10 7 11 12 13 11 16 22 19 29 34 39 43 43 44 45 45 45
54 53 53 52 52 52 50 48 42 39 46 32 28 31 30 32 31 19 20 24 26 26 23 24 17 13 13 13 12 13 13 14 17 20 29 32 34 36 41 43 43 44 44 45 46
53 53 53 52 52 52 49 41 34 36 36 39 37 36 36 35 26 21 25 21 23 21 24 20 16 19 26 21 19 18 17 19 22 24 29 32 34 38 40 42 42 43 44 46 48
53 52 52 52 52 50 46 42 46 44 40 32 36 30 24 32 25 20 25 25 22 21 20 19 20 24 26 25 22 24 21 20 20 25 28 28 28 35 39 42 42 43 44 46 47
52 52 51 51 45 45 39 40 43 44 25 21 25 25 26 26 21 24 25 24 23 21 23 25 27 23 23 25 25 22 25 23 20 19 17 23 14 29 37 40 41 42 43 44 45
52 52 51 49 44 41 41 54 50 36 8 20 22 24 25 22 22 22 31 24 21 22 22 24 25 24 23 24 23 26 27 25 23 22 22 22 19 26 37 39 41 42 42 42 44
52 52 51 50 48 48 52 47 39 28 16 19 22 20 23 23 23 25 29 29 27 28 28 27 28 27 26 28 26 31 29 29 29 27 20 24 21 21 33 36 41 41 41 42 43
51 52 50 48 44 56 52 38 24 20 25 20 19 21 23 23 23 27 27 27 23 22 23 26 27 28 28 27 28 29 26 20 17 21 19 27 27 27 29 34 41 40 40 42 43
51 51 50 49 53 52 39 26 21 23 24 22 20 23 22 24 27 28 27 27 29 26 26 21 17 25 27 26 26 28 27 23 16 21 24 27 25 27 34 34 39 40 40 41 42
51 50 48 49 49 48 32 21 22 24 27 22 22 22 23 26 26 27 27 26 28 28 21 23 23 27 27 29 28 27 22 26 25 26 22 22 27 31 35 35 38 39 40 40 41
49 47 46 56 53 40 27 21 21 34 29 23 17 23 22 25 24 26 26 30 27 28 30 27 23 25 25 27 28 27 29 24 24 12 10 18 23 23 32 33 37 38 39 40 40
49 43 48 56 42 34 24 22 32 39 33 23 23 24 24 25 27 27 27 31 31 29 30 27 24 23 26 22 25 26 26 26 26 24 10 9 12 30 32 34 35 37 39 39 39
45 38 53 42 31 32 25 27 38 32 32 31 26 25 25 28 29 28 27 29 36 33 27 28 24 22 23 26 29 26 25 24 11 12 24 22 15 28 33 35 37 37 38 38 38
38 47 52 35 26 26 30 32 33 29 30 30 30 29 33 31 28 32 33 35 34 30 28 27 24 20 20 22 26 24 28 25 23 25 19 16 9 29 34 34 36 37 37 37 36
45 39 45 37 33 26 27 29 29 34 32 32 33 34 34 33 35 33 33 34 32 32 34 28 25 21 19 17 24 20 28 25 23 18 18 20 16 20 31 34 35 36 37 36 36
42 40 42 34 28 26 24 29 26 30 32 32 32 31 32 31 33 33 35 31 31 36 34 28 22 24 24 26 24 20 21 27 24 22 16 15 18 20 24 33 35 36 36 36 35
39 37 36 35 33 27 30 30 28 32 32 29 30 33 32 30 29 32 33 29 23 34 33 32 25 25 24 28 26 22 22 21 26 25 23 23 22 26 31 35 35 35 36 35 35
49 41 32 35 35 26 28 33 31 35 37 36 33 32 32 34 37 37 36 35 31 31 31 28 27 24 17 23 18 16 19 22 22 24 24 20 22 32 32 34 35 36 36 36 35

GFSSW_sfc_30mbdewp_042.txt.gz
Dewpoint
55 54 54 54 54 55 56 56 53 53 53 55 55 55 54 55 53 49 36 30 36 40 39 29 28 25 26 23 26 22 12 20 33 35 40 43 37 39 43 42 46 47 53 57 62
54 54 54 54 55 56 55 55 54 52 53 55 55 54 54 55 48 40 34 38 42 44 25 27 23 25 19 21 24 18 12 16 30 38 37 36 37 38 39 42 44 48 57 60 61
54 55 55 55 55 54 53 53 55 53 55 55 54 54 54 53 43 24 42 43 45 42 31 30 25 22 16 21 21 17 14 18 18 38 36 35 36 39 35 39 42 44 55 58 59
55 55 55 55 55 53 53 53 55 55 55 55 54 54 54 51 21 30 53 55 49 37 30 30 25 20 13 14 17 17 16 14 19 36 32 37 37 38 38 35 42 44 56 57 55
54 54 54 55 55 54 53 54 54 54 54 54 53 54 50 40 31 46 53 54 40 32 28 29 24 19 15 13 18 17 14 15 29 32 30 35 35 37 36 43 47 52 55 52 50
54 53 54 54 55 55 55 54 54 53 53 53 54 54 46 30 26 43 44 41 35 30 29 29 24 21 25 23 18 18 10 14 22 29 28 32 37 37 37 45 50 53 50 44 42
53 53 54 54 55 55 54 54 53 53 53 53 54 51 43 32 32 41 39 34 35 32 29 29 27 27 28 21 10 11 9 11 15 24 24 27 29 21 37 44 47 47 45 40 37
53 53 54 54 54 53 53 53 53 52 53 53 53 50 34 33 34 34 33 33 36 34 32 31 31 27 27 18 13 9 9 11 16 22 18 18 14 27 41 42 43 43 42 41 39
53 53 54 54 53 52 53 52 52 52 52 53 50 48 31 32 29 28 30 23 32 34 33 32 31 27 22 12 8 9 5 6 11 15 19 15 15 29 42 40 41 42 42 41 43
52 53 54 53 53 52 52 51 51 52 50 50 47 45 36 25 28 30 22 24 28 30 28 28 26 17 16 10 5 10 3 7 6 15 13 13 23 28 41 40 39 41 42 43 44
52 53 53 53 52 52 50 47 43 40 44 33 29 34 28 30 30 21 21 27 28 26 20 26 20 12 11 11 12 12 13 8 13 21 19 19 24 28 40 41 41 42 43 44 45
52 53 53 53 52 52 49 38 35 44 35 36 35 35 32 32 26 21 25 20 21 17 26 21 17 23 23 19 16 14 14 17 21 21 24 27 28 32 36 41 42 42 43 45 48
52 53 52 52 52 50 45 38 47 45 41 32 35 29 25 31 23 19 24 25 17 18 22 18 23 26 23 21 19 21 19 20 18 24 27 25 26 32 37 40 43 44 44 46 48
52 52 52 52 47 45 40 38 39 43 30 20 24 24 26 29 22 24 26 24 24 20 24 24 26 24 23 23 23 19 24 22 21 19 14 24 11 27 34 35 40 43 45 47 48
52 52 52 51 47 38 42 43 49 46 12 18 23 26 26 24 21 24 31 25 18 22 24 24 24 23 21 23 25 24 25 23 22 20 20 20 16 22 34 34 36 41 45 46 46
52 52 52 50 48 48 52 55 50 33 17 20 22 21 22 23 23 25 28 28 29 26 26 26 28 27 26 28 27 30 28 27 26 24 17 17 19 8 22 28 36 41 45 46 45
50 52 51 49 39 57 54 48 31 22 24 20 20 20 19 21 23 24 24 24 19 21 23 25 26 28 29 27 30 28 22 13 16 17 14 26 23 14 27 32 36 41 44 44 42
49 52 51 49 49 54 50 39 22 18 20 23 20 19 17 22 24 26 26 23 27 25 22 18 20 24 28 27 23 25 22 14 8 13 16 27 20 24 32 34 35 41 43 42 40
50 51 49 49 51 52 42 32 21 24 24 21 21 18 21 24 22 24 26 24 27 28 17 20 21 27 28 30 28 27 22 28 26 28 23 17 23 28 33 34 34 40 41 39 39
47 47 43 48 52 46 40 29 24 32 28 23 16 18 19 22 20 21 25 29 27 29 32 27 22 26 26 28 29 28 28 23 23 16 8 8 14 11 28 32 34 38 38 38 39
45 39 50 56 52 43 35 27 26 36 32 22 17 22 21 25 21 19 24 30 30 30 31 28 24 26 26 23 22 27 25 25 23 24 10 6 5 27 28 31 33 37 38 37 39
43 34 57 53 41 43 33 28 33 32 38 28 24 22 22 26 25 22 23 26 35 31 28 30 28 26 24 26 28 26 25 23 14 15 25 23 8 24 31 35 34 35 37 38 40
40 45 53 48 39 37 31 29 34 29 30 31 27 28 31 28 27 30 31 36 35 31 30 29 27 24 23 24 28 24 26 24 24 25 19 20 6 25 30 33 35 36 37 39 40
39 39 49 45 38 33 29 26 29 36 33 33 33 35 33 32 35 33 33 35 35 34 31 29 28 24 19 19 24 23 25 24 20 19 13 15 5 17 24 28 32 35 37 39 39
41 34 39 40 38 31 29 27 24 31 34 34 33 31 30 32 32 33 34 32 35 36 35 32 25 25 25 24 23 22 22 25 21 19 19 9 9 7 15 21 26 33 37 38 37
40 39 41 39 35 30 28 28 24 32 32 31 31 33 33 31 29 32 33 31 30 35 34 33 28 28 26 27 25 23 22 21 24 22 21 19 16 19 23 28 30 35 37 37 36
49 43 37 38 33 27 27 28 26 34 38 36 34 34 34 36 38 38 37 33 31 34 34 32 31 27 21 23 22 20 23 21 20 22 23 18 19 23 26 28 30 34 36 36 36

GFSSW_sfc_30mbdewp_045.txt.gz
Dewpoint
54 55 54 55 54 55 56 55 54 55 53 53 55 55 54 55 54 47 37 30 34 41 35 29 26 20 17 16 19 17 16 14 20 26 45 42 36 37 38 36 40 45 47 52 62
54 55 55 55 56 56 54 53 53 55 54 54 55 55 54 55 48 34 30 38 38 41 28 26 23 18 14 14 17 15 16 15 38 45 39 40 40 33 36 35 40 47 56 60 61
54 54 55 55 55 56 54 53 53 54 55 55 55 54 54 53 41 25 40 41 39 40 24 24 22 15 13 14 17 18 16 19 41 46 37 30 31 35 35 33 32 39 54 58 58
54 55 55 54 54 55 55 53 53 55 55 55 54 53 54 50 27 33 50 51 44 34 30 26 19 14 12 13 17 16 16 16 17 33 30 30 35 32 33 31 38 44 54 54 54
54 54 54 54 54 55 55 55 55 54 54 54 53 54 51 37 27 45 49 57 42 31 28 24 20 15 11 11 12 13 18 16 28 29 29 34 42 44 29 33 35 50 51 51 51
54 53 53 53 54 55 55 55 54 54 53 53 53 54 49 28 24 31 39 38 30 28 27 23 21 18 20 19 13 16 22 26 31 31 30 32 38 31 35 37 44 48 47 46 43
53 53 53 53 54 54 54 54 54 53 53 53 54 50 41 28 28 34 37 32 32 31 27 26 24 24 24 23 17 16 25 26 26 29 29 31 27 27 36 38 43 44 41 38 33
53 53 53 53 54 53 53 53 53 53 53 53 53 48 36 30 30 30 31 31 31 32 30 30 29 27 27 20 13 16 12 19 21 26 27 28 19 26 36 37 36 37 33 31 30
53 53 52 53 53 53 52 52 52 52 52 53 51 45 32 33 27 26 27 26 29 31 32 30 30 28 27 15 13 11 10 14 17 21 19 22 13 26 33 35 36 36 35 33 34
53 52 52 54 53 53 52 51 51 51 50 47 43 41 38 25 26 28 24 23 29 31 30 30 28 25 21 15 9 8 10 11 13 17 15 10 17 27 33 33 36 37 36 36 38
52 52 53 53 53 52 50 46 42 43 42 31 29 26 28 29 27 24 21 22 27 26 22 26 23 17 18 15 14 12 5 6 6 9 8 9 16 25 31 32 33 37 38 39 41
52 52 53 53 53 52 50 38 35 44 38 32 27 29 29 29 25 22 22 19 22 25 26 22 22 21 15 12 11 9 13 8 12 11 18 13 16 23 31 32 32 35 39 41 43
52 52 53 52 52 50 44 38 44 44 41 29 27 26 27 26 23 18 21 19 20 20 21 26 23 23 17 13 12 13 12 22 15 17 16 18 18 26 30 32 36 37 38 40 43
51 52 52 52 48 43 42 40 41 43 36 23 24 23 23 26 21 20 21 20 19 17 17 27 29 21 15 15 16 16 22 18 17 18 13 19 11 21 29 32 37 39 40 42 45
51 52 52 51 50 40 45 41 45 50 23 17 18 23 21 21 19 18 22 20 18 16 18 21 20 17 15 21 21 24 23 20 17 13 16 18 11 21 28 28 33 38 41 44 47
52 52 52 50 49 47 48 54 49 38 24 16 20 21 21 21 18 19 19 20 24 19 21 32 27 24 25 24 23 26 23 22 19 16 16 13 15 11 22 24 30 36 41 44 45
52 52 51 47 41 48 49 52 36 27 20 15 18 20 19 18 18 17 18 17 16 14 17 22 22 26 26 23 26 23 21 18 17 13 13 21 18 11 19 28 27 36 41 44 44
50 51 51 47 48 55 51 45 29 20 20 17 16 18 17 16 17 16 16 13 15 18 14 17 20 22 24 24 22 21 19 15 9 8 10 21 9 21 29 32 33 38 41 44 44
49 50 49 50 50 53 44 38 30 21 18 17 17 16 15 16 16 17 18 15 16 18 17 20 18 25 26 26 23 22 17 24 20 29 19 9 14 29 30 31 33 37 41 43 41
45 47 45 49 52 50 42 36 29 23 20 19 16 15 14 17 17 15 16 18 20 26 27 21 18 23 25 27 27 25 26 19 18 15 8 4 6 14 23 26 31 36 40 41 40
43 43 41 50 50 45 37 34 30 26 29 20 17 16 15 16 16 15 16 26 26 28 30 20 19 24 25 21 16 25 22 20 20 20 14 6 8 16 20 25 29 33 39 40 39
44 38 50 53 34 39 37 34 31 25 34 27 24 18 18 18 19 17 14 20 29 28 23 24 21 19 22 24 26 24 20 21 18 14 18 23 11 20 23 25 28 31 36 38 38
43 45 55 48 30 39 36 34 30 25 29 29 22 20 21 21 21 20 19 36 32 31 25 29 19 16 21 24 26 23 22 21 20 22 17 17 14 22 24 25 26 28 32 36 37
42 41 49 50 33 37 35 32 28 29 30 28 23 22 23 20 23 24 25 34 35 31 31 31 19 19 18 17 22 24 23 22 21 20 15 11 11 13 20 20 22 26 28 33 36
45 36 41 39 35 36 34 30 27 24 32 32 27 26 25 23 24 26 29 34 35 35 31 31 25 22 21 24 23 21 20 20 21 21 17 16 9 3 6 11 18 22 26 30 36
44 34 37 33 32 36 34 30 24 22 29 30 26 23 25 26 28 26 30 31 30 35 33 32 26 28 27 25 25 22 22 20 18 19 14 13 12 14 19 18 20 21 27 29 35
46 47 36 36 35 34 33 30 24 24 37 35 28 23 27 32 37 37 34 32 32 34 33 33 30 28 23 24 22 21 22 19 17 18 18 17 17 20 22 21 22 24 29 30 33

GFSSW_sfc_30mbdewp_051.txt.gz
Dewpoint
56 55 55 55 56 56 55 55 56 55 54 54 55 56 56 55 54 48 43 38 41 41 37 34 31 32 27 20 18 16 13 11 19 38 42 47 44 50 46 47 47 49 48 58 61
56 55 55 55 55 55 55 55 55 55 55 55 55 55 55 55 50 44 42 40 45 43 34 26 25 27 22 18 15 13 12 14 36 43 44 45 45 46 45 42 47 53 58 60 57
55 55 55 55 55 55 54 54 55 55 55 55 55 55 55 54 46 40 43 46 44 36 29 25 25 23 21 18 14 12 12 23 35 41 44 43 46 49 47 41 41 51 56 58 56
55 55 54 54 54 54 54 54 55 55 55 55 55 54 54 52 31 32 44 47 46 34 29 27 25 23 21 15 13 12 13 24 33 44 44 43 41 44 44 40 44 56 57 55 55
55 54 54 54 53 53 54 54 54 54 54 54 54 54 49 43 42 40 51 50 41 33 28 28 27 23 16 13 15 13 14 22 39 43 43 46 41 40 44 45 50 57 58 56 56
55 54 54 53 53 53 53 54 54 54 54 54 54 54 50 34 36 42 47 41 36 28 28 29 25 22 19 18 21 26 26 27 34 36 38 42 42 37 42 44 48 55 55 55 54
55 54 54 53 53 52 53 54 53 53 53 53 54 51 45 32 35 32 33 36 36 25 24 26 27 23 24 26 27 26 24 26 28 38 37 32 33 34 42 48 50 50 52 52 46
55 54 53 53 52 52 53 53 53 53 53 53 53 50 39 41 38 37 34 28 34 32 29 31 31 30 27 28 26 22 23 22 27 37 38 31 30 34 38 43 44 44 48 51 44
55 54 53 52 51 52 53 52 52 52 53 52 50 47 42 41 38 35 29 27 29 30 31 30 29 29 28 26 23 20 18 18 20 35 36 33 32 34 37 40 39 38 35 35 37
56 54 53 52 51 52 52 52 51 51 51 48 47 40 41 29 31 28 27 28 25 30 30 29 28 28 27 23 17 18 18 18 16 22 32 28 27 31 36 38 36 34 32 32 34
55 54 53 52 51 53 51 47 46 46 43 40 37 32 28 30 29 26 25 24 23 30 28 29 28 24 23 21 20 18 19 17 16 19 21 27 27 30 33 35 34 33 31 32 34
56 54 53 52 52 52 51 43 42 41 41 43 41 39 34 31 27 28 25 23 21 24 27 25 29 29 30 30 25 20 18 19 22 18 17 15 19 27 29 33 33 31 31 31 35
55 54 52 52 52 50 47 43 42 42 42 40 39 40 35 25 26 26 25 21 20 24 26 26 29 30 29 30 30 27 24 22 21 25 19 16 17 19 25 28 36 35 33 35 42
55 54 52 52 47 48 47 47 47 44 39 34 33 36 33 21 25 27 26 19 20 25 29 28 31 27 28 29 30 27 24 27 20 18 15 23 17 23 25 25 28 36 37 38 41
55 53 52 51 49 48 49 51 46 45 24 32 31 26 20 24 24 23 25 21 17 26 28 24 28 27 28 28 28 25 27 22 25 24 23 23 21 24 24 25 27 28 37 40 43
54 53 52 51 50 48 48 48 50 42 29 26 24 19 22 24 23 21 19 19 20 25 26 25 31 30 30 28 26 23 22 27 31 29 21 22 21 24 24 24 28 31 37 39 43
54 52 51 47 45 51 48 48 40 35 27 21 18 18 20 20 20 19 17 17 17 17 20 27 23 28 32 28 29 26 26 23 19 20 21 24 24 24 29 29 29 29 34 41 47
54 52 51 48 49 51 52 46 35 29 29 22 19 19 19 20 20 19 15 17 18 19 20 23 19 29 30 27 25 28 28 20 19 21 22 26 24 26 29 31 33 35 38 44 48
53 51 49 48 49 50 49 38 31 31 25 24 17 19 19 19 20 19 16 13 17 16 13 23 28 35 30 31 27 28 26 31 23 30 25 19 23 29 30 32 37 38 41 45 46
50 49 47 49 51 49 45 35 36 33 32 30 22 17 17 19 19 19 17 17 16 16 19 30 26 35 34 33 27 25 25 24 22 12 12 16 19 25 28 30 35 38 43 44 44
49 44 45 48 51 47 37 36 37 36 34 30 24 18 17 18 18 16 18 17 17 24 28 30 24 30 31 30 25 24 21 22 20 24 17 18 14 24 26 28 28 37 42 44 44
47 40 47 52 42 41 38 36 38 36 35 35 28 26 23 17 18 16 17 18 22 26 24 28 29 30 27 32 31 23 23 25 18 17 23 22 19 22 25 27 28 28 41 44 44
44 41 50 47 30 36 35 34 35 35 35 33 28 28 28 23 20 19 18 34 28 26 25 31 24 19 24 25 26 23 22 20 21 28 21 18 18 23 22 23 25 27 38 43 44
42 38 46 47 34 30 34 30 31 35 36 34 32 29 28 24 24 23 31 34 34 33 31 31 27 23 18 18 21 21 23 23 21 21 21 21 22 22 22 22 23 23 27 39 43
44 37 44 40 40 36 32 30 31 34 36 35 32 29 27 24 22 21 33 34 34 34 31 29 24 23 20 22 25 22 23 23 22 22 21 21 22 22 21 22 22 27 27 26 33
41 39 44 42 41 41 36 30 30 32 34 32 32 29 28 24 24 22 30 33 31 34 31 32 26 25 25 28 25 23 23 23 22 20 19 20 20 23 23 23 22 21 22 26 28
44 45 42 40 41 40 37 32 30 33 33 33 30 30 30 26 30 32 34 34 33 31 30 32 30 30 27 25 23 22 22 22 22 22 20 18 21 26 25 25 26 27 29 28 30

GFSSW_sfc_30mbdewp_054.txt.gz
Dewpoint
56 55 56 55 55 55 55 55 55 55 55 55 55 55 55 55 54 49 37 29 41 36 40 33 30 30 31 24 20 17 13 12 12 37 40 48 44 47 49 47 47 52 55 57 61
56 56 55 55 54 54 54 54 54 55 55 55 55 55 55 55 50 44 42 43 45 46 36 31 23 25 26 21 18 13 12 11 21 43 44 45 45 46 46 44 53 56 59 60 61
56 55 55 55 54 54 53 53 54 55 55 55 55 55 55 54 42 39 43 50 47 48 34 28 25 24 22 21 19 14 12 23 41 44 45 44 45 46 42 40 49 55 56 58 58
56 55 54 54 54 53 53 53 54 54 54 54 54 55 54 52 25 32 44 45 52 42 30 26 26 23 22 20 17 12 13 22 42 44 42 43 44 42 44 42 53 56 57 56 57
55 55 54 54 54 53 52 53 53 54 54 54 54 54 48 38 32 39 47 50 43 33 30 26 28 27 23 17 18 19 17 32 42 43 42 43 40 40 39 45 54 53 56 55 54
55 55 54 54 53 53 52 52 53 53 53 54 54 54 48 26 35 47 43 43 35 30 27 29 28 26 23 23 22 24 39 41 43 42 44 42 40 40 41 46 53 55 55 55 54
56 55 54 54 53 52 52 52 53 53 53 53 53 51 46 23 34 34 33 34 37 25 24 25 26 28 25 26 28 26 32 36 37 37 36 40 36 38 43 45 51 55 54 56 55
56 55 55 54 53 52 51 51 52 52 52 53 53 50 32 41 43 41 38 34 33 29 25 27 31 30 27 28 26 19 22 24 37 36 35 33 29 35 39 48 51 54 54 56 54
57 56 55 54 52 51 51 52 52 53 53 53 50 46 37 44 38 38 38 31 29 31 31 29 29 29 29 26 23 21 19 19 28 31 34 30 28 33 38 41 49 51 51 52 54
57 56 55 54 52 51 52 51 51 52 50 50 47 38 38 26 33 33 31 29 27 30 30 29 28 28 28 24 18 19 18 19 20 32 32 32 30 31 35 42 44 48 49 43 47
57 56 55 53 52 52 51 46 43 45 43 39 31 27 27 32 32 28 27 26 26 31 28 30 28 25 26 28 29 24 22 19 20 24 31 29 28 28 36 40 37 38 44 42 44
57 56 55 53 51 52 50 41 40 40 37 41 42 40 37 38 34 27 28 24 22 26 30 27 27 29 27 28 30 29 25 21 23 22 30 27 28 30 35 37 34 33 35 36 38
54 56 55 52 52 49 46 43 42 42 38 39 42 41 40 42 34 26 27 24 22 24 27 25 25 30 29 28 28 27 28 25 22 23 22 19 22 24 29 35 36 34 32 33 36
54 55 54 51 45 47 47 48 49 45 34 30 38 37 39 31 20 26 27 24 22 25 29 28 31 28 27 26 26 25 29 28 25 18 11 22 17 24 23 32 34 34 32 33 38
54 55 53 50 47 45 49 48 47 46 3 28 34 36 35 20 24 25 27 24 20 27 27 22 29 28 24 24 27 26 30 28 26 24 22 22 18 21 26 23 30 34 34 34 41
54 55 52 51 49 46 49 48 50 39 15 29 31 28 20 20 23 23 22 24 24 27 28 24 31 28 26 30 29 29 26 30 30 28 21 21 21 19 23 23 25 31 35 37 44
51 54 51 49 40 50 51 48 38 31 30 27 21 20 20 20 22 23 20 17 17 19 21 26 25 28 31 25 27 27 24 20 19 19 18 25 23 21 26 27 27 28 37 39 44
50 54 52 49 48 49 50 44 32 30 30 30 19 20 19 22 21 20 18 16 18 19 22 21 19 26 29 27 26 29 25 18 15 17 19 26 22 23 30 31 31 30 34 43 46
51 52 50 50 50 48 48 37 30 34 27 23 19 19 19 20 21 20 19 16 17 18 16 20 25 35 34 32 29 28 26 29 25 30 25 22 22 29 31 33 35 36 38 44 49
47 49 49 50 49 45 44 33 36 37 34 31 22 20 18 19 19 20 19 19 15 18 19 24 23 31 33 32 30 25 28 25 26 14 13 15 19 25 28 31 35 36 37 45 48
47 45 48 50 48 42 36 35 35 34 36 35 31 25 20 19 20 19 19 19 19 18 23 30 24 24 33 27 23 23 22 23 23 21 17 17 15 21 29 31 35 37 40 45 46
44 38 48 50 37 39 35 36 35 35 37 37 36 33 24 21 19 19 17 18 26 28 24 29 28 23 22 30 33 32 27 26 21 16 23 20 17 24 28 30 33 36 43 45 45
42 41 48 46 32 32 36 36 36 32 34 35 34 32 28 24 20 21 20 30 30 27 25 29 26 23 23 26 29 29 26 23 28 26 19 18 18 24 24 28 29 27 36 44 45
43 36 45 44 38 31 31 34 36 34 33 35 36 36 33 27 26 22 24 33 35 31 32 30 27 21 20 20 22 22 23 23 22 19 20 22 20 22 23 22 25 25 29 41 45
44 36 39 37 38 34 31 32 32 31 30 33 32 33 34 28 25 25 34 33 34 31 32 28 22 25 23 23 26 24 23 24 22 23 20 21 23 22 23 23 23 25 26 37 43
39 38 40 40 38 36 30 30 30 30 28 25 31 35 35 30 25 24 31 31 29 33 29 32 22 24 22 27 25 24 23 23 23 22 22 22 21 24 23 23 23 23 27 29 35
43 45 41 36 38 37 35 29 29 28 29 28 32 34 33 33 32 28 32 33 30 28 29 29 27 26 21 25 24 22 22 22 22 23 22 19 23 26 26 27 29 31 30 32 36

GFSSW_sfc_30mbdewp_057.txt.gz
Dewpoint
56 55 55 56 55 54 54 54 54 54 55 55 55 55 55 55 54 49 35 30 42 40 37 33 30 30 31 27 21 18 14 13 13 24 36 47 43 47 48 46 55 57 55 58 61
57 56 56 55 55 54 53 53 53 54 55 55 55 55 55 55 51 43 41 44 44 49 35 31 24 24 24 23 19 15 12 11 15 36 42 46 44 45 45 47 53 55 59 60 59
57 56 55 55 54 54 53 53 53 54 55 55 55 55 55 54 37 34 46 48 47 49 38 29 26 23 22 22 21 16 14 14 34 43 46 44 44 46 43 42 52 53 56 58 58
57 56 55 55 54 54 53 52 52 53 54 54 54 54 54 51 15 31 49 50 55 47 33 27 25 23 23 22 20 14 14 21 40 45 44 43 44 43 44 43 53 57 58 57 57
56 55 55 54 54 54 53 52 52 53 54 54 54 54 48 34 25 36 48 49 50 38 30 25 27 27 23 22 19 17 28 26 42 43 42 42 39 40 46 55 57 56 57 56 56
56 55 55 54 54 54 53 52 52 52 53 53 53 53 46 22 30 47 39 39 36 32 29 27 27 27 25 23 24 39 41 42 42 42 44 38 39 38 42 53 56 55 56 55 54
57 56 55 55 54 53 53 52 51 52 53 53 53 52 44 21 34 36 40 35 36 30 22 27 28 27 28 24 28 36 35 36 38 41 39 41 35 38 44 53 55 54 55 54 53
58 57 56 55 54 53 52 51 51 52 53 53 52 50 28 38 43 43 41 36 35 35 27 26 29 30 28 28 27 29 30 30 34 37 36 36 29 40 48 53 54 54 54 52 51
57 57 56 55 54 53 51 51 51 53 53 52 48 45 30 41 35 37 40 31 30 30 31 29 30 29 28 27 21 21 19 24 27 37 35 33 29 35 45 50 54 53 53 53 53
56 57 57 56 54 52 51 50 51 51 51 51 47 37 30 27 34 34 36 31 26 29 31 30 29 28 28 23 19 21 19 19 20 28 32 32 30 34 41 48 51 53 53 55 54
55 57 57 56 54 52 50 45 39 44 45 38 30 23 26 33 38 30 30 27 28 30 28 31 27 25 26 25 27 28 25 23 23 23 26 25 30 29 38 43 46 52 51 53 54
53 56 57 55 53 52 50 40 37 41 34 39 40 38 37 38 37 34 29 23 24 22 30 28 27 28 29 30 26 27 27 26 25 24 27 28 27 29 35 40 44 48 50 47 50
52 53 56 55 52 49 45 42 43 45 34 36 41 40 39 41 36 34 27 24 22 22 26 25 25 30 29 28 26 25 26 26 25 25 29 22 22 25 32 39 40 43 49 44 45
51 53 55 53 47 45 46 48 47 46 28 25 40 39 39 38 26 33 28 24 23 21 26 27 30 28 28 26 27 23 28 28 28 23 16 22 14 24 29 37 37 37 41 41 42
50 53 54 51 44 46 49 48 47 45 6 17 37 38 37 23 22 24 27 23 24 26 28 23 28 28 25 24 27 24 29 28 27 25 23 22 19 19 25 31 35 35 34 35 37
50 50 54 51 49 47 47 49 49 36 8 24 33 33 28 21 21 24 25 24 24 25 29 23 31 28 25 28 29 29 28 28 29 27 20 22 20 19 23 25 30 35 35 33 35
50 51 53 51 45 49 49 47 38 30 23 26 27 27 27 20 19 22 19 20 20 21 22 26 26 28 32 26 28 27 24 18 17 18 17 24 23 22 23 25 25 29 35 35 37
49 49 52 51 49 47 49 44 30 29 29 33 23 22 18 21 21 22 19 17 18 20 21 19 17 25 28 27 25 28 24 17 13 15 17 26 22 21 29 34 32 30 34 37 40
49 49 48 52 51 46 47 36 29 30 31 20 21 19 19 21 20 20 19 17 18 19 15 22 20 33 33 31 28 27 24 26 24 29 24 22 21 27 30 32 35 32 39 39 42
46 45 43 52 51 45 41 35 34 36 36 35 18 20 17 20 20 20 20 20 17 19 19 21 17 30 32 33 31 27 30 23 26 16 14 15 19 19 26 27 33 36 35 44 46
43 39 44 51 50 42 35 35 35 35 35 36 34 27 20 19 20 20 19 20 20 19 21 27 20 23 31 27 24 27 24 24 25 20 16 16 17 19 27 29 27 30 38 44 48
40 34 49 50 40 38 34 35 35 32 33 34 36 35 30 22 20 20 19 19 22 25 19 26 23 18 19 29 32 26 24 24 19 18 23 20 16 22 25 30 32 34 38 44 47
35 38 49 47 36 34 35 35 36 32 34 31 34 35 34 25 19 22 22 24 29 26 24 29 25 19 19 25 31 29 28 28 27 25 20 17 18 23 24 26 30 32 36 43 46
35 35 42 44 40 35 33 34 34 36 34 34 34 35 33 30 27 23 22 33 34 29 31 28 27 22 19 19 23 25 25 24 25 20 20 21 19 22 22 23 25 29 29 35 45
37 31 37 35 38 38 33 34 34 33 35 33 31 32 32 30 27 25 33 33 34 32 32 28 23 24 23 23 22 22 22 25 23 24 21 21 22 23 25 23 23 25 26 34 40
34 36 40 37 36 37 33 31 33 34 31 30 27 30 29 29 29 25 32 31 29 32 30 30 23 24 24 27 26 24 24 23 23 23 24 23 22 25 24 27 26 26 28 34 37
34 41 40 35 34 35 35 32 31 33 33 31 29 27 25 33 36 35 32 33 30 29 28 28 26 23 19 25 24 23 24 24 23 23 22 19 21 26 28 29 30 32 34 35 40

GFSSW_sfc_30mbdewp_060.txt.gz
Dewpoint
56 56 56 56 55 54 54 53 53 53 53 54 55 54 55 55 53 49 34 31 42 42 37 35 31 32 31 28 21 18 15 14 14 15 23 47 43 47 48 50 55 57 54 58 61
57 57 56 56 55 54 54 54 53 52 54 55 55 54 55 54 50 39 39 43 45 46 33 29 23 24 24 24 20 16 13 12 13 21 37 46 43 44 45 50 52 55 58 60 60
58 57 57 56 55 54 54 53 52 52 53 54 54 54 54 54 31 29 50 49 48 46 37 28 26 22 22 22 20 15 16 16 18 38 44 45 43 45 43 43 51 53 54 58 58
58 57 56 56 55 54 54 53 52 52 53 54 54 54 54 50 13 28 52 54 53 46 33 26 23 23 24 22 21 16 15 16 36 44 45 43 44 43 44 42 53 55 57 58 57
58 57 56 55 55 54 54 53 52 52 52 53 53 54 48 29 21 30 46 54 47 37 29 26 26 26 23 23 22 16 30 36 42 44 43 42 39 41 51 55 56 57 57 56 57
58 57 56 55 55 55 54 53 52 52 51 53 53 53 45 20 25 44 36 37 37 33 30 27 27 27 25 25 25 39 40 41 42 42 43 38 39 39 51 56 55 55 56 56 56
55 58 57 56 55 55 54 53 52 51 51 53 53 52 44 23 32 37 41 37 35 31 24 27 29 27 28 25 35 36 35 36 39 42 39 40 35 37 52 55 54 54 54 55 55
53 55 57 57 56 55 54 53 51 51 52 53 53 49 28 34 41 41 42 38 37 36 29 27 28 29 29 29 25 32 27 28 34 37 38 34 28 40 52 53 52 54 54 55 54
53 53 56 57 56 55 53 52 51 52 53 52 48 44 27 37 31 34 39 32 30 31 32 28 29 29 29 26 21 22 20 24 23 36 35 34 28 41 53 52 52 53 54 53 52
53 53 55 57 56 55 52 51 50 51 51 51 48 38 31 26 32 36 38 34 28 27 31 29 30 27 27 23 19 21 19 20 21 28 35 33 30 38 50 52 51 53 53 53 52
52 53 54 57 56 53 50 44 35 42 46 37 35 30 22 35 39 31 30 29 29 30 27 31 27 25 26 24 24 26 25 24 23 26 25 24 28 31 42 50 52 52 53 53 52
52 51 52 56 56 52 49 39 36 42 37 39 40 39 36 38 35 34 29 23 24 21 29 28 26 28 28 30 28 27 25 24 26 26 25 26 26 30 38 44 50 51 52 52 54
51 51 52 55 54 50 46 40 44 46 39 32 38 38 37 39 33 33 28 24 23 23 27 24 24 30 29 28 26 25 24 24 25 27 28 24 22 26 30 39 43 49 51 51 52
48 50 51 54 50 46 43 47 48 47 26 22 34 37 40 39 29 36 28 24 23 20 24 24 27 27 28 27 27 23 26 27 27 24 18 21 14 21 26 32 38 43 49 50 49
48 50 50 53 46 45 47 46 48 43 3 17 37 40 40 28 23 27 28 23 22 23 27 21 26 28 26 26 27 25 28 28 28 25 23 22 19 18 26 28 34 38 42 48 47
48 49 50 52 50 48 49 49 48 33 11 17 34 34 32 24 22 25 25 25 26 27 29 23 31 29 26 27 27 29 29 27 27 26 21 22 21 19 22 25 30 37 37 40 44
47 49 51 51 47 49 49 45 39 28 23 24 31 31 25 21 19 22 22 22 21 19 21 26 26 28 30 26 28 27 23 18 15 17 16 24 23 22 24 27 27 32 37 36 38
47 48 49 50 49 47 49 42 31 29 27 30 25 29 23 20 18 20 20 20 21 21 21 19 16 25 28 26 24 28 23 20 13 13 16 24 20 19 28 31 34 31 31 37 35
47 46 47 47 51 47 44 35 29 29 30 23 22 22 22 20 16 21 19 18 19 21 17 20 18 31 33 31 27 28 22 25 24 28 24 21 22 19 28 30 34 33 36 35 36
45 43 41 46 53 47 40 34 34 33 36 35 22 20 16 18 20 19 19 20 18 21 20 21 15 29 32 33 32 27 30 24 24 18 16 16 17 16 18 25 31 32 33 40 41
44 37 39 45 52 44 34 33 36 36 36 35 35 28 20 20 20 20 20 21 20 19 21 25 18 22 31 27 24 27 26 25 25 21 16 15 15 21 19 26 28 30 36 37 45
41 31 42 50 39 40 36 34 35 35 35 33 34 35 29 22 20 20 19 19 22 23 19 25 21 16 19 29 28 27 26 25 21 19 23 21 18 21 20 24 31 30 36 39 44
37 32 48 46 32 36 37 34 35 33 33 31 32 35 35 26 18 21 22 24 24 22 21 27 21 14 16 24 31 29 28 27 26 25 21 19 20 23 24 23 26 30 32 39 44
36 29 39 42 34 32 34 34 33 36 34 34 34 35 33 31 26 22 22 29 30 25 28 26 25 16 13 15 23 26 27 28 26 23 22 21 21 21 21 23 24 25 30 31 40
37 29 37 33 33 34 34 33 32 32 34 35 33 33 32 30 28 25 30 33 34 34 31 26 20 24 22 22 23 21 22 25 25 23 20 21 21 22 24 24 24 24 25 28 31
34 31 37 34 34 34 36 31 31 33 34 32 32 30 32 30 27 27 33 32 29 32 30 29 22 24 22 26 26 24 24 25 25 24 24 23 22 25 25 27 27 28 29 36 39
38 39 38 33 34 32 33 32 32 33 34 33 32 30 29 30 29 32 35 34 33 31 30 27 25 23 21 25 25 22 24 24 24 24 23 21 23 25 26 28 31 34 37 40 42

GFSSW_sfc_30mbdewp_066.txt.gz
Dewpoint
59 58 58 58 57 56 55 54 54 53 53 53 53 54 55 55 53 46 34 34 36 44 43 33 32 32 27 17 21 20 15 11 11 14 16 38 39 46 47 47 50 52 52 56 62
57 59 59 58 57 56 55 55 54 54 53 53 53 53 54 54 46 34 37 40 44 46 32 27 23 28 25 24 20 18 14 12 14 14 16 32 37 41 44 46 46 51 56 60 62
55 56 58 59 58 57 56 55 54 54 54 53 52 53 54 53 37 27 47 49 48 42 34 29 23 24 23 24 23 20 16 18 18 18 19 30 38 42 39 37 42 48 55 59 60
53 53 55 57 58 57 56 55 55 54 54 53 53 53 53 45 10 34 51 56 49 43 34 26 21 21 22 21 23 22 22 21 20 33 32 32 41 38 40 42 49 52 55 57 57
51 52 54 55 57 58 56 55 55 55 54 53 53 53 45 29 24 40 55 57 46 36 28 22 20 25 21 24 25 23 28 35 34 38 39 41 37 37 43 51 52 54 56 56 57
51 52 53 53 54 56 57 56 55 55 54 54 53 53 41 24 25 39 40 39 34 32 27 26 28 28 26 26 26 35 35 34 36 37 38 36 36 37 47 53 53 53 54 56 56
50 51 51 53 53 53 56 57 56 55 54 53 53 48 39 29 27 37 39 35 35 31 25 26 28 29 30 27 35 35 33 36 37 37 34 37 32 32 43 52 51 52 54 53 54
48 49 50 51 52 53 55 56 56 55 53 53 53 47 29 33 32 33 32 37 34 34 32 30 30 30 30 30 27 28 26 19 30 36 36 37 25 32 46 50 50 50 51 51 51
47 48 49 50 52 53 55 56 55 54 52 52 48 43 27 34 32 27 27 27 31 36 35 30 31 30 30 24 20 22 16 19 22 31 30 32 25 36 47 48 49 49 49 51 50
47 46 48 50 52 52 55 55 54 51 51 49 46 39 33 23 29 34 35 26 30 32 32 30 29 27 26 22 13 16 17 19 20 26 30 27 26 28 44 47 46 49 48 49 50
46 48 47 49 52 53 53 48 42 40 46 34 33 30 27 31 39 34 36 33 28 29 26 30 26 23 19 21 22 19 19 19 21 25 25 24 25 24 39 45 44 48 48 49 50
44 47 47 48 51 54 52 45 44 44 35 36 37 37 36 37 33 35 33 26 26 25 27 29 25 25 27 25 25 23 21 21 22 25 25 24 22 26 36 44 42 44 47 48 48
45 46 47 48 52 52 51 47 45 44 35 35 37 32 31 36 29 29 30 24 24 23 24 23 25 28 27 27 25 23 22 22 21 24 26 25 21 22 29 40 43 44 44 47 48
45 45 48 49 49 49 49 48 48 48 35 24 30 33 33 31 29 27 31 24 23 21 22 23 26 26 26 23 24 21 24 24 23 24 18 23 11 16 24 29 37 42 45 45 47
46 45 47 47 48 47 47 52 50 47 12 18 31 35 33 22 20 25 30 26 21 22 25 22 24 25 23 24 26 23 28 26 26 25 23 22 16 16 23 21 25 33 40 45 46
46 45 46 45 47 49 49 52 48 34 18 16 34 34 32 27 24 26 26 26 24 22 24 21 28 27 25 28 27 30 29 28 28 26 19 21 19 13 15 19 23 26 30 38 45
47 45 45 43 41 48 51 48 34 24 19 15 31 33 27 23 23 23 22 24 21 19 19 22 22 27 28 26 29 28 26 20 21 19 16 23 19 16 18 24 25 28 33 34 36
47 45 45 45 43 48 49 42 27 14 18 27 31 32 25 20 19 23 20 21 21 19 17 18 17 23 27 24 23 26 24 20 13 14 14 23 14 14 23 24 28 33 35 34 37
46 44 43 46 45 49 44 33 24 22 25 22 28 30 25 19 17 22 20 18 21 22 17 17 15 23 27 28 25 28 24 26 25 28 22 16 17 18 20 24 29 25 32 35 35
41 41 40 45 46 45 38 31 26 25 29 32 21 29 27 18 18 19 20 20 20 22 20 21 16 22 30 31 30 28 27 23 24 18 14 15 16 12 16 18 22 22 25 33 40
40 36 39 46 45 39 30 30 27 31 33 32 27 31 25 23 16 19 19 21 21 23 22 20 18 25 30 27 23 28 25 25 24 22 17 14 15 19 17 18 22 23 28 30 35
36 31 39 42 34 34 30 30 30 27 35 34 34 33 34 24 20 15 17 18 24 22 22 22 20 18 20 27 29 26 24 25 20 19 23 24 19 20 20 25 24 26 31 32 37
33 35 42 38 27 29 30 29 28 30 28 33 32 33 36 34 22 21 20 23 23 23 21 23 20 17 18 23 29 24 25 25 25 27 20 20 19 24 25 26 27 26 27 31 35
35 30 37 38 30 26 26 26 27 29 29 31 32 32 32 31 32 25 23 28 26 24 26 26 19 18 16 14 16 19 22 24 22 21 18 18 17 19 22 23 24 26 28 29 32
36 32 33 29 32 25 25 24 23 26 28 32 32 32 31 29 31 27 26 32 29 30 26 25 18 20 18 16 15 16 15 17 20 19 15 20 18 19 21 23 25 27 28 28 29
33 32 30 31 31 28 23 24 23 24 27 28 29 29 31 31 31 29 30 30 27 33 29 27 20 22 21 19 19 17 18 18 21 20 22 23 20 21 24 27 27 28 29 34 40
36 33 29 27 30 27 24 20 22 24 26 28 29 29 30 30 33 34 34 33 32 30 31 29 23 24 19 25 24 23 24 21 23 26 24 20 20 22 25 26 27 32 36 39 42

GFSSW_sfc_30mbdewp_069.txt.gz
Dewpoint
57 57 58 59 59 58 57 56 55 54 54 55 54 53 53 54 53 39 37 34 33 36 39 31 27 27 24 18 14 16 12 10 12 10 18 24 26 38 44 41 45 48 49 56 62
54 55 55 57 58 58 57 56 55 55 55 55 54 53 53 53 45 35 39 39 42 40 34 26 24 26 22 20 17 16 13 13 12 13 13 18 26 33 37 37 38 47 54 59 61
50 51 52 54 56 58 58 57 56 55 55 55 54 54 53 51 38 28 49 43 44 41 30 26 24 20 20 20 20 17 12 13 15 17 20 17 25 36 33 31 41 42 53 56 59
49 49 50 53 55 55 56 57 56 56 56 55 55 54 52 45 20 35 47 51 46 35 32 24 21 18 19 19 19 17 18 19 19 21 29 25 35 34 35 39 44 49 53 55 57
49 50 50 51 53 54 54 56 57 56 56 55 55 54 46 31 26 41 52 56 43 37 31 22 20 17 18 18 20 19 24 26 28 30 30 32 32 34 34 44 49 50 53 54 55
47 49 50 50 52 53 53 54 56 56 56 55 55 53 40 29 24 27 36 44 37 34 27 21 22 24 24 22 21 29 29 28 30 29 31 31 30 34 43 45 48 48 51 53 56
47 47 49 50 50 52 53 53 55 56 56 55 54 49 39 33 27 28 34 34 32 28 24 25 27 26 26 23 24 26 25 33 36 28 28 29 29 31 42 45 47 48 50 49 53
46 47 47 49 49 51 52 53 55 56 56 53 53 45 38 30 29 27 29 35 34 30 28 29 30 29 26 25 23 21 22 18 35 32 29 28 35 42 42 45 44 47 47 46 47
45 46 47 46 49 51 51 53 55 56 54 52 49 44 32 33 29 26 23 29 33 32 33 32 31 27 26 21 18 18 14 21 23 25 25 26 27 34 39 42 43 45 46 44 47
46 44 46 47 48 51 51 52 52 53 51 48 44 38 35 24 25 24 22 25 28 31 32 31 27 26 25 21 16 15 16 15 16 25 25 23 25 29 35 40 42 42 43 44 45
46 45 45 47 47 51 51 46 42 45 44 30 29 25 24 24 33 28 22 24 28 29 27 26 24 23 21 21 19 17 16 17 19 22 22 23 25 23 34 39 41 44 44 45 45
48 46 45 46 48 51 51 41 38 44 34 32 34 32 33 33 30 26 29 25 25 26 26 25 24 24 23 18 18 18 18 19 21 21 22 21 19 19 31 38 39 41 45 44 46
48 47 45 47 48 49 46 41 45 46 38 25 23 26 26 29 30 25 26 24 23 23 22 22 23 23 24 22 22 22 21 22 20 22 21 18 17 19 26 35 37 37 41 43 46
48 47 46 46 45 40 42 44 46 48 31 14 30 29 25 25 25 26 26 22 21 21 21 21 22 24 23 22 23 20 22 22 22 21 25 23 17 20 19 26 35 35 38 41 44
47 47 46 45 44 44 44 48 49 47 0 14 24 30 26 24 8 19 25 20 19 20 20 18 19 24 22 22 22 21 25 23 23 23 21 18 12 18 15 16 24 32 37 38 41
45 47 46 43 43 44 48 51 49 28 8 13 28 27 28 25 15 16 21 22 20 19 19 18 22 22 21 23 25 24 24 25 25 23 20 19 16 18 18 14 18 23 31 36 38
45 46 45 41 41 39 48 49 29 13 9 8 24 28 28 24 22 18 18 20 18 18 18 19 21 22 25 23 25 26 24 22 20 19 18 20 17 14 17 19 21 22 27 30 35
46 46 42 39 42 45 46 41 16 10 11 22 24 29 26 22 19 20 18 19 20 18 18 16 15 20 24 23 24 23 23 22 18 18 17 18 10 13 16 18 19 23 27 32 34
45 41 38 41 42 46 41 31 15 10 10 9 22 28 27 23 18 18 18 17 18 19 15 15 15 19 21 23 23 23 22 23 23 22 20 17 16 16 15 16 21 19 22 28 34
43 38 35 41 44 44 36 30 23 12 7 18 12 24 23 22 18 16 17 15 16 18 18 18 15 17 20 24 23 25 27 22 21 17 18 14 13 13 15 18 18 18 20 26 36
42 37 34 41 44 40 29 29 28 18 15 18 21 15 23 25 19 20 18 16 16 18 19 18 18 18 23 23 20 22 24 23 21 21 19 15 13 18 16 16 17 20 21 23 27
40 32 37 44 34 34 30 29 28 24 20 22 29 26 20 25 23 20 24 16 19 18 19 20 19 17 21 21 20 22 22 23 20 18 21 20 19 19 19 19 22 21 23 24 28
36 35 38 41 28 31 29 27 26 24 21 24 26 27 29 32 25 21 20 22 22 19 20 21 18 18 17 20 24 22 23 23 23 22 20 25 21 19 20 22 22 22 22 24 28
36 30 37 40 30 27 24 23 22 25 26 21 26 26 27 30 32 26 23 23 27 23 23 25 18 19 17 17 20 20 18 21 22 24 22 20 17 16 17 20 21 22 23 22 26
36 30 33 29 32 28 24 20 20 19 24 27 25 27 26 26 27 30 27 27 29 26 27 23 19 18 17 17 15 15 17 17 19 20 19 19 17 14 17 18 20 24 26 27 25
33 28 29 27 32 29 26 22 17 17 17 21 25 24 26 24 27 28 31 27 23 26 26 25 22 21 16 17 16 14 13 15 14 13 14 14 14 17 20 18 20 23 26 27 32
38 31 29 29 29 28 27 24 18 16 17 19 20 22 24 26 34 34 33 31 30 31 27 25 26 20 19 18 18 18 17 16 16 17 17 17 18 19 19 19 21 22 28 32 38

GFSSW_sfc_30mbdewp_072.txt.gz
Dewpoint
54 54 55 56 56 57 58 58 57 56 56 56 56 55 55 54 52 39 35 35 38 38 40 34 29 28 24 23 19 13 11 12 18 16 16 20 19 41 36 36 39 45 56 60 62
50 50 51 52 55 56 56 57 57 57 56 56 56 56 55 54 45 37 39 39 38 37 32 29 24 23 23 21 16 14 12 16 19 13 12 15 15 37 38 42 45 46 56 60 61
49 49 49 49 52 55 55 55 56 57 57 56 56 56 55 53 39 34 47 39 37 38 32 29 23 22 18 20 18 17 14 14 12 15 17 19 20 33 34 41 43 44 53 57 59
49 49 50 49 49 53 54 54 54 56 57 57 56 56 54 47 26 38 48 43 40 33 29 28 24 21 17 18 18 16 14 16 20 21 20 19 24 30 29 42 47 50 54 56 58
46 47 49 49 49 50 52 53 53 54 56 57 56 56 50 37 32 43 46 48 41 30 29 28 21 18 15 17 17 17 18 22 20 22 23 21 24 25 29 43 47 50 51 53 56
46 45 46 49 50 50 50 52 53 53 55 56 56 54 48 38 33 27 33 45 37 34 31 27 20 18 21 21 20 19 26 24 31 33 31 27 24 34 40 42 46 48 49 54 55
46 45 45 46 48 49 49 52 52 53 55 56 56 52 46 38 36 30 29 32 37 33 29 23 21 24 24 24 24 22 20 25 36 31 28 33 24 39 45 47 45 47 49 52 54
47 45 45 45 46 48 49 51 51 52 55 56 55 50 38 34 33 31 30 28 32 30 26 25 25 26 26 26 23 22 19 19 31 34 33 32 26 42 46 43 46 45 48 47 50
49 47 44 44 46 48 48 50 51 52 54 55 50 47 35 30 33 30 25 24 32 31 28 28 30 28 26 24 21 18 17 18 26 33 30 25 23 37 45 44 44 45 47 43 50
49 48 46 44 44 47 48 49 49 52 52 51 46 36 34 21 24 27 25 21 28 30 28 29 28 25 24 23 19 20 18 21 17 24 26 23 22 32 41 47 39 45 46 45 45
48 49 47 46 44 47 47 45 38 48 48 38 32 30 21 27 24 25 22 20 24 27 27 27 25 21 22 23 23 19 17 15 24 24 22 20 24 28 30 32 37 40 40 42 43
47 47 48 46 46 48 46 43 32 42 36 32 36 35 32 31 30 27 23 18 22 23 26 25 23 22 23 23 18 16 17 15 20 23 20 19 24 23 28 34 37 40 40 43 43
46 48 47 47 46 44 41 41 41 42 37 26 23 21 22 26 29 27 23 18 19 22 23 24 23 25 23 23 19 19 19 19 22 22 24 24 21 19 25 32 34 40 43 46 44
46 47 47 46 42 41 37 40 41 46 34 12 15 21 20 21 20 28 28 23 19 19 21 22 23 23 23 22 21 20 21 22 20 20 19 27 22 21 21 25 32 36 44 40 43
46 47 47 46 40 41 45 47 49 46 8 3 12 27 23 19 16 19 27 24 21 18 20 20 20 20 23 21 22 21 22 24 23 21 21 25 25 18 20 22 28 32 39 42 44
47 46 46 43 42 40 43 45 50 32 8 9 25 25 23 20 18 15 20 25 22 18 20 19 20 19 19 23 22 22 22 23 23 23 21 21 19 20 24 19 20 29 34 39 46
47 46 45 38 37 40 48 43 31 20 9 3 19 25 23 22 20 19 16 21 21 16 18 18 18 18 21 20 21 23 23 21 23 21 21 25 21 17 28 23 20 22 31 36 40
47 47 43 38 39 40 44 38 24 12 15 14 10 24 23 24 23 20 17 15 22 17 17 16 15 17 21 22 21 22 23 24 27 22 22 25 16 8 19 19 19 21 24 31 34
47 46 42 40 40 42 40 29 24 16 9 12 17 20 25 24 22 22 19 17 20 19 17 17 15 17 21 22 22 23 21 23 25 28 25 22 20 16 17 16 17 19 22 27 32
45 43 42 41 42 41 35 27 25 25 17 15 10 19 23 25 21 19 18 19 18 19 20 19 17 18 18 22 21 21 24 21 22 21 20 16 15 24 20 17 19 17 21 27 32
43 37 41 42 42 38 29 27 26 23 26 19 10 13 11 20 23 18 18 21 21 20 20 20 20 18 17 18 18 19 20 26 23 21 20 20 20 23 19 17 18 19 21 23 30
41 32 40 41 34 34 30 29 27 20 21 24 24 21 15 15 26 20 20 19 23 21 19 20 19 19 17 19 20 21 21 24 23 20 24 26 24 22 22 20 20 21 22 24 26
36 36 40 39 28 29 30 28 26 24 19 20 21 23 24 27 20 24 22 25 27 25 19 21 20 19 18 19 22 20 20 22 23 24 22 23 24 25 21 20 21 22 22 22 27
36 30 37 39 32 28 27 26 25 26 22 21 23 23 32 25 29 28 24 24 25 27 30 29 21 20 20 21 23 20 18 20 23 24 25 24 22 23 20 21 23 24 28 26 25
35 32 33 30 32 29 27 23 22 22 22 23 21 23 27 33 22 25 29 26 24 27 27 28 25 22 19 19 19 19 20 20 19 20 22 26 21 20 19 19 21 22 27 31 32
32 31 30 27 30 32 30 27 22 20 18 19 21 22 26 33 34 29 24 28 28 29 28 26 26 22 22 19 19 17 19 19 18 17 17 18 18 19 16 16 21 19 20 25 27
39 34 31 29 31 30 29 27 24 21 18 17 18 21 26 35 38 43 37 34 32 31 33 28 26 23 22 22 18 17 18 16 14 16 16 15 17 18 19 19 20 21 23 25 32

GFSSW_sfc_30mbdewp_075.txt.gz
Dewpoint
51 50 50 51 53 55 56 56 56 56 57 57 57 57 57 56 55 44 35 39 45 41 39 37 28 25 26 25 24 23 16 9 13 17 16 27 20 38 39 37 46 51 47 52 61
49 49 49 50 50 52 54 54 54 55 56 57 57 57 56 56 50 41 41 39 38 40 31 31 31 29 27 23 23 20 13 12 15 18 16 18 20 33 38 41 43 47 50 59 61
49 48 48 49 50 50 51 53 53 54 55 56 57 57 56 55 43 36 44 42 39 38 29 30 30 26 22 21 19 20 15 16 14 19 21 20 18 35 36 40 43 43 51 59 59
47 47 48 48 49 50 50 50 52 53 54 55 56 57 56 51 20 40 45 44 41 33 28 28 28 25 22 19 18 18 18 16 16 31 30 29 23 23 48 47 48 52 58 58 57
47 46 45 46 48 50 50 50 50 52 53 54 56 57 52 45 40 42 48 47 39 28 27 27 27 27 19 18 17 21 21 21 29 29 29 30 26 28 44 47 53 54 57 57 57
49 47 45 45 46 48 49 50 49 51 52 53 55 56 51 40 40 37 42 46 36 34 30 29 29 27 20 22 23 20 22 23 30 28 30 29 30 33 38 47 51 55 55 56 55
50 49 46 45 45 46 48 49 49 49 51 53 55 54 49 42 38 36 35 35 42 38 34 32 32 26 22 24 26 25 23 24 28 30 30 31 28 32 42 45 47 47 54 54 55
49 48 48 46 44 44 47 48 49 49 50 52 55 53 43 41 41 43 38 36 31 37 35 33 30 25 26 27 26 24 22 20 20 30 30 32 27 35 45 44 47 52 52 52 52
48 48 49 48 46 44 45 48 48 48 50 52 52 50 41 39 36 35 34 30 29 28 32 29 26 28 28 26 25 24 21 19 19 29 30 31 29 36 44 44 43 47 49 51 52
48 49 48 49 47 46 46 47 46 48 50 52 51 42 41 29 29 30 33 29 25 30 31 29 27 27 26 25 21 22 22 21 20 29 33 28 30 33 43 42 45 47 47 50 52
48 48 48 48 48 47 47 43 40 46 47 45 42 35 27 32 33 25 29 25 22 23 28 29 25 25 25 25 24 24 23 18 18 24 25 25 24 32 40 43 46 46 46 50 50
48 47 48 47 48 47 45 40 41 42 39 42 45 43 38 39 34 30 26 22 20 18 27 28 25 27 27 24 23 23 16 17 17 27 25 19 21 26 33 41 42 46 45 48 50
48 47 47 48 47 45 40 40 41 40 39 36 36 30 30 30 33 30 29 24 19 18 22 26 27 27 26 23 22 20 18 18 20 21 24 24 23 23 30 36 40 42 44 47 48
48 47 46 47 44 41 41 46 45 47 37 27 24 26 25 19 24 28 29 25 18 17 21 23 27 26 25 24 23 20 22 22 24 21 19 25 21 25 26 32 36 41 43 44 47
47 48 47 46 44 40 40 42 43 47 -6 6 12 23 20 19 19 21 26 27 18 17 20 20 23 25 24 24 24 21 24 24 24 24 22 25 24 25 25 28 32 42 44 45 46
47 48 47 44 44 43 43 45 46 34 17 13 23 24 21 19 18 19 21 25 27 20 20 20 22 22 23 23 24 23 22 22 24 23 21 23 25 23 21 22 29 39 43 45 44
47 48 47 43 37 41 45 44 31 27 9 0 20 24 24 19 18 18 19 20 23 21 20 21 20 21 21 20 22 22 22 21 23 21 21 26 26 25 25 26 25 32 43 42 43
47 47 46 44 42 39 43 37 25 17 19 17 16 20 23 23 20 19 17 18 24 23 20 19 17 20 20 19 21 21 22 23 22 24 27 29 23 19 26 28 22 24 39 43 43
47 45 44 44 43 40 38 27 23 22 18 15 14 11 21 23 23 21 20 19 20 24 19 17 17 19 19 21 22 24 22 26 29 29 28 27 25 23 22 17 19 20 23 39 45
44 42 41 44 44 39 34 24 25 25 20 19 18 20 15 23 24 24 23 23 21 21 24 21 19 20 19 21 22 22 26 22 23 24 24 23 22 23 22 22 19 18 26 28 32
43 37 40 44 43 36 27 26 27 27 23 21 17 19 23 24 26 27 22 23 22 19 23 21 21 20 22 19 20 22 20 21 26 26 20 19 20 26 24 23 17 21 24 26 31
41 31 43 43 34 32 26 26 27 27 25 23 22 21 24 25 24 28 29 24 23 24 19 21 24 21 21 23 22 22 21 22 25 25 24 22 22 24 22 20 21 21 22 28 34
35 35 42 41 28 29 28 27 28 28 27 24 22 21 23 21 25 34 32 31 27 24 24 26 25 25 22 22 21 20 22 22 23 26 23 24 26 28 27 21 22 22 23 25 28
34 29 37 39 35 30 29 27 28 29 28 27 24 23 23 23 29 34 35 35 30 27 29 28 30 27 22 21 23 19 20 22 22 22 22 24 25 27 26 25 21 22 26 28 29
35 31 34 30 32 33 29 27 26 27 27 26 24 25 23 21 29 31 37 38 35 29 29 27 28 27 25 22 23 22 22 22 20 21 24 25 26 27 26 22 23 25 27 27 28
32 33 34 29 31 33 31 31 27 27 24 23 24 23 23 21 28 30 34 39 38 30 26 27 24 25 24 25 20 20 22 22 21 21 21 21 25 29 25 21 21 22 29 30 29
39 37 33 31 31 30 29 28 29 28 26 24 24 23 21 23 33 38 42 42 41 38 30 26 26 24 22 25 23 21 20 21 21 22 21 18 19 20 20 20 20 23 23 28 35

GFSSW_sfc_30mbdewp_078.txt.gz
Dewpoint
50 50 49 50 51 51 51 53 53 54 54 55 56 57 57 57 55 49 37 36 45 42 40 35 30 27 25 25 25 22 20 18 17 12 14 26 21 38 39 46 47 50 48 50 62
48 48 48 48 51 51 51 51 51 52 53 54 55 56 56 56 52 41 42 42 48 45 32 30 32 30 27 25 24 21 18 19 17 14 17 22 21 35 40 43 44 47 50 57 60
47 47 47 47 49 50 50 50 50 50 51 53 54 55 56 56 43 32 47 45 44 42 29 30 29 29 25 24 22 20 18 18 19 19 25 26 28 38 39 42 44 42 50 59 58
49 48 48 47 47 48 50 50 50 49 49 52 53 55 55 53 1 39 43 44 43 35 25 26 27 26 24 22 21 18 18 18 19 27 28 27 31 45 47 46 50 50 58 58 56
50 50 49 48 47 47 48 49 49 50 49 49 52 53 53 45 40 41 47 47 40 30 22 22 24 27 25 22 19 19 22 23 25 29 27 30 33 46 47 53 52 56 55 56 57
49 49 50 49 47 46 47 47 48 49 49 49 51 53 51 34 35 39 45 45 37 30 28 28 25 28 27 24 23 25 25 25 26 28 29 28 35 38 51 52 48 47 51 55 55
48 50 49 48 49 48 47 46 47 47 49 49 50 52 47 40 41 37 34 36 42 36 32 31 29 30 27 24 26 26 24 23 23 26 28 30 27 36 48 48 48 50 55 54 53
48 48 49 48 49 48 47 47 47 47 47 49 50 50 40 44 44 43 43 40 38 36 37 35 34 31 27 27 26 25 24 20 21 24 30 28 22 40 46 46 45 52 53 51 51
49 48 49 49 48 48 48 47 47 46 48 50 49 49 36 43 41 40 38 32 32 33 34 36 34 30 28 26 24 25 21 22 23 24 29 29 26 39 47 47 49 51 51 51 52
49 48 48 49 48 47 48 47 45 48 48 50 51 44 41 22 30 32 35 32 29 28 28 29 28 25 26 25 19 21 23 23 23 24 30 29 28 41 44 44 47 49 50 50 50
48 48 48 48 48 47 47 41 39 42 43 44 44 39 30 30 36 32 31 32 28 26 25 29 26 24 25 26 24 24 24 23 24 23 28 28 28 29 43 44 44 47 49 49 50
47 48 48 47 47 48 46 39 39 41 39 39 39 43 44 42 39 37 31 26 24 21 25 28 26 26 27 26 25 24 23 23 22 21 26 23 20 25 41 43 44 46 48 48 50
46 47 48 46 46 43 40 39 41 44 40 36 36 35 38 37 40 37 32 25 21 20 20 24 27 28 27 26 26 25 23 22 18 22 23 24 22 23 36 41 45 47 47 49 50
45 47 48 46 39 43 40 41 41 43 31 26 31 28 32 29 29 31 26 27 21 19 19 20 25 27 27 26 26 23 24 23 24 23 21 25 20 25 28 36 43 44 45 48 50
46 47 48 46 40 37 38 41 44 47 -19 2 21 28 29 18 18 24 28 27 22 19 18 19 23 24 25 26 27 25 26 23 24 22 23 23 23 23 27 34 39 44 46 48 50
47 47 47 45 44 41 41 41 46 32 4 9 19 21 22 19 18 22 25 27 28 21 19 18 21 24 24 26 26 26 24 24 26 24 21 22 24 22 25 26 37 42 45 47 49
47 47 47 44 37 41 40 42 32 24 20 5 20 19 22 19 18 18 20 20 23 23 20 16 17 20 23 22 23 24 22 19 18 20 19 28 26 23 26 26 32 41 43 46 48
46 47 46 45 44 42 40 36 25 22 22 21 18 13 12 16 19 18 18 16 19 24 21 18 18 20 22 21 20 21 21 20 18 20 25 29 24 22 25 28 27 36 43 44 47
47 45 44 45 45 42 36 27 22 20 18 17 19 12 15 23 28 25 19 17 18 21 21 20 19 21 20 21 21 21 22 25 24 30 27 28 28 25 22 24 22 29 42 44 44
43 41 39 44 45 40 32 24 23 22 22 23 19 19 18 20 23 28 29 23 19 21 25 23 18 20 20 20 22 22 26 24 29 23 24 24 26 23 20 19 20 26 38 43 43
43 37 40 44 44 37 24 24 25 25 24 23 21 17 17 18 22 28 28 29 29 21 23 24 23 20 21 18 18 22 22 24 25 27 22 21 21 27 24 24 20 24 30 37 43
40 32 42 44 33 33 26 23 25 23 26 25 23 21 20 20 21 22 23 25 37 37 23 23 23 21 20 22 23 21 20 22 22 24 26 24 22 26 26 24 21 20 25 30 36
36 35 43 40 27 29 32 27 26 25 25 26 25 24 23 21 19 28 30 35 36 39 31 23 22 20 18 20 24 22 22 23 24 26 24 25 24 29 26 26 22 21 24 27 31
33 29 36 39 35 29 29 30 26 26 25 26 27 27 26 24 24 26 32 34 39 40 40 36 25 20 17 19 24 23 22 22 22 21 22 25 24 26 26 27 26 24 24 26 28
33 31 34 29 31 30 28 29 27 26 28 28 27 27 26 25 24 23 28 36 36 39 39 32 24 27 22 26 27 26 25 22 22 23 20 21 24 25 28 28 27 25 25 28 28
31 32 35 31 31 32 28 29 27 28 26 24 26 25 25 24 24 21 27 31 36 39 38 36 26 29 28 30 29 28 26 24 22 21 22 23 24 27 27 29 25 24 25 27 27
39 36 34 30 31 30 29 27 30 28 27 27 26 25 25 25 25 27 34 36 38 38 36 37 30 28 26 29 28 27 28 26 25 24 22 21 23 24 25 24 24 21 27 28 28

GFSSW_sfc_30mbdewp_081.txt.gz
Dewpoint
49 49 48 48 49 50 50 50 50 50 49 50 52 54 55 56 54 50 33 34 46 47 41 32 30 26 24 24 25 22 20 18 18 16 13 18 24 38 42 46 48 49 48 49 60
48 47 47 47 49 50 50 50 50 50 50 49 51 53 54 54 51 41 40 42 48 45 30 31 31 29 28 26 24 21 19 19 19 16 17 19 21 35 41 44 44 46 51 53 60
50 49 48 47 48 48 48 49 49 49 49 50 50 53 53 53 43 19 44 45 50 44 29 30 30 29 27 26 24 21 20 20 18 19 19 19 27 39 39 41 43 43 45 58 58
48 48 49 49 49 48 47 48 48 47 48 49 49 51 52 52 -10 37 47 48 50 40 26 24 26 26 25 22 21 19 19 19 19 23 26 28 34 43 43 44 48 46 51 57 56
49 49 48 47 49 50 49 48 47 47 47 48 49 50 51 43 34 40 48 45 41 28 20 20 23 26 24 24 22 19 20 23 25 25 28 29 32 41 45 52 55 56 58 57 56
48 49 50 48 48 50 50 49 48 48 47 47 48 50 47 26 33 38 40 47 36 28 26 25 21 26 25 26 23 24 25 25 24 24 28 32 40 41 42 54 48 49 54 56 55
49 49 48 48 49 49 49 49 48 48 48 47 47 48 45 31 38 40 40 34 40 35 29 29 28 25 29 26 27 26 23 23 22 23 26 29 32 34 41 53 50 48 54 53 53
49 49 49 49 49 49 48 47 47 48 48 47 48 48 38 43 44 44 43 39 39 36 34 35 32 29 29 29 27 24 24 19 20 24 26 27 20 26 48 48 46 51 53 51 52
49 49 48 48 48 48 47 47 46 46 47 48 49 46 32 43 39 40 42 34 29 35 36 37 34 32 31 27 25 25 18 20 21 25 25 29 23 29 45 46 46 51 52 50 52
47 48 49 48 48 48 47 45 45 48 48 49 49 40 37 23 31 34 39 35 28 30 30 29 30 28 27 25 19 20 21 23 23 24 28 27 29 35 44 47 48 51 50 49 49
46 47 48 49 48 47 45 40 39 38 42 41 41 40 38 38 42 36 36 32 28 27 25 28 26 25 26 26 25 24 24 23 23 24 24 24 27 29 42 45 45 49 49 47 48
46 47 47 48 48 46 43 38 39 40 37 41 41 40 41 42 38 34 37 29 27 24 26 26 26 28 26 26 25 25 24 22 24 24 24 24 25 24 38 42 43 45 48 48 48
46 46 46 46 48 41 41 40 40 41 39 36 38 36 35 35 34 34 36 28 24 24 23 22 26 27 26 25 25 25 24 23 23 24 24 24 22 24 35 42 44 45 48 49 48
45 46 46 47 36 41 36 40 39 42 32 25 32 30 32 33 34 35 33 27 24 21 21 21 23 27 26 24 26 23 26 26 24 23 21 24 20 23 27 36 43 43 46 48 48
45 47 47 47 43 37 35 40 40 45 -18 3 21 31 31 22 13 24 30 27 23 20 20 18 20 21 24 27 27 25 27 26 25 24 23 22 22 22 29 32 37 43 45 47 48
45 47 46 44 44 43 42 40 45 29 0 5 21 25 25 23 19 24 27 26 24 22 20 18 24 23 22 24 28 28 26 25 27 24 19 22 22 21 24 26 33 41 44 46 48
45 47 46 44 38 42 42 40 31 20 20 13 19 17 15 18 19 17 23 21 21 17 21 19 18 20 24 23 26 26 24 21 19 19 18 25 26 24 25 27 30 38 42 46 47
46 46 45 45 44 43 39 34 23 23 23 23 19 16 10 25 27 28 19 20 21 24 21 19 16 18 19 20 20 23 24 21 17 18 18 30 26 26 27 27 29 37 41 45 47
45 44 43 43 45 43 35 22 13 22 21 21 17 16 19 20 25 27 29 24 17 19 21 20 18 21 18 20 21 20 21 23 21 30 27 26 28 27 23 25 29 32 41 43 46
42 39 37 43 44 40 30 16 19 23 23 21 17 18 17 16 18 26 28 30 27 33 22 24 20 22 21 20 21 21 26 22 27 19 21 25 25 25 23 21 23 30 38 43 45
41 36 37 44 43 36 24 21 22 20 22 22 20 16 17 14 14 23 27 27 34 33 38 28 22 22 21 19 18 21 22 24 24 25 19 20 22 26 26 24 20 25 38 42 45
38 30 40 43 32 31 26 24 23 22 26 23 24 22 22 21 18 19 23 23 34 37 32 36 27 20 20 23 22 19 20 24 21 23 26 23 22 26 26 28 27 22 28 42 44
35 35 42 40 25 27 29 26 24 22 23 25 26 25 23 20 20 21 22 31 36 36 36 38 32 22 20 22 22 22 23 23 26 26 24 22 23 28 28 26 24 21 21 29 41
33 29 36 38 34 26 26 28 29 27 24 25 26 26 26 24 25 24 26 30 34 36 41 40 37 33 22 19 19 20 22 24 24 21 22 24 24 26 27 27 27 27 25 25 29
34 30 34 28 31 31 27 26 29 28 26 27 25 24 23 21 22 22 22 24 32 39 36 39 33 32 29 23 24 26 26 26 25 24 20 22 24 26 26 27 26 28 27 25 25
32 31 36 31 30 32 29 27 24 27 25 26 26 27 27 24 24 18 20 19 26 37 34 37 32 33 28 24 22 22 29 29 28 28 23 22 22 26 26 27 27 28 27 25 26
39 37 34 30 29 30 29 27 27 26 27 27 26 26 25 26 28 28 26 26 31 33 34 32 32 32 26 29 29 27 27 27 26 29 27 22 24 26 26 26 28 27 27 25 27

GFSSW_sfc_30mbdewp_084.txt.gz
Dewpoint
49 48 48 48 49 49 49 49 50 48 49 49 49 49 51 52 52 50 22 25 43 48 37 35 30 26 23 24 24 23 20 18 19 17 17 18 19 36 42 44 47 49 48 49 57
50 50 49 49 50 50 50 49 49 49 48 48 49 50 51 51 50 42 38 43 47 49 33 31 31 27 27 25 24 21 20 19 20 19 18 19 20 21 38 42 44 46 50 51 60
48 48 48 48 49 50 51 49 49 48 48 48 49 50 51 52 37 11 49 47 49 47 30 31 31 29 27 26 24 22 20 21 20 20 20 21 22 35 37 37 42 42 46 52 58
47 47 47 47 48 48 50 51 50 48 48 48 47 49 51 51 -8 32 51 51 54 46 27 25 27 27 25 22 23 20 20 20 19 21 25 25 30 38 39 38 50 47 49 57 56
48 47 47 47 47 47 49 50 50 49 48 47 47 48 49 34 25 40 49 47 42 30 24 22 25 26 24 24 22 20 20 22 23 25 25 28 28 34 41 46 56 57 57 56 55
49 49 48 47 47 47 48 48 48 48 47 47 47 48 47 7 28 38 40 47 36 28 24 22 20 25 24 25 23 22 23 25 25 24 25 27 32 41 36 51 51 53 55 55 55
49 50 49 48 47 47 47 47 47 47 46 46 47 47 44 11 33 38 39 35 36 35 27 28 27 27 28 26 27 26 24 24 21 23 24 29 27 33 40 52 50 49 53 53 54
46 47 49 49 49 48 48 47 46 46 47 46 47 46 33 40 43 44 43 38 38 35 34 35 33 28 26 28 27 25 24 19 17 24 26 27 22 25 45 47 49 49 53 52 53
45 47 48 48 49 49 48 46 46 47 48 47 47 45 20 39 38 36 41 36 36 33 35 35 34 31 29 27 24 25 17 18 20 25 26 27 23 27 47 47 44 46 52 50 51
45 46 47 48 48 49 48 46 45 48 47 48 47 37 24 8 36 37 41 38 29 29 30 34 33 30 29 26 15 19 21 22 22 25 25 25 25 25 41 43 43 47 51 49 49
45 45 46 47 47 49 46 40 37 36 39 39 37 37 37 42 42 38 36 33 29 28 24 28 26 25 27 27 24 23 23 22 23 24 23 22 23 24 35 43 43 47 49 49 49
44 44 46 46 46 47 42 39 38 39 35 38 39 39 39 40 37 31 38 31 26 22 26 27 24 25 27 27 25 25 23 22 23 23 24 23 23 25 29 37 43 45 48 48 48
44 43 45 47 47 41 38 40 39 38 37 36 38 38 36 38 32 28 29 29 26 24 25 22 24 26 27 26 25 25 23 23 19 24 25 23 22 23 28 40 43 45 47 48 47
44 44 46 47 37 41 35 39 40 40 32 23 32 32 33 35 27 31 30 23 25 24 24 24 24 25 27 25 25 22 26 24 24 23 21 24 20 22 23 25 39 43 46 47 48
44 44 46 47 43 39 35 42 41 44 -5 6 26 32 31 28 19 28 32 28 18 22 22 21 20 22 22 26 26 23 25 25 25 24 24 23 23 21 25 25 26 37 44 47 48
43 44 46 43 43 42 43 42 44 30 7 10 24 25 26 26 23 24 28 27 26 22 22 20 23 21 20 25 27 28 26 26 27 25 22 23 21 19 21 24 28 32 41 46 48
44 45 45 44 37 42 42 39 29 20 19 18 19 17 17 23 23 25 24 21 17 17 16 20 19 20 24 22 26 27 24 20 20 22 20 22 22 20 23 25 27 28 35 44 47
44 45 44 45 44 43 38 30 21 20 25 23 19 18 18 18 26 28 22 19 19 23 16 7 7 19 19 21 22 25 24 21 18 18 19 27 23 23 28 29 28 29 35 44 47
43 43 42 43 44 42 34 18 18 20 22 19 15 17 20 17 21 23 28 27 29 24 22 20 17 21 19 19 20 21 24 24 23 28 24 24 27 28 28 24 25 28 39 43 46
41 38 37 43 44 40 29 16 12 24 24 21 12 17 13 12 6 9 24 29 31 34 35 23 22 22 21 19 20 19 26 22 25 18 18 23 25 20 25 25 23 28 34 39 45
39 34 35 43 43 35 23 20 21 20 18 18 21 16 19 15 17 17 14 26 33 31 35 36 24 19 19 20 17 20 19 23 24 23 18 18 21 27 24 24 26 23 30 36 42
36 29 40 43 31 29 25 24 23 20 24 21 24 22 18 20 18 13 21 23 28 35 31 37 35 28 20 19 20 21 19 20 19 22 25 21 19 26 25 27 27 23 23 34 41
32 32 42 39 25 24 27 25 26 23 23 24 24 24 23 19 13 19 19 26 35 36 36 33 33 28 23 22 22 21 22 23 26 26 22 20 20 26 25 27 27 27 27 25 34
33 27 33 37 32 24 23 24 25 28 24 22 26 26 25 24 26 24 24 24 26 22 36 35 31 30 27 29 31 28 20 21 23 21 21 22 23 25 26 26 27 26 25 23 25
33 29 32 25 29 29 24 23 23 25 27 25 22 23 23 21 19 18 20 20 21 22 36 35 29 31 32 35 35 33 29 21 21 22 21 22 23 25 26 26 27 28 29 28 25
30 30 33 32 29 31 28 25 23 25 26 26 24 26 24 22 21 20 23 23 22 35 34 37 29 32 28 27 31 30 29 24 25 27 27 25 24 26 27 27 27 27 28 28 27
34 37 33 29 27 29 27 27 27 25 27 27 27 25 26 27 27 27 27 27 26 24 31 33 32 29 22 27 30 27 24 26 27 29 27 24 26 26 25 26 27 27 27 27 28

GFSSW_sfc_30mbdewp_087.txt.gz
Dewpoint
51 50 50 50 50 51 51 51 50 49 48 47 47 48 48 51 51 49 28 24 44 49 42 36 31 29 24 25 25 24 21 19 18 18 18 20 19 30 42 41 47 48 48 49 58
48 48 48 48 49 50 50 51 51 50 49 49 49 49 49 50 49 40 39 44 51 45 30 26 24 25 23 24 24 22 20 19 21 20 19 20 21 22 32 38 40 45 50 53 59
46 46 46 47 47 48 49 50 50 50 49 49 49 49 50 51 31 8 54 50 52 45 32 32 31 29 27 26 24 22 18 22 21 21 20 21 23 24 33 30 37 38 45 51 58
48 47 47 47 47 47 48 49 49 48 48 48 48 48 49 50 -8 27 52 55 53 43 28 30 29 28 26 25 25 21 22 22 21 20 24 24 28 35 37 32 48 45 47 53 56
50 49 49 47 47 47 48 48 48 46 46 46 47 48 48 27 15 36 42 47 45 34 26 24 25 27 24 24 23 21 21 21 21 21 25 26 25 28 33 46 52 52 53 55 56
48 49 49 48 47 48 48 48 48 47 46 46 46 47 47 5 15 38 38 43 35 27 24 23 22 26 25 25 23 24 22 22 26 25 25 23 27 40 38 50 55 55 55 55 55
46 47 47 46 46 47 49 49 48 47 47 47 47 46 42 14 29 36 39 33 37 34 26 25 26 25 26 24 27 26 25 25 24 22 22 27 26 30 38 52 50 52 52 52 53
45 46 47 48 48 48 48 48 48 48 49 49 47 44 29 38 42 42 42 37 38 35 34 35 32 28 26 28 28 26 25 19 18 24 27 27 23 26 40 50 49 50 51 51 54
44 46 47 47 48 47 47 47 48 48 48 48 45 43 17 32 34 36 40 32 36 34 31 35 33 31 29 25 21 24 17 18 18 26 28 27 24 26 44 48 48 50 52 52 52
44 45 46 47 47 47 46 46 46 48 47 48 45 36 25 13 38 40 41 40 30 33 32 32 33 31 30 24 13 14 21 23 20 24 24 23 24 25 32 41 42 45 49 50 50
44 45 45 46 46 46 46 40 36 34 37 36 34 35 34 39 41 40 37 34 30 27 24 32 27 28 27 28 22 21 21 21 23 25 23 20 22 24 27 39 42 45 49 50 50
44 43 44 46 47 46 40 38 36 36 34 37 37 36 36 36 34 32 37 32 27 21 26 27 26 27 29 29 27 24 22 22 23 24 24 23 22 25 29 32 36 42 47 49 49
42 42 44 45 46 42 39 39 40 39 36 35 37 36 36 36 30 30 27 31 26 24 23 21 24 27 26 27 26 26 24 23 21 24 24 24 23 24 27 36 40 44 45 48 48
44 44 44 46 38 42 35 41 42 40 31 24 32 33 36 36 29 33 28 18 27 25 24 22 21 27 25 25 26 22 26 25 24 22 13 25 20 23 24 25 33 38 45 46 48
43 43 43 46 42 37 38 42 42 42 -3 9 27 32 32 31 25 27 30 26 14 23 24 23 22 22 22 26 27 22 25 25 25 23 23 23 23 22 24 23 25 30 41 45 48
42 43 44 43 42 42 43 42 44 30 6 12 26 26 27 28 25 26 30 29 27 17 21 22 23 23 23 23 27 28 25 27 28 26 22 24 23 21 20 22 26 31 38 44 47
43 43 42 44 38 43 42 38 28 19 17 19 19 18 19 20 27 28 26 25 20 16 14 20 20 22 23 22 27 26 25 20 22 22 19 23 23 22 24 25 26 26 31 43 46
42 43 42 44 44 43 39 29 18 15 23 23 18 18 20 15 20 29 22 20 26 22 19 9 5 19 21 21 21 26 25 19 12 18 19 26 21 21 27 30 31 31 31 40 46
40 40 41 41 44 43 34 19 13 20 22 20 16 17 20 14 16 17 28 28 30 33 21 22 12 20 20 20 22 25 23 23 22 28 24 24 27 28 27 27 26 26 35 41 45
39 38 36 42 44 40 28 11 14 23 21 22 12 17 12 13 9 8 23 30 30 30 36 31 21 23 22 20 21 22 27 23 23 14 15 21 24 20 24 24 26 26 30 40 45
38 32 34 43 42 34 22 19 20 20 23 15 21 17 19 16 18 14 23 26 28 26 36 33 30 23 23 19 18 19 18 23 25 23 16 16 21 28 24 24 25 28 27 35 44
34 27 39 42 29 28 24 22 22 22 23 23 24 21 16 15 16 9 10 18 20 35 30 34 35 30 27 28 26 20 20 19 17 16 27 22 20 26 28 28 28 27 28 28 38
31 29 40 39 23 23 24 23 24 21 20 24 24 26 25 15 2 16 18 22 28 28 22 24 29 19 22 23 28 28 28 24 23 23 19 19 21 26 26 27 28 27 28 30 30
30 24 31 36 32 25 23 24 24 27 23 22 24 26 26 24 24 23 24 23 26 21 25 33 29 16 13 28 31 26 29 31 33 23 20 21 20 24 26 25 25 28 29 27 26
32 28 28 25 28 28 24 23 21 21 26 26 23 22 24 22 21 20 19 19 21 29 27 32 28 29 28 28 28 30 28 30 31 31 23 20 21 23 24 26 26 29 29 28 28
29 26 32 29 27 28 29 24 21 22 25 25 22 23 21 21 21 17 21 24 22 29 34 36 29 31 28 30 29 25 26 26 31 31 30 24 22 26 27 29 28 28 29 29 29
34 34 29 26 24 27 26 25 26 23 25 25 26 25 25 26 26 27 26 26 27 27 26 26 29 28 23 27 26 21 24 29 30 29 27 24 26 26 26 26 27 28 29 29 29

GFSSW_sfc_30mbdewp_090.txt.gz
Dewpoint
48 48 48 48 48 49 49 50 50 49 50 50 50 49 50 50 49 37 24 29 37 49 47 41 32 30 29 25 26 25 14 9 9 11 12 19 19 22 31 32 34 38 41 43 53
46 46 46 47 47 48 48 48 49 49 48 49 49 50 50 50 43 29 31 41 48 52 36 32 24 27 22 20 22 18 13 10 13 13 17 19 20 22 23 21 26 32 43 48 54
48 48 48 48 47 47 48 48 48 47 47 47 47 48 49 48 29 5 52 53 50 48 31 25 22 21 15 17 17 16 13 10 16 18 19 19 20 22 23 21 24 26 33 47 52
49 49 49 49 48 48 49 49 48 47 46 46 46 46 48 43 4 32 49 51 52 41 31 29 25 21 19 19 18 17 17 13 16 19 20 19 21 22 23 23 28 40 43 46 52
47 47 47 46 45 46 48 49 49 48 47 47 47 47 41 26 6 28 42 50 47 39 29 29 28 24 21 19 20 22 17 17 17 20 19 21 22 21 20 21 28 44 45 47 52
47 47 46 46 46 46 47 48 48 48 48 48 48 47 38 21 4 28 34 40 32 36 33 28 24 23 20 19 19 19 20 18 18 19 20 21 19 23 21 36 41 48 47 51 52
46 46 46 46 46 46 46 47 46 47 48 50 49 45 37 17 19 32 34 31 36 28 27 28 26 21 21 21 22 22 20 17 17 18 17 17 16 19 29 42 44 48 49 49 49
45 46 47 47 47 47 47 46 46 47 49 49 48 43 31 24 28 31 23 20 23 29 32 27 27 26 26 25 24 21 21 17 17 18 21 25 16 25 34 37 39 45 47 48 50
44 45 46 47 46 47 47 45 46 48 48 47 43 40 22 25 25 28 27 21 23 20 34 33 31 25 25 22 18 18 15 16 16 18 16 23 17 23 34 37 36 41 45 47 48
44 44 45 46 46 46 46 45 44 47 46 46 42 35 25 8 32 38 40 38 33 22 28 31 29 26 25 20 15 16 16 16 15 16 22 19 21 22 23 32 34 37 42 46 47
42 43 44 45 45 46 43 37 25 31 31 27 23 27 21 31 33 34 36 37 31 23 11 26 23 22 20 23 20 17 15 14 13 19 21 16 15 20 22 24 31 36 39 44 46
42 42 43 44 45 45 41 35 33 36 31 31 31 29 28 30 30 24 35 32 29 22 18 26 22 19 22 23 24 19 16 15 16 18 21 17 16 20 22 23 28 32 38 42 46
43 42 43 44 43 42 37 37 38 38 32 27 32 32 32 33 26 19 26 31 27 23 18 20 19 21 23 25 23 20 18 18 17 18 20 17 16 16 20 26 30 34 35 40 45
43 42 44 42 38 38 32 40 39 42 30 18 29 31 35 32 27 26 22 19 26 21 21 18 16 22 23 21 21 16 18 20 21 19 14 21 11 15 21 21 22 26 37 39 44
41 40 42 43 37 33 35 39 39 43 -1 12 27 32 32 30 26 28 30 21 9 23 24 18 21 18 22 22 22 20 18 20 21 19 18 16 12 13 21 21 20 25 29 39 44
41 41 43 35 39 38 41 41 43 25 3 10 26 26 25 28 26 28 27 26 17 13 22 21 23 22 20 22 25 27 24 24 24 22 18 18 12 13 17 18 20 26 31 37 43
42 42 40 37 32 41 41 34 22 3 7 13 19 18 19 23 25 25 25 24 18 10 5 11 14 19 22 20 21 24 19 16 18 18 16 15 16 15 21 22 23 22 26 37 42
43 42 38 36 38 41 37 24 9 -1 9 22 18 17 18 15 19 27 23 19 25 22 18 5 3 7 14 14 18 22 20 18 15 14 14 18 17 17 23 23 26 30 31 34 41
41 38 37 35 39 40 32 13 -1 5 15 20 15 14 19 13 12 21 27 25 24 24 17 17 5 19 14 16 14 19 20 21 20 18 19 18 22 24 25 24 24 26 27 32 39
36 34 30 36 41 38 27 11 5 21 20 18 8 14 15 12 9 8 25 29 24 20 33 24 20 21 22 21 17 15 19 19 20 15 13 15 19 18 21 21 22 23 26 32 40
36 30 30 39 41 32 20 14 10 14 20 16 18 14 14 12 10 3 17 25 21 23 27 25 28 21 24 20 17 18 19 21 20 19 14 13 14 22 23 22 22 23 29 32 40
35 27 38 40 29 26 20 16 18 16 18 18 19 15 13 11 10 6 1 10 17 13 16 20 28 24 26 26 27 24 19 19 18 17 21 19 17 23 27 27 28 27 29 29 37
32 27 39 38 22 20 20 21 19 16 14 17 18 22 19 9 3 9 13 23 26 23 21 21 25 19 18 24 29 27 29 28 28 25 19 19 19 22 22 24 25 24 28 29 33
32 24 27 34 30 22 19 18 17 21 19 15 16 20 16 12 11 4 18 25 27 24 25 22 19 12 8 15 23 22 24 24 25 26 22 21 19 20 20 23 25 24 27 28 31
32 25 24 22 26 27 24 21 17 21 22 22 19 17 17 16 18 17 16 21 21 29 28 22 14 18 21 21 21 20 19 22 23 23 24 25 24 21 21 22 22 21 24 28 28
30 27 27 21 21 22 25 24 18 16 17 19 20 19 18 19 18 16 17 18 19 24 31 33 24 25 24 24 22 18 16 16 19 21 21 22 25 25 25 22 22 24 25 27 29
36 32 27 19 20 24 22 21 22 19 19 20 21 21 20 21 24 25 26 26 26 26 27 26 28 26 16 21 22 18 21 19 16 18 23 25 25 26 24 23 22 25 27 28 28

GFSSW_sfc_30mbdewp_093.txt.gz
Dewpoint
47 47 47 47 48 48 48 48 48 48 48 48 48 47 48 50 48 30 19 24 36 45 45 35 35 27 25 24 23 21 13 11 10 9 9 11 15 16 19 20 20 21 30 35 42
49 49 49 49 49 49 48 48 49 48 47 47 47 47 48 49 40 20 36 41 38 48 37 33 31 24 22 22 21 18 13 11 12 11 10 12 14 15 16 17 17 20 28 38 44
46 47 47 47 46 46 47 49 49 48 48 48 48 48 48 47 28 18 48 48 54 49 36 30 28 22 22 19 17 17 14 12 12 11 13 13 14 14 16 17 19 22 27 33 44
46 46 46 46 46 46 47 48 47 46 46 47 48 49 49 41 10 25 46 49 50 45 34 28 24 20 19 17 16 14 14 13 14 11 12 15 15 14 16 17 20 21 34 39 42
45 46 46 45 45 46 47 48 47 46 46 47 48 49 42 21 22 26 37 46 43 39 32 26 25 22 18 18 16 16 16 18 15 16 14 14 12 13 14 17 20 27 39 39 42
45 46 45 45 45 46 46 47 47 47 46 47 49 49 41 19 11 9 19 22 26 35 33 28 27 27 23 20 18 18 18 19 19 17 16 15 14 14 13 16 25 36 40 41 46
44 45 45 45 45 45 46 46 46 46 46 48 50 46 35 20 10 18 26 21 23 23 29 29 28 23 22 21 20 20 19 19 19 18 16 15 13 11 12 21 30 35 43 42 45
44 45 46 47 46 46 46 46 46 46 48 49 49 42 29 16 21 19 20 16 22 27 26 28 28 27 24 23 22 21 20 17 18 17 16 15 11 13 21 27 27 36 41 43 43
44 45 44 46 45 46 45 44 45 47 48 48 45 39 25 24 17 15 20 9 8 10 12 18 25 25 25 22 21 20 16 17 17 17 16 17 15 16 28 29 27 32 36 40 42
44 44 44 44 44 45 44 43 41 46 47 43 40 35 31 6 22 28 35 33 22 18 8 20 19 17 18 18 17 17 16 17 18 17 17 15 13 17 16 22 25 26 30 38 42
45 43 44 44 44 44 40 35 28 34 36 25 22 24 20 16 25 19 28 36 35 25 11 16 15 16 16 18 19 19 17 17 18 17 16 17 15 13 14 17 20 23 27 34 41
44 42 42 43 43 42 40 31 30 34 25 24 21 21 20 19 19 22 28 29 29 24 16 6 13 12 19 20 20 20 19 19 18 17 17 19 17 13 13 13 19 21 27 32 39
44 43 42 42 40 38 32 34 38 35 26 17 20 24 25 27 22 18 16 28 24 23 19 13 9 18 15 19 20 21 21 21 18 18 19 19 17 15 14 14 17 22 25 27 37
44 42 40 40 34 35 30 37 37 37 25 8 24 27 30 28 24 24 18 18 19 19 18 15 14 15 18 17 19 21 22 19 18 18 17 18 14 13 14 16 21 23 25 27 33
44 42 41 39 30 30 33 35 35 41 -3 9 20 30 30 27 26 22 25 14 13 15 18 14 16 14 15 18 19 21 21 19 19 18 19 16 15 15 14 13 16 19 21 26 33
44 42 41 33 35 32 35 38 37 27 -1 5 20 24 25 28 25 26 27 26 17 12 13 18 17 18 14 16 18 21 21 21 21 20 17 19 17 16 12 16 18 22 25 27 34
43 42 40 32 29 38 37 34 19 4 -3 -3 13 19 15 21 23 24 25 22 16 10 5 13 18 20 20 14 21 22 21 20 25 25 18 19 18 18 17 17 18 20 22 31 35
42 41 38 34 32 33 34 24 10 -2 2 16 18 17 15 19 22 25 23 20 21 13 11 3 4 14 17 17 17 19 21 17 17 21 23 20 15 15 18 18 22 22 23 30 36
40 37 35 35 35 34 28 16 5 1 -0 9 14 13 15 16 17 25 22 20 23 22 17 11 2 10 5 8 14 16 19 20 18 21 21 21 18 22 21 23 22 21 26 29 35
36 35 32 33 35 32 25 16 5 4 18 15 13 10 6 15 14 14 24 25 21 23 28 24 20 18 7 13 13 10 13 16 16 17 18 18 16 16 20 22 21 21 21 24 31
37 32 29 32 35 31 21 14 8 8 13 15 9 11 12 14 12 11 20 26 23 21 25 23 25 20 22 18 13 12 11 13 16 16 14 17 16 20 22 22 22 22 25 27 31
35 27 35 34 27 25 22 15 13 8 11 17 17 17 15 12 10 8 3 12 17 15 14 22 25 21 20 22 25 25 14 13 17 14 16 16 18 24 24 24 28 27 26 28 34
33 26 37 36 22 19 19 16 14 12 10 9 11 15 15 15 7 6 7 17 24 18 18 21 20 18 16 19 24 24 22 21 20 22 19 18 21 21 22 21 22 24 24 26 30
34 25 26 33 27 22 18 14 14 14 13 11 9 10 14 12 10 5 5 17 28 24 28 24 16 17 10 15 19 23 24 25 23 22 21 18 17 17 19 20 22 23 25 26 29
34 26 23 23 24 23 23 23 12 14 19 15 12 11 9 5 3 4 5 8 18 27 24 24 13 13 13 12 15 16 17 18 18 21 21 21 21 22 23 22 22 23 24 23 24
30 25 24 21 20 20 20 20 22 15 11 19 15 11 12 8 10 10 12 13 12 16 21 29 20 17 13 17 16 12 10 10 9 13 17 19 19 20 20 22 23 23 22 22 23
36 29 30 24 18 19 20 16 17 19 18 17 19 15 16 15 15 19 21 24 21 22 26 26 23 23 15 13 15 16 16 14 11 9 10 14 17 19 24 24 23 23 22 20 22

GFSSW_sfc_30mbdewp_096.txt.gz
Dewpoint
48 48 49 48 48 48 48 48 49 47 48 48 48 48 49 50 49 35 20 24 34 42 44 37 36 31 27 24 23 22 19 17 13 11 11 12 11 15 16 15 19 18 20 26 44
45 46 46 46 47 47 47 47 48 47 46 47 48 49 50 51 43 33 30 36 41 42 28 27 29 29 25 22 22 21 19 17 14 12 12 12 11 13 13 14 15 17 24 31 36
45 46 46 46 46 46 47 49 49 47 46 46 47 49 50 50 35 30 48 48 46 42 25 23 28 29 24 21 20 20 19 19 16 15 14 11 12 13 13 12 15 18 22 25 34
44 45 45 45 45 46 47 48 47 45 45 45 46 48 50 45 18 35 48 46 51 42 33 29 27 27 22 20 21 17 16 17 16 14 14 13 12 14 13 13 16 18 23 32 35
44 44 44 44 45 45 46 46 47 45 45 45 46 48 45 25 23 16 43 45 41 41 33 30 27 26 22 20 20 17 16 16 16 15 18 16 15 14 13 12 13 17 26 34 36
45 46 45 44 44 45 45 46 46 46 45 45 47 50 43 25 18 10 14 17 19 30 30 30 26 25 23 21 19 18 18 17 17 18 19 18 17 16 16 14 14 17 29 36 39
46 46 46 44 44 44 45 45 45 45 45 46 50 48 37 24 16 18 17 22 17 18 21 29 27 26 26 23 25 23 20 20 19 19 19 19 17 16 16 16 13 20 28 37 37
47 46 46 46 45 45 44 43 44 44 44 49 49 43 32 23 23 18 16 15 16 19 23 23 28 28 27 26 23 21 21 20 20 20 20 19 16 17 17 14 15 26 30 37 40
47 46 46 46 46 45 43 43 43 43 46 49 46 42 31 25 21 18 14 10 9 14 17 22 24 27 26 25 23 22 19 20 20 20 19 17 14 15 20 22 24 25 28 35 39
46 46 46 45 45 44 43 42 39 42 44 45 42 35 34 18 13 22 23 32 20 8 8 7 7 16 21 21 20 20 19 20 19 19 19 17 16 16 15 24 26 25 26 29 38
45 46 45 44 44 43 39 34 28 34 41 35 33 32 28 19 9 16 18 25 32 22 15 10 4 8 14 17 18 20 19 19 19 19 19 18 17 17 18 16 18 19 24 26 35
45 45 44 43 43 41 36 35 31 33 28 25 20 19 16 13 11 12 18 22 30 26 24 14 6 10 10 13 17 17 18 19 21 20 20 19 17 19 20 18 15 13 19 26 34
43 44 44 43 42 36 36 29 35 34 26 17 14 15 16 18 15 15 14 16 22 24 23 14 9 9 11 9 12 18 19 21 23 23 23 21 19 19 20 20 19 17 19 22 33
42 44 44 42 36 33 31 35 33 35 25 4 16 20 21 25 20 22 19 14 14 18 16 18 17 15 7 13 10 12 19 21 24 24 19 21 17 20 19 17 17 17 18 23 25
42 44 44 42 32 29 30 35 34 36 3 7 20 25 26 22 24 20 21 17 10 16 16 16 16 15 13 11 17 15 16 19 24 25 23 22 20 19 19 17 16 19 23 26 27
41 43 43 37 35 34 31 35 36 25 6 -4 18 21 22 26 23 24 26 19 14 10 10 12 15 14 14 15 13 16 17 20 21 21 21 23 23 19 18 18 17 16 21 24 29
40 40 41 36 32 34 36 32 18 8 0 -9 7 16 19 18 23 18 23 23 17 12 10 9 13 14 16 17 16 15 17 18 19 21 25 25 22 21 21 20 18 21 24 28 33
41 41 39 36 34 36 32 25 13 6 6 -1 12 14 14 12 18 20 20 19 21 17 12 7 5 4 16 18 16 13 16 18 16 21 21 30 23 21 21 21 19 20 21 30 34
40 37 38 36 38 37 30 19 10 9 7 9 10 5 8 12 18 20 22 19 18 21 16 18 13 4 11 18 17 15 18 19 18 20 29 28 28 28 21 22 22 21 23 30 35
37 36 35 36 39 35 29 21 12 11 9 12 10 11 7 8 14 14 19 20 25 22 25 28 22 9 10 12 15 15 18 17 19 17 16 20 27 24 23 22 23 21 22 28 34
38 34 31 37 38 31 22 18 15 14 12 10 12 8 8 15 24 13 12 28 25 22 21 23 23 24 8 6 6 7 7 9 12 16 14 16 22 30 29 27 27 27 26 26 29
36 30 34 38 31 24 22 19 18 13 7 8 11 13 15 17 13 13 11 25 18 17 13 23 22 23 22 19 22 24 11 11 11 14 16 16 19 32 28 27 26 26 26 28 30
32 27 36 36 26 22 22 18 16 13 9 7 7 9 8 10 13 12 9 20 22 20 24 24 19 18 17 17 22 22 23 18 13 14 16 18 21 27 27 22 22 23 24 27 30
34 26 26 37 29 23 27 20 13 12 12 13 8 7 6 10 12 12 6 14 24 22 27 26 14 15 16 16 17 20 21 24 23 23 19 20 19 26 33 24 22 23 25 25 26
34 26 26 28 27 24 21 25 21 14 13 12 7 9 7 11 9 9 8 5 11 24 21 23 11 10 10 12 11 11 16 19 20 23 21 22 20 21 22 21 21 23 26 25 24
31 25 21 20 21 27 22 18 17 22 14 15 14 12 6 6 7 6 3 8 10 12 18 23 20 19 15 11 8 10 11 12 12 13 14 17 19 21 21 20 22 23 23 23 24
34 30 28 25 29 23 21 21 15 15 20 23 17 20 17 13 16 10 20 22 23 22 23 24 22 20 17 17 12 11 11 9 7 6 7 8 13 16 19 20 22 27 29 27 25

GFSSW_sfc_30mbdewp_102.txt.gz
Dewpoint
44 44 45 46 46 46 46 47 47 46 46 46 46 46 46 49 50 45 26 19 34 40 47 41 41 38 38 33 30 26 23 21 19 18 18 21 18 16 16 15 17 17 19 25 54
44 44 44 44 45 45 45 45 46 45 45 45 46 46 47 50 48 37 34 36 44 49 36 33 32 36 34 29 29 25 21 21 22 20 20 22 21 19 14 13 14 17 49 54 56
45 45 44 44 44 45 45 46 46 44 44 45 46 46 47 50 39 22 43 43 48 52 34 30 27 33 32 30 27 22 22 22 22 22 23 22 21 18 15 15 15 15 43 55 55
47 46 45 45 45 45 46 46 45 43 43 43 44 45 49 48 -15 31 45 48 50 46 29 28 23 20 21 28 28 25 24 22 22 22 22 21 21 18 17 16 18 17 24 53 54
48 48 46 45 44 45 46 46 46 44 43 43 44 45 47 31 17 28 37 49 52 43 35 33 25 21 20 24 27 26 26 24 22 22 21 20 18 17 17 19 21 20 19 45 49
47 47 47 45 45 45 46 46 45 44 43 42 43 45 46 20 19 24 23 26 37 40 35 35 28 29 28 28 26 26 26 24 23 21 21 21 21 21 21 21 20 20 20 22 38
45 46 47 46 46 46 46 46 44 43 43 42 43 46 42 20 19 21 26 24 24 26 20 22 31 30 29 27 27 26 24 25 24 24 22 22 21 20 21 22 21 21 21 20 35
43 45 47 48 48 47 46 44 43 43 43 43 44 47 37 39 36 33 31 28 26 20 16 15 17 22 25 28 27 26 26 23 23 23 23 22 20 21 23 22 22 22 22 21 34
45 44 45 47 48 46 46 44 43 43 42 42 46 45 33 41 38 36 35 28 22 17 11 12 16 20 24 23 23 26 22 23 24 24 23 22 21 22 23 22 22 22 22 24 36
43 43 44 44 46 46 45 43 41 42 42 42 44 40 38 24 29 31 28 28 22 25 13 10 14 12 23 23 20 22 23 23 23 23 23 22 22 22 22 22 20 22 22 26 41
43 42 43 44 45 45 43 38 33 32 33 34 37 37 34 34 37 30 26 20 16 20 26 14 10 10 10 22 23 24 24 23 24 23 20 19 20 22 26 26 23 21 24 26 41
43 42 43 44 44 44 40 33 34 34 31 32 32 32 32 34 31 28 27 19 13 14 21 22 10 10 8 8 16 23 23 22 22 22 20 19 19 23 26 26 24 22 21 26 45
42 42 43 44 43 39 35 30 35 37 31 28 24 23 24 25 21 17 20 12 7 14 20 26 20 12 8 7 7 11 17 19 19 19 18 18 20 24 26 27 28 26 24 31 46
41 42 43 43 37 38 32 34 38 38 27 21 23 18 18 19 17 17 12 9 11 4 15 28 29 27 17 8 8 5 8 10 12 14 13 26 20 23 25 27 27 26 26 30 46
41 42 42 42 39 35 33 38 38 37 13 4 15 18 17 15 17 21 13 10 5 12 14 16 25 28 26 21 11 8 10 13 12 11 15 19 20 23 26 25 26 26 26 28 47
41 41 42 40 38 39 39 38 37 23 11 12 15 17 14 13 18 23 19 16 15 14 13 14 17 17 22 22 18 11 11 13 14 16 16 23 24 22 25 25 25 25 26 26 44
40 41 41 41 34 38 40 36 22 15 9 -3 8 13 13 18 17 21 21 17 16 13 12 13 14 14 13 10 13 16 15 14 13 16 16 20 20 20 24 26 26 26 27 27 34
41 41 40 40 40 40 37 29 16 6 9 9 16 13 11 22 24 25 24 18 19 17 15 11 9 11 11 10 11 13 15 14 11 16 16 21 20 25 32 33 32 30 29 37 47
40 39 37 38 40 41 33 19 20 14 17 17 15 10 19 27 29 25 29 24 20 18 16 19 12 22 11 11 12 12 16 19 15 25 22 23 26 29 33 34 34 30 30 38 48
37 35 35 36 40 37 29 20 19 19 17 16 15 13 14 18 19 26 29 33 31 30 31 23 20 24 27 25 13 15 19 16 18 12 13 20 21 23 31 34 34 33 33 39 46
36 30 31 39 39 32 22 21 20 18 17 18 19 18 15 15 11 26 28 29 32 32 30 24 25 24 26 24 15 11 13 19 20 20 14 15 17 33 33 35 35 38 37 36 36
33 24 32 40 28 29 26 27 21 19 21 20 20 19 13 11 11 24 28 30 35 34 32 28 24 23 23 29 30 27 19 20 18 20 22 21 20 33 32 34 39 38 39 38 34
30 29 34 34 19 25 26 23 24 24 25 19 19 18 15 11 10 18 29 29 32 32 32 28 27 20 21 25 29 21 25 28 25 22 22 17 18 35 37 35 34 36 40 39 42
31 23 27 34 33 28 27 25 23 28 27 24 21 18 13 10 13 13 16 23 23 28 29 29 27 16 16 26 28 18 17 28 29 21 21 18 16 34 36 35 32 36 40 41 43
29 25 27 20 25 26 29 26 25 24 29 28 22 22 18 8 8 7 12 14 14 23 28 26 21 23 21 20 19 18 13 17 25 28 23 24 26 31 32 35 38 40 41 41 45
27 28 30 26 26 23 23 22 26 27 27 27 24 23 24 21 21 22 25 23 18 19 23 28 21 24 21 21 22 19 19 16 19 25 24 17 10 26 31 38 37 39 39 41 44
33 33 29 25 23 21 20 21 21 26 27 26 26 25 23 26 30 29 31 29 28 21 21 27 25 23 19 24 21 6 17 16 13 20 23 16 32 29 37 37 37 38 39 41 42

GFSSW_sfc_30mbdewp_105.txt.gz
Dewpoint
45 45 45 45 45 45 45 45 46 45 45 45 44 45 46 48 49 44 24 16 33 41 44 44 41 39 37 34 29 26 25 21 21 19 18 21 20 21 19 15 16 18 29 35 53
46 46 45 45 46 46 46 45 46 45 45 44 44 46 47 48 47 37 32 37 41 48 35 34 34 36 32 32 29 26 23 23 23 21 19 21 22 22 20 19 16 15 46 53 56
46 46 46 45 45 45 46 47 46 44 44 44 44 45 47 49 36 7 47 48 45 52 36 34 30 35 31 30 26 25 24 24 22 22 23 22 22 23 21 19 18 16 26 54 56
47 46 45 44 44 44 47 47 46 44 43 43 42 44 47 47 -17 23 50 47 48 53 38 27 24 22 23 26 29 23 23 24 24 23 22 21 22 21 20 20 20 19 29 53 54
45 45 45 44 44 44 46 47 46 45 44 43 42 44 46 30 10 19 28 45 51 40 30 28 23 20 17 21 26 27 26 25 26 26 24 23 21 21 20 20 19 20 22 51 53
44 44 45 44 43 44 46 47 47 46 45 43 42 43 45 13 14 20 23 24 33 40 37 34 29 25 22 22 21 26 27 27 27 27 26 23 22 21 22 22 22 22 22 36 52
44 45 45 44 42 43 45 46 46 46 45 44 44 43 40 16 21 27 32 26 21 27 31 34 33 31 29 28 29 27 25 26 25 25 25 24 22 21 22 23 22 23 23 23 37
43 44 45 45 44 45 45 46 45 45 45 45 44 43 33 37 39 39 36 30 29 28 26 23 21 20 21 23 25 24 25 24 25 25 24 22 20 22 23 23 23 24 24 24 23
43 44 45 45 45 45 44 45 44 45 46 43 44 43 23 37 37 38 38 31 26 24 21 16 15 16 18 23 21 23 21 23 24 25 24 23 21 22 24 24 23 25 25 22 23
43 43 44 44 45 44 44 42 42 44 41 43 45 38 34 22 34 36 32 32 26 21 22 11 10 11 21 22 18 20 23 24 23 24 24 23 22 23 24 23 24 26 24 23 26
42 42 42 43 43 43 42 36 33 31 34 30 31 37 35 36 33 34 33 30 22 20 18 15 6 7 11 20 19 20 23 22 24 24 23 22 21 21 21 21 24 25 25 25 26
42 42 42 43 42 43 37 31 31 34 32 34 32 31 31 32 27 24 27 23 16 11 19 24 17 10 12 14 19 22 22 23 24 24 23 23 22 21 20 23 25 26 27 26 36
42 42 43 43 42 39 36 32 37 38 31 29 28 26 26 27 25 18 22 20 17 12 15 16 22 22 12 10 9 10 16 20 21 22 21 19 17 17 20 25 27 29 29 26 32
41 41 42 43 33 37 30 37 38 38 26 21 25 21 19 22 16 18 17 11 8 6 9 15 18 22 15 8 8 5 7 10 13 17 14 18 11 16 22 22 24 26 28 27 35
41 41 41 41 39 35 33 39 38 37 11 8 16 21 17 14 9 17 13 12 -1 4 7 -1 25 23 22 24 10 7 9 8 9 9 10 10 17 18 23 25 24 24 26 27 36
41 41 41 40 38 38 40 37 35 22 11 10 12 14 16 17 14 20 11 12 10 3 13 1 17 25 27 26 23 13 11 11 13 13 10 11 14 13 16 21 25 26 26 27 31
41 41 40 40 34 38 39 35 19 13 10 5 7 12 15 23 25 13 17 12 13 8 6 10 12 14 15 13 14 16 15 12 14 15 11 15 18 17 23 23 28 33 33 30 30
40 40 40 40 40 40 36 28 12 12 9 12 10 17 19 23 26 30 23 16 18 15 12 7 -0 10 14 13 12 13 14 14 11 13 15 22 20 20 25 33 35 36 35 38 38
39 36 35 37 39 39 31 16 14 16 28 25 15 17 17 20 23 28 31 32 29 28 15 14 11 15 12 10 12 12 13 14 13 23 19 20 25 27 32 34 35 37 38 37 48
36 34 33 36 40 36 28 18 19 24 23 18 12 25 19 21 23 20 30 31 31 33 33 24 21 22 24 14 12 12 15 13 18 12 14 18 22 20 27 30 35 36 39 40 38
34 28 29 39 37 32 21 20 23 22 22 18 18 17 22 21 24 23 30 31 33 30 32 28 25 24 26 23 17 11 13 18 17 18 14 13 16 25 23 34 33 36 40 42 43
33 23 30 37 26 28 24 24 28 24 23 24 22 21 26 20 18 23 29 29 34 34 30 30 26 22 23 30 28 26 14 13 16 19 21 17 15 36 35 38 38 41 41 43 42
28 29 33 34 21 23 27 28 24 24 24 23 21 22 26 19 13 16 17 22 27 31 28 29 26 21 23 26 27 22 23 27 23 24 20 18 23 37 36 37 39 42 45 43 44
29 22 24 34 32 26 24 23 24 26 26 27 25 23 22 14 15 10 12 14 19 29 31 30 27 26 22 24 28 21 18 28 26 19 23 21 28 36 37 37 39 41 43 43 44
29 24 27 21 23 25 25 24 22 24 28 28 23 24 24 19 19 20 23 22 19 30 30 28 25 28 27 23 25 28 20 18 22 28 22 22 20 26 37 36 40 42 44 44 43
27 27 31 26 25 22 19 17 21 20 26 26 27 25 25 22 24 23 26 24 23 25 24 30 27 29 24 24 23 23 24 20 21 29 31 32 18 32 39 38 39 42 45 45 44
33 32 30 23 23 21 19 21 19 23 25 26 25 25 23 24 28 27 28 27 28 26 22 25 28 25 19 22 20 14 21 21 23 24 29 28 30 37 36 37 38 40 42 43 44

GFSSW_sfc_30mbdewp_108.txt.gz
Dewpoint
46 45 45 46 45 46 46 45 46 46 46 45 45 44 45 48 48 44 21 18 36 43 44 46 42 38 36 32 29 27 20 17 19 19 16 21 20 22 22 19 19 18 24 38 51
46 46 46 45 44 44 45 45 46 46 45 45 44 44 45 47 46 36 33 41 43 49 40 35 34 36 31 32 30 26 22 19 22 20 18 20 22 22 21 21 21 20 32 51 56
45 45 44 44 44 43 44 46 46 45 45 45 44 44 46 47 34 3 50 43 47 49 37 34 35 34 30 30 29 27 22 23 23 23 22 22 22 23 21 20 21 21 21 47 54
44 44 44 44 44 43 44 46 45 45 45 45 44 44 44 46 -15 27 38 50 47 53 41 28 29 30 29 26 28 23 24 24 24 25 24 23 23 21 22 22 22 23 23 40 51
44 45 45 44 43 42 43 44 44 43 44 44 44 44 44 26 5 14 29 28 50 43 33 29 23 24 21 19 22 25 26 24 25 24 24 24 24 24 24 24 23 22 22 33 49
43 44 45 44 43 42 42 44 45 45 45 45 46 44 42 9 9 20 30 28 25 38 36 32 27 24 20 19 21 24 26 25 25 25 27 26 26 26 24 23 23 24 24 24 43
43 43 44 43 42 42 43 45 45 44 44 46 47 44 40 6 23 31 32 25 24 22 17 27 34 31 29 27 28 28 26 26 26 26 26 25 23 24 24 24 24 23 24 24 28
44 44 44 44 44 45 44 43 43 44 46 47 45 42 23 34 37 37 38 35 33 31 23 25 28 26 27 24 19 23 24 23 25 26 26 25 22 23 24 24 23 24 25 25 26
42 42 43 44 44 45 43 43 43 45 44 44 42 41 17 30 33 36 39 33 32 28 26 23 21 17 19 19 18 22 20 22 24 25 24 23 22 22 24 24 24 24 24 25 25
42 42 42 43 44 44 43 39 41 40 39 43 44 36 30 26 36 33 33 35 27 22 21 16 14 12 17 16 10 18 21 23 22 24 24 24 23 24 25 24 23 23 23 25 26
42 42 42 43 43 44 35 33 31 29 33 29 26 30 29 27 28 25 31 26 23 19 18 13 9 7 10 15 14 17 20 20 23 25 23 23 23 23 23 23 22 21 22 24 26
41 41 42 42 42 40 35 31 33 35 31 33 32 31 31 31 28 23 24 16 17 18 19 20 15 11 7 11 16 18 18 18 23 25 24 23 22 23 23 21 20 20 21 23 27
42 41 41 41 41 37 35 34 38 37 31 28 27 27 26 27 27 24 22 22 13 13 16 14 17 18 16 11 11 15 17 19 20 22 22 21 16 12 14 19 20 23 26 28 28
41 41 41 41 34 38 28 38 37 37 24 21 24 21 20 23 20 23 20 16 17 9 15 13 13 16 20 16 11 8 12 14 16 15 9 17 8 12 15 15 22 25 26 27 28
40 41 41 41 38 35 34 38 35 36 -9 10 15 21 13 17 15 16 15 14 7 6 13 8 15 11 14 16 11 9 7 8 10 11 11 10 7 11 17 19 15 22 31 33 30
40 41 40 37 37 36 38 38 34 16 2 8 11 16 16 17 22 24 15 12 11 6 5 1 16 15 12 15 16 12 10 11 12 11 8 9 8 10 14 15 26 34 36 41 40
39 40 39 40 33 37 38 32 10 6 7 11 18 21 19 18 23 27 27 10 9 5 1 -1 4 9 17 15 22 16 13 14 13 11 11 12 11 11 19 21 34 37 39 39 46
39 39 38 39 39 38 35 20 5 6 10 21 23 20 18 20 26 26 30 24 16 15 10 1 -1 6 10 15 14 21 19 16 10 13 13 19 13 16 21 30 36 39 41 41 42
39 35 34 35 38 38 24 12 9 13 18 20 20 15 18 17 21 29 24 30 33 32 22 12 5 11 10 11 13 13 15 18 13 21 16 18 23 26 31 34 38 39 41 41 43
35 32 30 36 39 34 24 17 17 22 20 22 19 18 14 17 22 26 26 30 30 34 35 25 20 24 19 11 12 14 17 14 15 11 11 15 21 19 30 33 37 38 40 41 43
32 24 31 38 38 30 19 19 20 23 22 25 20 20 20 18 26 25 25 30 28 30 36 30 24 22 26 19 11 10 11 14 16 18 11 11 14 26 24 33 39 40 41 42 42
32 18 30 35 23 26 22 24 26 26 25 24 25 23 22 26 26 25 25 24 24 29 30 32 27 21 21 32 30 21 13 14 14 15 20 16 15 36 38 38 38 39 44 44 42
26 26 32 33 19 21 25 26 27 25 24 25 25 23 24 24 22 18 24 21 22 28 30 32 26 22 22 28 30 23 21 27 16 22 18 17 19 36 39 38 39 40 43 44 41
27 20 23 33 31 26 24 22 21 25 27 26 27 27 26 22 19 17 20 22 27 26 32 33 30 25 21 24 26 28 23 21 22 14 15 21 30 35 37 39 39 41 44 44 45
27 21 27 20 23 25 22 23 19 20 26 29 25 25 26 24 21 21 23 24 23 28 29 29 25 28 24 25 26 28 32 26 27 25 18 25 21 27 38 39 40 42 44 44 44
26 25 28 25 25 24 20 16 20 18 22 24 24 24 25 24 23 23 24 24 22 25 23 30 22 27 21 18 16 22 30 31 25 28 31 28 32 38 40 42 43 44 44 43 44
32 32 26 22 23 21 19 21 19 23 22 25 25 25 24 24 26 28 29 28 27 25 25 24 28 24 16 22 16 21 24 26 25 26 28 21 32 37 38 41 42 42 43 43 44

GFSSW_sfc_30mbdewp_111.txt.gz
Dewpoint
46 45 44 45 44 44 44 44 44 45 45 46 46 45 45 46 47 43 22 19 37 48 47 43 41 37 36 30 29 27 18 16 12 17 13 21 20 22 24 20 21 21 23 33 49
44 44 44 44 44 44 43 43 43 43 44 45 45 45 45 47 44 34 33 41 46 46 42 38 36 37 33 33 29 25 18 14 18 20 17 20 22 22 21 21 21 22 24 43 53
44 44 44 44 43 43 43 43 43 42 42 43 45 45 46 46 30 4 46 49 49 47 39 36 36 33 28 31 30 27 19 21 21 22 22 21 21 23 21 19 22 21 24 28 46
44 43 44 43 43 43 42 44 43 43 42 43 45 46 45 44 -28 34 38 38 49 50 39 29 34 33 30 26 29 25 26 24 21 24 24 22 24 22 22 21 23 25 26 25 30
43 43 44 43 43 42 43 44 43 43 43 44 45 45 43 14 -0 20 34 30 41 47 37 28 26 27 22 24 26 26 26 25 25 25 25 25 23 23 23 24 26 27 26 25 27
44 44 44 43 43 42 42 44 44 43 44 45 47 45 40 -10 7 28 31 25 17 36 36 30 26 25 23 21 21 22 24 23 24 23 25 24 23 24 24 27 26 26 26 27 27
42 42 42 43 43 43 43 44 45 45 45 47 48 43 38 1 30 32 32 28 25 18 17 21 25 30 29 26 27 26 23 25 26 25 24 27 25 25 27 27 26 26 26 26 26
42 42 42 43 44 44 44 44 43 44 46 46 47 41 17 30 34 36 38 36 35 34 26 18 19 19 29 27 18 20 21 21 25 27 27 24 20 25 26 26 25 27 26 27 27
41 42 41 43 44 44 43 42 42 45 45 45 42 35 16 28 32 36 35 34 32 29 28 25 24 21 20 18 14 17 11 19 22 26 25 25 21 23 25 25 25 26 26 26 26
41 41 42 43 42 43 39 40 38 35 38 43 42 31 27 22 26 28 23 31 25 26 22 21 18 14 16 16 7 10 14 20 18 22 25 23 23 24 25 25 25 25 25 26 25
41 41 42 41 41 39 32 30 29 25 31 29 25 28 25 27 27 25 26 24 22 21 18 16 12 6 8 14 12 11 17 17 21 25 24 23 23 24 25 25 25 25 25 24 23
42 41 41 40 41 38 32 31 33 34 29 31 31 31 31 32 29 28 27 20 10 -1 16 18 14 13 9 15 14 13 10 9 14 20 20 20 20 21 22 23 23 23 22 21 23
41 41 41 40 40 37 34 34 38 37 30 26 28 27 23 27 25 23 21 21 16 6 6 14 13 17 15 10 9 11 10 10 9 16 22 22 14 9 10 18 19 21 22 23 26
40 41 41 39 29 37 28 37 38 36 12 7 16 20 18 17 22 19 21 19 16 14 7 8 10 15 18 15 10 8 11 12 12 16 8 15 1 9 10 11 21 22 30 37 40
40 40 40 39 36 30 32 38 38 34 -36 6 14 21 19 15 18 18 22 18 14 13 13 6 12 12 13 16 16 14 13 13 13 13 13 8 8 6 16 17 19 35 38 41 45
40 40 40 38 37 35 38 38 30 -1 -23 1 15 12 17 17 21 24 26 25 16 12 11 8 8 13 10 13 15 14 11 11 13 11 5 6 5 6 10 14 33 37 39 41 43
39 39 39 40 31 37 38 28 0 -12 5 6 11 17 19 19 21 20 22 24 21 8 7 5 4 5 17 11 15 13 10 7 9 10 9 13 8 6 16 28 36 38 40 42 43
40 38 37 38 38 38 31 12 -12 5 6 13 18 19 16 19 14 16 24 23 27 20 11 13 8 -1 0 12 13 13 12 8 2 7 7 14 10 11 19 25 39 41 41 42 43
39 34 32 35 38 37 20 4 1 12 16 18 19 14 14 12 19 21 26 27 29 31 22 20 6 7 3 9 20 20 15 15 14 21 16 17 19 24 30 37 39 41 41 42 45
34 30 30 36 39 32 19 16 14 19 20 20 18 18 14 17 20 24 26 28 29 29 32 29 23 22 18 4 11 19 21 17 17 10 10 14 19 15 31 36 39 40 41 41 46
30 25 36 39 36 27 17 18 20 21 22 22 22 19 19 21 23 24 24 24 25 22 31 31 27 21 23 9 1 6 15 18 17 17 8 7 12 25 28 36 39 41 40 41 44
29 18 33 34 22 24 21 23 26 26 26 25 25 24 23 24 24 24 24 24 25 24 26 32 29 23 18 33 34 13 7 16 14 14 16 13 13 36 38 39 39 42 40 41 40
25 25 32 34 17 21 24 25 27 25 24 27 25 28 27 25 21 23 20 22 24 25 28 31 28 22 18 26 28 29 25 21 13 20 13 13 13 38 39 39 43 43 42 42 41
25 18 23 33 31 23 23 22 21 22 25 26 28 28 26 22 23 21 21 22 25 25 30 34 29 26 19 22 26 27 31 31 25 11 10 17 29 36 37 38 41 43 44 45 43
26 21 25 20 24 25 24 22 19 20 21 26 25 22 24 22 21 21 22 24 24 27 24 30 25 28 27 23 25 28 28 30 27 25 12 11 20 34 37 39 40 44 44 44 43
25 24 26 21 25 23 22 18 18 19 22 21 24 23 24 23 23 23 23 23 23 25 24 25 24 27 24 23 18 20 29 29 24 30 29 29 31 38 40 42 43 43 42 44 44
31 32 26 22 23 22 19 19 19 21 21 23 22 21 24 23 26 26 27 27 27 27 25 24 24 21 14 21 22 17 25 28 26 27 28 24 33 40 42 43 42 42 43 42 41

GFSSW_sfc_30mbdewp_114.txt.gz
Dewpoint
44 44 45 45 45 44 44 43 43 44 44 43 44 46 47 47 46 30 19 23 29 45 43 39 38 33 31 27 27 25 16 10 9 7 6 14 13 19 22 20 20 21 24 27 37
44 44 44 44 44 43 43 43 43 44 44 44 43 45 47 47 37 26 36 48 51 46 31 30 28 31 26 26 26 21 16 13 10 10 9 12 13 14 18 19 19 20 25 26 33
44 44 44 43 43 43 43 43 44 43 43 44 44 46 47 45 26 9 39 43 49 45 36 29 27 28 22 24 25 23 19 18 15 14 13 11 13 13 15 12 17 19 20 23 26
44 44 44 43 43 43 43 44 44 43 44 44 45 46 46 38 -24 34 40 35 47 43 36 30 29 23 19 18 23 23 21 22 19 19 20 17 16 17 15 13 16 19 22 24 26
44 44 43 43 44 44 44 44 44 44 45 45 46 46 38 9 -6 17 30 21 29 40 32 21 21 24 22 22 23 24 23 21 23 22 21 21 19 19 18 17 19 20 23 24 25
43 43 43 43 44 44 44 44 45 44 45 46 47 46 33 1 8 19 16 16 9 6 22 28 19 18 19 21 19 20 22 22 22 21 21 20 21 20 20 22 23 22 23 22 24
42 42 43 43 44 43 43 45 45 45 47 47 48 42 33 14 20 28 35 34 34 31 19 17 27 24 24 21 20 20 19 20 20 21 21 22 22 22 24 24 22 22 24 25 25
41 42 43 43 44 42 43 43 44 46 46 48 47 38 19 23 28 35 34 30 27 32 32 28 13 14 12 18 23 19 18 18 20 22 22 21 19 22 25 25 26 27 28 27 26
41 42 42 43 42 43 41 41 44 45 46 46 40 33 17 28 17 20 22 21 19 26 29 27 23 11 12 13 11 12 9 9 13 22 22 24 19 21 24 23 23 25 25 25 26
41 42 42 41 41 42 40 38 36 37 35 38 38 17 15 19 23 24 22 21 20 18 18 22 19 10 4 4 1 5 6 8 9 10 16 19 20 22 24 24 25 25 26 26 26
41 42 41 40 41 39 32 26 17 18 21 20 22 25 22 24 26 23 22 20 17 18 8 11 10 -3 -6 -2 -0 4 4 4 5 10 19 17 17 18 20 22 24 25 25 26 26
41 41 41 40 41 37 28 27 29 32 24 23 25 26 26 23 15 17 14 15 16 12 6 3 5 1 -5 -5 -2 5 3 3 2 4 12 12 9 10 13 17 21 22 23 21 21
41 41 40 40 39 33 29 32 35 35 23 14 20 24 17 12 5 16 10 13 14 11 11 4 -4 -1 2 7 3 4 2 1 4 5 7 9 9 9 10 11 13 14 15 15 18
40 40 40 39 29 32 25 33 34 38 7 2 10 17 10 11 7 18 13 20 17 10 10 8 4 -1 -2 8 6 2 2 6 7 6 4 7 2 2 10 10 10 13 17 22 28
40 40 40 38 30 22 31 35 35 37 -26 0 6 12 13 13 14 17 18 20 18 16 12 10 7 5 4 -1 7 5 5 9 11 9 8 7 6 3 4 4 13 15 26 35 39
39 40 39 33 33 34 36 37 33 4 -16 -3 5 11 13 14 15 16 12 21 23 20 16 13 13 11 8 6 2 9 12 11 10 7 6 5 6 1 1 11 13 33 37 40 41
40 39 35 37 30 37 37 25 -1 -17 -3 -1 8 13 14 10 12 10 17 22 26 23 17 17 7 8 10 8 6 6 9 -0 0 2 -1 1 4 3 6 20 25 34 39 41 42
40 36 37 36 38 39 32 15 -1 -0 3 10 13 14 11 10 12 16 16 23 18 24 23 19 11 8 8 8 2 5 6 -1 -6 -4 -1 7 7 7 10 18 36 39 40 41 44
37 34 34 38 39 38 22 8 -2 7 14 17 15 9 6 11 14 17 17 24 24 28 23 21 20 13 11 7 4 2 4 4 -5 -2 3 2 10 9 18 15 35 38 40 42 46
31 33 35 39 41 33 21 10 11 16 18 18 14 15 11 12 15 18 21 22 21 21 30 28 20 18 20 5 5 2 5 0 -3 -3 -5 -6 2 8 18 26 35 38 39 43 47
30 27 36 41 39 28 15 12 18 21 22 20 17 17 15 16 18 19 23 23 19 20 20 30 28 20 18 5 -1 7 12 6 -1 2 -4 -3 2 13 25 31 36 39 40 43 46
29 25 37 39 23 23 16 20 24 21 23 23 23 22 21 21 19 17 21 20 20 20 22 31 28 23 20 27 24 5 10 10 6 3 3 3 3 30 29 34 38 39 39 41 44
25 24 35 35 19 16 21 22 23 19 18 23 22 24 24 20 19 16 16 18 20 22 26 27 26 17 17 24 32 28 8 13 14 8 6 5 5 34 36 35 39 39 40 40 41
27 23 26 33 28 22 24 20 17 17 18 23 22 24 20 18 18 16 17 19 21 21 26 25 28 25 20 25 28 28 30 25 9 10 9 6 8 31 34 37 39 40 42 40 40
29 23 25 24 26 22 22 19 17 16 17 17 21 19 19 19 17 13 17 19 19 20 22 23 19 25 24 24 18 26 30 31 25 13 10 8 6 19 29 35 40 41 42 42 42
27 23 25 20 24 23 21 16 14 16 17 15 18 18 17 19 19 18 19 19 19 20 22 24 19 21 17 23 20 18 27 26 27 27 18 16 10 14 29 37 40 40 40 42 41
32 31 25 21 19 18 15 13 15 18 16 20 21 16 17 19 22 22 24 25 24 24 25 25 20 16 14 16 22 20 26 24 23 25 27 23 22 34 32 37 40 41 42 41 40

GFSSW_sfc_30mbdewp_117.txt.gz
Dewpoint
45 45 45 45 45 44 44 44 44 44 44 44 45 45 46 48 47 30 15 37 39 43 37 25 30 27 30 28 25 24 20 16 13 12 9 8 8 11 9 11 18 19 22 28 35
44 44 44 44 44 44 44 44 44 44 44 44 45 46 47 48 40 21 41 43 50 48 32 26 22 25 25 26 25 23 21 19 16 13 10 9 9 10 12 14 14 19 23 25 27
44 44 44 44 44 44 44 45 45 45 45 45 46 46 48 47 30 26 39 35 50 43 32 27 25 21 24 24 24 24 22 21 19 17 14 12 12 10 9 12 12 17 20 23 23
44 44 43 44 44 44 45 46 45 44 45 45 46 47 48 40 -11 31 31 32 29 39 27 18 23 23 20 20 22 22 24 24 22 21 19 17 17 16 12 11 10 13 17 22 22
43 43 43 44 44 44 44 45 44 44 46 46 47 48 43 16 1 10 19 20 5 9 21 20 13 16 21 21 20 20 21 23 23 22 22 21 20 20 19 17 16 13 14 18 21
43 42 43 44 44 44 43 44 45 44 46 48 48 48 36 8 9 17 26 24 19 19 8 -1 18 14 12 14 17 21 22 22 23 24 23 22 22 21 21 21 20 19 18 18 19
43 41 43 44 44 43 42 44 44 45 47 47 47 43 30 20 23 31 26 22 30 24 27 26 7 16 17 14 17 17 18 19 20 21 21 22 21 22 23 23 22 21 21 21 17
42 42 43 43 42 42 43 44 43 46 46 48 48 36 19 20 21 19 19 17 14 15 21 29 28 13 14 13 10 10 17 18 19 20 21 21 19 22 23 23 23 24 24 23 22
41 42 43 42 42 43 43 43 43 45 46 46 44 29 17 27 17 20 17 18 18 17 14 25 24 20 11 9 6 2 -0 5 11 14 18 21 20 21 21 22 22 25 26 26 26
41 42 42 41 42 43 40 41 39 40 40 34 32 14 17 17 19 21 15 12 15 18 15 13 19 13 7 2 -3 -5 1 1 5 9 10 16 18 20 21 22 24 24 24 24 25
41 42 41 41 41 40 36 27 16 27 15 14 17 19 18 13 19 8 13 6 14 11 9 9 4 5 -2 -3 -3 -4 -3 -2 6 6 8 9 11 12 17 19 21 23 24 25 26
41 41 41 40 40 37 29 21 23 28 17 18 22 23 21 13 3 -1 9 8 7 7 8 7 2 -1 -5 -0 -5 -10 -7 -1 -3 -2 -0 2 8 16 15 13 16 19 21 23 25
40 40 40 40 39 34 27 27 31 31 23 9 17 15 11 9 6 8 10 12 10 10 8 4 3 3 2 -2 -4 -4 -8 -7 -5 -4 -0 3 2 3 6 9 8 9 13 18 20
40 40 40 40 32 26 25 28 30 36 19 4 6 13 7 8 5 9 16 11 12 11 9 9 9 5 2 -1 -3 -3 -3 -2 -6 -4 -4 1 -1 -1 2 4 7 9 11 13 13
40 40 40 39 27 19 27 31 32 37 2 1 -0 6 6 6 8 8 12 9 12 16 17 14 11 7 4 3 0 -7 -3 2 -0 -1 1 -2 -6 -3 1 3 7 9 10 14 23
39 40 38 34 31 30 32 34 33 23 -5 -3 0 4 4 6 5 8 8 15 20 17 14 12 14 15 9 8 7 6 0 1 6 3 3 2 -3 -5 -2 4 9 17 19 27 35
39 40 36 33 29 34 35 27 13 -6 -5 -2 4 6 7 5 5 6 9 7 14 12 11 13 12 11 12 9 8 7 4 -2 4 3 2 0 -2 -2 1 2 8 23 32 36 39
40 37 36 33 35 37 32 19 9 -2 -2 7 8 8 3 4 7 8 8 9 13 19 18 11 13 12 22 19 7 5 4 0 0 -1 -2 -5 -6 -4 1 3 17 29 35 38 39
38 35 33 36 39 36 24 18 -0 4 12 13 9 3 2 6 8 8 11 15 15 18 23 19 15 19 18 18 18 3 2 2 3 -0 -3 -5 -5 2 4 8 27 33 35 39 42
31 30 32 38 39 34 21 8 7 12 13 15 10 9 7 7 10 10 14 19 16 15 17 25 20 19 19 29 23 6 3 1 2 1 -3 -5 -3 -1 5 12 25 30 35 41 45
30 26 34 39 38 24 22 9 12 17 18 16 12 11 11 11 14 12 16 20 15 13 17 22 28 18 25 25 13 4 2 -2 2 2 -2 -6 -5 1 4 11 19 29 36 41 44
26 24 34 36 23 18 13 14 20 16 20 18 19 17 15 16 14 12 13 13 14 16 16 29 26 20 19 26 30 24 2 -0 -1 1 -2 -4 -2 18 12 20 24 36 37 42 44
22 24 33 33 24 13 18 15 16 16 15 16 16 17 19 16 11 12 12 12 16 16 17 23 21 18 13 24 27 25 14 3 3 1 -3 -2 -0 24 22 30 36 38 38 40 41
23 24 25 28 24 23 20 15 14 16 15 15 16 17 16 13 13 12 11 12 16 16 23 24 22 22 19 24 23 27 27 15 10 10 1 1 -0 32 22 22 38 37 38 39 39
28 25 23 24 25 18 19 15 14 13 15 17 12 15 15 12 11 10 11 14 14 19 18 20 19 19 16 14 19 23 29 21 21 23 13 10 5 18 26 29 35 38 38 38 41
29 20 23 19 21 20 20 13 12 11 14 12 12 11 13 13 12 12 15 16 15 18 19 23 19 17 13 19 20 25 31 29 20 16 14 12 14 15 30 33 33 37 39 41 40
27 26 22 18 19 18 16 15 12 12 14 13 13 14 14 13 16 20 20 19 20 21 22 24 22 19 11 14 23 26 27 27 29 30 20 19 18 31 21 33 36 38 41 41 39

GFSSW_sfc_30mbdewp_120.txt.gz
Dewpoint
45 45 45 45 45 45 45 45 45 46 46 46 46 46 47 48 48 36 29 38 42 47 46 27 21 24 25 25 28 27 22 19 18 16 14 12 12 9 11 9 7 18 20 33 41
45 45 45 45 45 45 45 45 45 45 45 45 46 47 47 49 44 29 38 38 39 48 34 25 23 21 22 25 26 26 23 21 21 21 19 14 11 10 9 8 9 17 20 24 32
45 45 44 44 45 45 45 45 45 45 45 46 47 47 48 49 38 29 27 28 30 41 27 20 21 22 19 20 23 25 23 24 23 23 23 20 17 12 10 9 12 13 19 21 26
44 44 44 44 44 44 44 45 44 43 44 46 47 48 49 45 8 19 17 24 28 25 31 22 15 14 20 19 19 22 24 24 24 24 24 22 21 17 14 13 12 13 16 20 24
44 43 44 44 44 44 44 44 43 43 44 47 49 49 45 29 5 12 26 27 24 4 1 -1 3 13 9 9 17 19 18 19 21 23 24 24 23 22 21 20 20 17 14 14 22
44 42 43 44 44 43 43 44 44 43 45 48 48 49 42 18 13 28 24 18 24 22 21 20 11 0 7 11 8 11 14 17 20 22 22 22 23 23 23 23 22 22 21 17 16
43 43 43 44 43 43 43 43 44 44 47 47 48 44 33 18 21 17 17 15 14 16 15 16 25 22 4 7 12 12 13 14 13 18 21 21 20 22 24 24 24 23 23 22 21
42 43 43 43 43 43 43 44 44 46 47 46 48 43 24 19 22 16 15 14 14 14 14 12 19 22 17 10 8 8 5 4 5 12 18 19 18 21 23 23 22 25 25 24 22
41 42 43 42 43 44 43 44 44 45 45 44 44 33 19 24 16 16 16 9 7 14 17 9 19 18 14 9 4 1 1 -4 -4 2 1 13 18 20 21 22 22 24 25 25 25
42 42 42 42 42 42 43 43 41 42 43 35 30 19 18 15 9 16 9 11 6 11 8 13 14 12 11 6 2 -5 -3 1 -0 1 7 7 11 15 21 20 22 23 24 25 26
42 42 41 41 41 42 41 32 24 31 15 13 13 14 13 15 6 2 6 8 7 6 3 6 5 4 0 3 3 0 -1 -3 -2 0 2 7 9 10 11 17 19 21 25 25 26
41 40 41 41 41 42 37 20 24 27 19 16 20 20 18 12 5 5 8 10 9 7 8 7 4 2 2 2 -2 -5 -5 -2 -3 -5 -3 -0 1 8 7 10 16 19 20 24 25
40 40 40 41 41 37 26 25 28 30 27 12 13 11 4 6 5 4 13 11 7 7 7 8 9 9 6 6 3 2 -0 -2 -2 -3 -5 -1 3 3 4 6 9 14 12 12 21
40 40 40 41 36 27 28 26 30 35 24 9 13 15 4 3 5 6 13 8 6 8 14 14 13 13 13 10 7 4 3 -0 -3 -3 -7 -6 -2 0 1 4 6 7 9 12 13
39 39 40 40 38 23 27 30 31 38 11 3 1 3 2 2 4 3 6 7 5 13 13 11 9 7 7 6 7 10 9 4 -2 -4 0 -3 -6 -3 -1 0 1 4 10 13 14
39 40 39 36 37 30 32 34 33 29 11 2 -2 1 1 4 4 6 6 8 7 14 13 9 10 10 9 13 19 19 14 7 7 3 -2 1 -2 -3 -2 -1 -3 5 11 13 19
39 39 38 35 33 33 36 34 21 15 -5 -3 1 2 3 3 3 6 5 6 9 19 16 10 9 10 14 15 17 19 18 5 6 4 -1 3 1 2 3 -0 -0 10 28 33 37
39 39 37 32 36 37 36 27 17 -0 -6 7 3 3 3 1 5 5 7 7 10 18 13 10 11 12 15 17 21 28 21 9 5 3 -2 2 1 2 5 3 2 26 35 36 38
39 37 37 38 38 37 32 24 8 4 10 8 5 2 0 3 6 7 8 12 14 13 18 17 11 15 17 17 19 25 13 11 7 7 4 2 1 4 3 1 1 32 35 36 40
35 32 32 38 38 38 28 20 7 8 8 10 7 6 4 6 8 9 10 15 14 16 20 14 15 16 16 22 24 26 22 13 7 3 2 3 2 -1 -3 -2 7 32 34 41 46
35 28 37 37 37 33 26 14 10 13 12 12 9 9 9 9 10 9 10 13 16 11 13 16 22 17 18 28 28 29 28 18 11 3 1 4 7 2 6 4 23 31 37 44 45
32 25 36 35 29 25 20 12 16 13 17 15 16 15 13 12 11 10 9 9 10 17 12 17 19 17 16 28 26 21 25 26 5 3 4 4 6 8 19 20 25 27 37 44 46
25 26 34 34 28 21 17 15 12 12 12 13 13 13 14 12 11 9 8 8 15 14 14 19 15 18 12 16 18 17 18 22 25 21 6 8 6 6 15 33 21 36 43 46 43
28 25 26 25 25 24 19 15 13 13 13 13 12 13 12 14 13 9 7 8 10 13 19 19 20 20 18 20 20 16 22 28 28 21 9 4 2 -0 21 32 44 44 45 47 42
31 28 24 25 26 22 18 13 12 12 13 13 13 11 10 12 13 7 8 8 12 14 15 17 18 21 18 16 14 20 19 29 25 21 24 14 6 10 28 37 43 42 45 42 41
30 24 22 21 22 21 19 15 12 11 11 13 10 10 10 9 10 8 10 12 15 15 15 19 20 21 17 16 13 14 27 33 25 20 20 20 17 31 28 38 41 42 44 43 40
28 26 27 20 18 19 17 16 12 12 11 13 11 10 10 11 12 14 17 17 16 15 17 20 21 20 18 14 16 22 29 28 32 32 32 26 25 34 39 41 40 38 43 40 38

GFSSW_sfc_30mbdewp_123.txt.gz
Dewpoint
45 45 46 46 45 46 46 46 46 46 46 46 46 47 48 48 49 42 35 33 37 47 44 37 30 21 27 26 25 26 25 23 22 20 19 20 20 20 11 9 9 10 23 46 48
45 45 45 44 45 45 45 45 45 45 45 45 47 48 48 49 46 30 29 37 34 36 27 23 21 19 22 22 23 24 24 24 25 24 22 22 23 24 22 10 9 10 37 42 44
45 44 44 44 45 45 45 45 45 44 44 45 47 49 50 50 41 25 23 20 25 32 34 35 24 15 18 21 21 24 24 25 26 26 25 25 24 25 23 16 11 10 20 37 40
44 44 44 45 45 44 44 45 44 43 44 46 49 50 51 47 13 15 17 23 24 33 21 13 2 8 12 13 20 18 19 22 24 25 25 24 24 24 24 23 21 19 19 22 30
44 44 43 44 44 44 44 44 44 44 44 47 49 49 46 37 9 22 29 28 34 21 18 19 15 2 1 7 8 10 12 18 19 19 19 21 21 23 23 25 24 24 24 22 17
44 44 44 44 44 43 43 44 44 44 46 48 48 49 45 21 16 17 17 16 14 13 14 16 16 23 21 1 3 11 11 10 11 12 13 17 19 22 22 25 24 24 24 24 23
44 43 44 44 44 43 43 44 45 45 47 48 48 45 38 17 19 18 16 15 15 14 13 13 12 16 23 19 13 10 6 9 9 15 15 14 14 18 21 22 25 25 25 25 24
43 42 43 44 43 43 44 45 45 45 46 47 47 46 27 19 22 15 15 15 10 9 12 16 16 13 21 21 17 11 5 3 4 6 6 10 13 16 20 21 21 22 25 25 25
41 42 43 43 44 44 44 45 45 46 45 45 42 42 21 23 9 13 16 11 11 10 14 14 11 13 18 15 11 8 1 1 2 3 2 2 -0 2 19 20 21 22 23 23 24
41 42 42 42 43 43 44 44 44 39 40 39 37 28 18 15 10 8 12 8 9 11 9 11 15 18 16 12 7 5 3 2 0 -0 2 1 1 4 10 13 19 21 23 23 23
41 42 41 41 42 43 42 37 25 32 32 13 14 13 14 17 11 5 10 9 11 12 8 9 7 6 6 8 8 6 5 3 3 2 -0 -2 -3 -3 2 9 10 16 19 22 26
41 41 41 41 41 42 40 25 26 28 22 18 19 20 19 14 6 7 15 11 8 7 7 8 8 10 13 12 11 10 7 5 5 3 0 -1 -2 -4 -2 2 6 7 8 16 22
40 40 40 41 42 39 26 26 29 33 28 17 13 10 4 5 3 6 11 13 7 5 7 11 14 12 10 8 10 12 10 9 8 7 5 1 -2 -4 -1 5 4 4 4 8 16
40 40 40 41 39 34 28 29 32 36 29 10 15 13 6 3 5 4 12 6 6 5 9 13 14 10 9 8 8 6 12 14 13 14 5 5 -4 -3 -2 3 3 4 3 6 8
40 39 40 41 36 30 30 32 31 38 16 11 1 6 5 1 3 4 6 6 6 6 10 13 14 11 9 9 12 15 17 16 17 16 13 6 1 -4 -3 -2 -1 1 2 5 7
39 39 39 39 40 35 35 36 35 29 13 1 1 3 1 4 4 6 7 8 9 15 16 17 16 11 10 12 14 15 21 20 18 15 11 7 6 -2 -2 -4 -3 -1 2 5 4
39 39 39 37 35 37 38 36 24 19 4 -1 -0 2 2 4 2 6 6 9 11 15 15 16 14 15 13 12 14 17 23 19 13 10 7 7 6 3 3 -1 -1 1 6 34 29
38 40 38 37 39 39 39 31 15 5 2 7 3 2 2 2 5 7 9 9 15 14 17 17 16 14 13 13 15 17 18 18 14 8 8 5 5 2 4 4 4 4 35 39 45
38 38 39 40 39 40 36 24 18 8 12 7 5 3 3 6 7 10 10 14 14 15 16 16 14 14 14 16 24 28 27 28 25 21 14 8 8 8 0 4 6 7 34 42 49
37 37 38 39 39 39 33 25 11 9 8 8 7 5 4 8 9 11 11 14 14 16 19 18 13 12 17 18 23 24 31 25 21 11 7 9 9 6 7 10 5 17 39 49 51
35 33 38 38 39 36 26 23 11 12 11 9 10 9 10 10 11 11 12 13 15 17 18 17 21 16 17 14 15 22 25 28 30 18 8 5 6 8 10 13 23 28 46 49 49
35 29 37 37 31 31 25 21 14 15 16 14 15 15 13 14 13 12 11 11 18 17 15 20 18 15 13 15 18 23 19 26 23 22 21 9 5 6 7 32 37 39 49 49 49
30 34 36 36 24 26 22 16 12 9 15 14 15 15 14 13 12 14 11 13 11 15 16 17 16 17 13 13 21 20 20 17 27 28 20 14 8 11 31 39 45 46 48 46 45
35 26 29 27 26 25 25 17 13 13 13 13 12 12 13 13 14 14 14 12 15 16 19 21 21 22 18 18 20 20 19 18 24 26 19 14 18 27 33 39 43 42 42 47 46
35 28 28 25 26 26 23 18 15 15 13 12 13 12 13 12 12 13 13 13 14 16 17 17 15 17 20 21 20 19 19 30 29 29 23 23 25 31 38 41 43 43 41 46 45
27 27 27 21 25 25 24 18 17 13 13 13 13 12 13 11 13 12 14 15 16 16 17 17 16 19 20 21 20 18 30 31 32 31 31 31 27 38 40 39 39 38 38 39 41
30 27 27 25 18 21 21 18 14 13 14 13 13 11 12 14 16 18 19 19 18 17 17 17 16 18 18 21 20 24 29 29 31 31 31 28 34 39 38 38 38 39 39 39 39

GFSSW_sfc_30mbdewp_126.txt.gz
Dewpoint
46 46 46 46 46 46 46 46 45 45 45 45 46 47 49 49 50 45 29 25 29 39 45 27 27 26 23 27 26 27 25 25 25 24 24 25 24 24 26 24 24 14 21 33 47
46 45 45 45 45 46 45 45 45 45 44 45 46 49 50 51 46 16 21 32 37 43 25 30 24 26 19 23 23 22 24 25 26 26 25 26 26 26 25 24 24 23 43 48 49
46 45 44 45 45 45 45 45 45 44 44 45 47 50 51 51 37 27 21 28 28 39 26 26 29 25 14 20 21 22 21 24 25 26 26 26 26 27 25 24 25 23 23 34 46
46 45 44 44 45 45 44 45 45 44 44 45 48 49 50 47 24 17 19 28 35 40 23 17 15 6 -0 -3 12 6 12 19 21 23 25 23 23 21 21 22 25 26 24 24 30
45 45 44 44 45 44 44 44 44 44 45 46 48 50 47 33 10 20 27 21 24 16 15 15 16 20 18 20 11 1 10 11 11 12 12 13 13 17 16 21 25 25 26 24 23
44 44 44 44 45 44 43 44 45 45 46 47 49 50 45 17 15 17 16 16 15 14 12 13 12 11 18 20 17 10 13 9 7 7 10 12 13 15 14 18 22 23 24 26 26
44 44 43 44 45 44 43 44 45 46 46 47 49 47 40 17 19 17 15 15 15 13 10 11 13 12 15 17 20 18 12 10 0 2 8 10 10 14 16 15 18 22 22 22 26
44 43 42 44 44 43 43 45 45 45 47 47 47 45 29 19 23 11 16 16 12 11 10 12 16 14 13 20 20 16 13 5 -2 1 2 5 0 5 6 13 17 19 21 21 21
43 42 43 44 44 44 45 45 45 47 47 46 42 42 24 22 8 9 15 13 12 11 12 15 13 9 17 16 12 9 6 5 6 5 3 3 1 3 3 4 10 18 16 19 21
42 42 43 42 43 44 44 43 43 40 40 38 38 27 22 15 14 13 10 10 10 13 11 11 15 17 12 9 7 8 8 7 6 7 7 5 3 3 2 0 1 8 12 15 20
41 42 41 42 42 43 43 35 23 33 27 15 15 14 15 16 11 8 14 12 12 10 6 9 7 6 10 12 11 10 10 11 12 12 9 8 8 7 4 1 -1 -0 8 12 16
41 41 41 41 41 42 42 26 27 27 12 22 18 19 20 15 7 6 15 12 8 5 8 9 9 14 11 10 9 8 7 6 8 11 13 12 11 11 9 4 2 -1 3 10 12
41 40 41 41 42 39 26 26 32 33 23 24 18 17 9 10 5 5 13 13 5 6 6 6 12 14 12 11 9 8 7 9 12 16 16 14 11 9 8 7 3 -1 -1 4 6
41 40 40 41 37 37 28 30 34 37 18 13 14 14 7 6 4 5 13 5 6 5 7 13 16 14 12 10 9 8 15 16 15 14 13 15 12 14 12 11 8 1 -0 4 5
40 40 40 41 36 31 31 33 33 38 -1 15 14 9 5 2 3 6 8 7 5 7 10 11 16 14 11 10 12 12 13 16 17 19 17 14 11 10 10 8 7 0 -0 4 4
39 39 39 40 39 36 36 37 35 20 -1 6 1 3 1 3 4 7 8 12 16 16 17 15 18 15 14 13 12 12 16 18 18 21 17 14 13 11 9 9 7 2 1 2 3
38 39 38 38 36 38 39 36 22 14 6 -2 1 3 2 3 5 7 9 12 14 12 12 13 15 17 15 13 14 17 18 17 12 11 9 11 9 10 10 9 9 6 4 3 6
39 39 38 38 39 40 39 29 12 16 5 5 3 2 2 5 6 11 10 10 15 16 15 15 12 15 15 14 14 15 24 21 13 14 15 20 13 7 8 9 8 6 6 31 49
38 36 37 40 39 40 34 19 2 11 12 6 4 3 7 9 10 11 11 14 12 16 12 14 14 15 13 14 16 25 22 25 25 26 21 17 13 10 10 11 11 13 9 49 51
36 38 39 39 40 39 32 22 17 9 9 9 6 6 6 9 11 11 11 14 14 17 21 16 12 12 15 16 20 24 21 22 22 17 14 9 8 8 9 11 13 25 31 42 48
36 34 38 39 39 35 24 24 12 12 12 10 11 11 12 11 12 11 12 13 16 16 17 16 19 15 15 14 12 16 19 21 26 23 19 16 9 28 29 37 43 45 40 38 48
35 31 38 38 26 32 22 26 15 15 16 15 16 14 11 14 13 11 13 11 16 17 15 18 16 13 12 15 18 17 16 20 22 18 22 24 17 26 27 41 41 42 46 47 46
32 34 37 37 17 27 27 15 11 16 15 16 16 17 16 13 11 15 13 14 17 16 15 16 14 13 7 12 19 16 20 21 25 25 22 19 19 27 32 39 41 40 43 45 44
34 26 28 27 29 26 25 15 12 14 13 14 12 12 12 12 14 15 15 15 16 16 24 21 19 16 15 15 17 18 21 27 30 25 23 24 23 31 36 37 40 40 41 46 44
34 28 27 16 20 25 24 20 15 14 12 13 12 9 12 11 12 13 14 15 15 16 16 17 14 13 13 15 18 20 27 27 28 27 24 26 29 34 37 39 40 40 39 39 42
28 26 27 27 28 22 24 19 17 16 13 13 12 14 12 11 13 12 16 15 15 16 16 17 12 16 16 16 18 20 25 26 29 28 25 25 28 33 39 39 39 38 38 38 37
31 29 27 25 23 22 22 17 15 15 15 16 14 12 12 16 17 18 19 18 17 15 14 17 16 16 14 16 18 24 26 24 29 29 28 23 28 32 38 38 39 40 39 39 38

GFSSW_sfc_30mbdewp_129.txt.gz
Dewpoint
46 46 46 46 46 46 46 46 46 45 45 45 46 48 50 51 50 46 19 20 25 37 45 33 25 25 24 26 27 28 26 26 27 25 25 26 26 26 27 26 26 25 25 35 49
45 46 46 45 46 46 46 45 45 45 45 45 46 49 50 51 47 19 14 27 33 44 14 19 10 25 17 22 23 22 23 26 27 26 26 26 25 25 26 25 25 26 26 27 50
45 46 45 45 45 45 45 45 45 45 45 45 48 49 51 51 39 22 21 27 38 45 23 22 23 21 14 11 20 22 20 22 22 23 25 25 25 26 25 22 24 22 24 25 36
46 46 45 44 45 45 45 45 45 45 45 46 48 49 51 47 18 17 26 31 39 36 19 17 18 13 3 3 10 12 10 10 16 14 9 10 19 14 14 17 22 23 25 25 25
47 46 45 44 45 45 45 44 44 45 46 47 48 49 46 35 10 18 22 19 18 15 14 13 13 15 16 20 17 7 9 14 14 9 8 8 8 10 11 13 16 21 26 24 25
46 45 45 44 45 45 44 43 45 46 46 47 48 49 42 21 15 18 15 16 15 14 10 11 11 11 11 19 15 16 15 14 10 7 3 3 6 10 5 12 16 20 22 24 25
45 44 44 43 45 44 43 44 45 45 46 47 48 46 40 23 18 19 15 15 16 11 8 10 13 12 13 8 20 18 16 13 5 2 4 6 1 -0 3 8 5 7 14 19 24
45 44 43 44 44 44 43 44 45 45 47 47 46 45 33 22 23 9 14 13 16 12 10 11 14 14 12 17 17 13 10 6 7 7 5 5 2 4 6 5 5 5 4 6 17
44 43 43 44 43 43 43 44 45 46 47 46 41 41 26 22 11 10 12 10 12 13 13 15 13 13 18 13 9 9 8 9 9 10 11 10 8 8 10 7 6 4 3 4 8
43 42 43 42 43 43 43 44 41 41 40 38 37 30 27 16 15 13 11 11 11 12 9 12 13 12 11 11 6 8 8 9 8 9 9 10 10 11 12 11 11 11 10 6 1
42 42 42 41 42 43 42 32 21 28 29 23 21 20 15 16 13 9 15 12 10 8 6 10 9 10 10 11 11 10 9 8 7 8 9 11 13 13 14 14 12 10 10 9 5
41 41 40 41 41 42 41 24 26 26 12 20 20 18 20 14 6 6 15 10 7 5 7 7 10 14 12 12 11 10 9 7 9 12 15 15 14 14 14 13 13 12 10 7 5
41 40 40 40 41 36 26 26 33 31 13 26 19 19 15 13 4 5 12 12 5 5 6 7 14 15 12 10 9 9 8 9 13 13 13 12 11 10 11 12 13 14 13 10 11
41 40 40 40 31 36 27 30 36 36 10 12 15 13 6 6 3 5 12 5 6 5 10 13 17 12 12 10 12 10 12 13 12 12 11 15 13 15 14 13 13 12 12 11 11
41 41 40 40 35 32 30 34 36 37 -13 14 14 12 5 4 5 6 11 7 9 10 11 11 13 12 12 12 12 10 13 14 14 14 14 15 16 14 13 12 12 13 12 11 7
41 40 40 40 38 35 36 37 35 23 -6 10 4 7 3 4 4 9 11 14 19 16 16 13 16 15 14 14 13 15 15 18 19 18 15 15 16 13 13 12 13 14 12 11 7
40 39 39 39 34 38 38 36 23 12 8 0 -0 5 2 4 6 8 12 14 10 2 10 16 15 16 15 13 14 15 14 16 13 11 9 13 19 15 16 16 11 13 11 11 11
40 39 38 37 39 39 37 31 11 4 7 5 4 3 0 5 9 11 10 11 16 15 14 13 8 13 15 12 11 15 24 18 11 10 13 19 17 13 15 29 32 29 13 37 49
39 35 35 37 39 39 34 22 -1 14 9 4 2 1 5 10 10 11 11 12 12 16 11 11 13 15 13 14 15 17 17 18 21 21 19 14 16 15 21 36 39 41 43 47 48
34 36 36 40 40 38 32 16 17 12 9 8 2 7 7 9 10 11 10 15 13 18 18 15 11 13 15 17 20 19 18 18 24 14 11 14 13 14 22 34 34 39 41 40 46
37 34 38 40 40 35 23 20 13 15 13 10 11 11 11 10 12 10 11 15 15 17 18 16 15 14 13 12 11 15 16 18 22 23 17 15 12 17 30 34 35 39 40 45 46
36 30 38 39 32 31 25 28 14 15 17 16 16 13 13 15 12 12 13 11 16 17 14 17 16 12 10 13 19 18 13 18 21 17 19 21 18 33 37 37 40 39 41 44 45
34 34 37 36 20 26 27 15 16 17 15 16 16 17 16 14 11 13 13 17 15 14 15 17 14 9 6 8 12 13 14 18 29 28 22 21 18 28 34 36 40 40 40 43 43
32 26 27 31 30 26 23 13 12 17 14 16 14 14 13 12 13 15 15 17 17 15 21 21 17 9 6 7 14 15 14 22 28 22 22 21 23 32 31 34 38 39 38 37 38
33 27 22 18 24 26 24 17 13 12 13 13 11 12 12 10 12 13 14 14 15 18 17 15 7 17 17 16 14 14 18 26 26 27 22 23 24 30 30 34 38 39 38 38 37
29 28 29 24 24 25 23 20 15 16 12 12 14 14 14 13 12 12 14 14 13 15 15 16 5 15 13 16 16 17 26 24 27 28 23 22 22 30 35 36 39 39 38 37 36
32 30 25 25 23 20 22 18 17 15 18 16 15 13 14 15 16 16 17 16 14 15 14 14 16 15 15 16 18 22 23 21 24 27 26 21 27 31 30 31 31 35 35 34 34

GFSSW_sfc_30mbdewp_132.txt.gz
Dewpoint
46 46 47 46 46 47 47 46 46 46 46 46 46 48 49 50 49 42 9 15 22 38 38 22 19 25 24 26 29 30 27 28 28 26 27 27 26 27 27 26 27 26 26 27 46
46 46 46 46 46 46 46 46 45 45 45 46 47 49 50 51 43 22 18 26 35 43 17 19 12 23 17 21 23 23 25 27 27 27 25 25 22 21 22 22 23 24 27 27 49
46 46 46 46 45 46 46 45 45 45 46 46 48 49 50 51 34 20 27 28 37 46 23 21 20 14 13 7 20 23 20 22 17 19 14 12 12 17 16 16 15 14 22 19 24
46 46 46 45 44 45 45 45 45 45 46 47 48 49 51 45 2 17 29 28 37 32 17 17 19 17 10 6 16 12 11 11 12 13 11 6 10 9 8 8 14 18 15 19 24
46 47 46 45 44 45 45 44 44 45 46 47 48 49 46 30 14 17 21 18 16 14 12 12 13 14 14 17 17 12 10 13 14 14 8 7 4 4 5 8 13 16 19 22 24
47 47 46 45 44 45 45 44 44 45 46 47 48 49 39 -4 16 18 14 15 15 12 9 9 11 11 9 17 14 15 16 16 13 8 6 8 8 7 6 7 9 9 9 10 16
47 47 45 44 43 45 44 44 44 46 46 48 48 46 34 -0 18 17 16 15 16 11 9 9 12 12 12 7 18 19 14 9 9 9 8 10 1 3 10 11 11 10 10 9 6
48 46 45 43 44 44 44 43 45 46 48 48 46 44 17 33 23 8 12 11 14 13 11 11 14 13 13 16 13 10 9 6 10 10 10 8 2 7 9 8 8 11 10 10 11
48 46 45 43 44 44 43 44 45 45 46 45 43 38 17 24 12 11 11 10 12 14 15 17 15 15 13 11 7 10 5 8 9 10 8 6 2 1 8 11 11 12 12 11 11
47 45 43 43 43 43 42 44 41 42 42 39 37 24 25 16 14 13 12 12 10 10 8 12 12 12 11 8 -0 7 8 9 9 9 8 7 8 10 12 14 14 14 13 12 11
47 45 43 42 42 42 39 26 17 20 28 16 21 19 15 16 14 10 15 11 9 9 4 11 10 9 10 11 11 10 9 8 7 8 10 10 12 13 12 13 13 14 15 14 14
47 44 43 41 41 42 35 18 24 25 9 17 22 19 18 14 5 7 15 6 6 5 7 10 12 13 12 11 10 9 9 7 9 11 12 11 10 10 12 13 14 14 14 14 13
46 43 41 41 40 33 25 25 32 30 3 12 21 18 18 12 5 5 12 9 6 5 6 7 14 15 11 11 10 9 8 9 10 12 11 10 8 7 11 15 16 16 16 16 15
45 43 41 37 26 31 26 32 35 32 -9 1 15 17 9 8 3 5 11 6 6 5 11 15 17 11 11 11 12 7 10 13 13 11 8 14 8 11 13 14 16 22 25 16 15
44 43 39 29 30 30 28 31 38 34 -10 12 15 12 7 3 6 7 12 8 8 9 8 11 13 10 11 12 13 9 13 13 12 14 16 14 14 12 14 15 15 31 36 33 16
44 42 40 39 37 33 35 35 36 3 -6 11 9 6 4 3 5 11 12 18 19 15 14 13 16 15 14 13 13 15 15 16 20 18 10 13 13 11 14 15 23 35 38 41 42
44 42 38 40 34 37 37 33 6 -1 9 4 4 7 3 4 6 9 13 12 6 1 7 14 15 16 16 13 14 15 17 8 5 6 4 10 15 15 20 18 32 34 37 38 43
44 41 40 38 38 38 37 26 -2 5 9 5 5 4 1 6 10 11 12 12 15 14 14 8 7 13 15 12 11 21 20 13 6 8 9 16 16 16 16 26 32 37 37 42 43
41 38 39 39 40 39 32 5 -1 13 7 4 3 0 6 10 10 11 10 12 12 16 9 12 11 16 14 15 14 15 13 18 16 18 17 14 14 14 30 33 37 38 37 40 45
34 33 35 42 41 38 31 7 10 14 10 8 2 6 7 10 9 10 11 15 14 18 17 16 7 13 14 17 16 17 17 14 20 13 9 10 11 18 28 32 34 37 40 41 42
35 32 39 40 40 34 21 18 17 14 12 9 11 10 11 10 11 9 11 15 16 19 17 17 11 11 12 10 9 15 14 15 20 20 15 14 12 25 28 31 34 38 40 40 39
34 28 41 40 29 30 25 22 15 16 17 15 15 14 13 14 12 12 12 14 17 17 11 18 17 11 8 13 17 17 13 18 19 16 21 21 17 24 24 31 34 37 38 38 37
33 33 38 38 24 26 26 23 17 14 15 15 16 17 17 14 11 14 14 17 15 14 12 17 13 6 -3 4 9 12 13 15 18 24 21 18 15 24 28 33 35 38 37 37 36
33 28 32 34 30 25 22 14 16 18 17 17 17 15 14 12 15 16 16 17 16 21 23 20 15 6 -8 -7 9 10 12 16 25 20 22 20 22 24 28 30 37 37 37 34 33
33 27 27 24 25 27 19 16 16 13 15 13 12 14 13 12 14 14 14 14 16 23 17 12 3 15 15 14 15 14 14 24 23 23 21 22 23 27 29 29 33 34 32 32 31
29 24 29 20 27 26 23 18 16 18 16 14 13 15 14 12 12 12 14 12 11 16 14 16 2 14 14 14 15 16 23 23 23 27 23 23 21 30 32 32 30 31 31 30 29
32 30 24 26 27 22 21 20 17 17 20 17 15 15 14 14 15 15 15 15 15 13 13 12 12 16 12 16 18 20 20 22 22 25 25 21 26 31 30 29 28 29 30 29 27